<?xml version="1.0" encoding="UTF-8" standalone="no" ?>
<gpx xmlns="http://www.topografix.com/GPX/1/1" xmlns:xsi="http://www.w3.org/2001/XMLSchema-instance" xsi:schemaLocation="http://www.topografix.com/GPX/1/1 http://www.topografix.com/GPX/1/1/gpx.xsd" version="1.1" creator="VisuGPX - https://www.visugpx.com">
  <metadata>
    <name>VTT du mercredi 5/09/2012 (à 3)</name>
    <desc><![CDATA[Christian absent pour cause de douleurs dorsales, j\'ai préparé le parcours en m\'inspirant de celui du 16 novembre 2011. Excellent parcours avec un peu de route (de Conflandey à Chargey) et des chemin agréables par temps sec. J\'ai démarré l\'enregistrement après 900 m... A 4,5 km j\'ai oublié de tourner à gauche et j\'ai pris un chemin pentu de 150 m pour récupérer la trace (je suis tombé) A 11,4 km j\'ai quitté la trace prévue à la Combe Jacquard mais en 2 km on l\'a retrouvée
]]></desc>
  </metadata>
  <trk>
    <name><![CDATA[Port31 (manque 900 m)]]></name>
    <trkseg>
      <trkpt lat="47.69165" lon="6.05212">
        <ele>256.39999389648</ele>
        <time>2012-09-05T07:38:07.000Z</time>
      </trkpt>
      <trkpt lat="47.6917" lon="6.0522">
        <ele>256.39999389648</ele>
        <time>2012-09-05T07:38:10.000Z</time>
      </trkpt>
      <trkpt lat="47.69172" lon="6.05224">
        <ele>256.20001220703</ele>
        <time>2012-09-05T07:38:11.000Z</time>
      </trkpt>
      <trkpt lat="47.69175" lon="6.05226">
        <ele>256.20001220703</ele>
        <time>2012-09-05T07:38:12.000Z</time>
      </trkpt>
      <trkpt lat="47.69199" lon="6.05251">
        <ele>256.20001220703</ele>
        <time>2012-09-05T07:38:21.000Z</time>
      </trkpt>
      <trkpt lat="47.69226" lon="6.05281">
        <ele>256.20001220703</ele>
        <time>2012-09-05T07:38:31.000Z</time>
      </trkpt>
      <trkpt lat="47.69249" lon="6.05306">
        <ele>256.20001220703</ele>
        <time>2012-09-05T07:38:39.000Z</time>
      </trkpt>
      <trkpt lat="47.69275" lon="6.05331">
        <ele>256.20001220703</ele>
        <time>2012-09-05T07:38:48.000Z</time>
      </trkpt>
      <trkpt lat="47.69302" lon="6.05353">
        <ele>256.20001220703</ele>
        <time>2012-09-05T07:38:56.000Z</time>
      </trkpt>
      <trkpt lat="47.69327" lon="6.05373">
        <ele>256.20001220703</ele>
        <time>2012-09-05T07:39:04.000Z</time>
      </trkpt>
      <trkpt lat="47.69354" lon="6.05393">
        <ele>256.20001220703</ele>
        <time>2012-09-05T07:39:13.000Z</time>
      </trkpt>
      <trkpt lat="47.6938" lon="6.05414">
        <ele>256.20001220703</ele>
        <time>2012-09-05T07:39:22.000Z</time>
      </trkpt>
      <trkpt lat="47.69402" lon="6.05433">
        <ele>256.20001220703</ele>
        <time>2012-09-05T07:39:30.000Z</time>
      </trkpt>
      <trkpt lat="47.69424" lon="6.0545">
        <ele>256.20001220703</ele>
        <time>2012-09-05T07:39:37.000Z</time>
      </trkpt>
      <trkpt lat="47.69447" lon="6.05471">
        <ele>256.60000610352</ele>
        <time>2012-09-05T07:39:45.000Z</time>
      </trkpt>
      <trkpt lat="47.6945" lon="6.05474">
        <ele>257</ele>
        <time>2012-09-05T07:39:46.000Z</time>
      </trkpt>
      <trkpt lat="47.69453" lon="6.05476">
        <ele>257.39999389648</ele>
        <time>2012-09-05T07:39:47.000Z</time>
      </trkpt>
      <trkpt lat="47.69456" lon="6.05479">
        <ele>257.79998779297</ele>
        <time>2012-09-05T07:39:48.000Z</time>
      </trkpt>
      <trkpt lat="47.69459" lon="6.05482">
        <ele>258.20001220703</ele>
        <time>2012-09-05T07:39:49.000Z</time>
      </trkpt>
      <trkpt lat="47.69472" lon="6.05492">
        <ele>258.20001220703</ele>
        <time>2012-09-05T07:39:54.000Z</time>
      </trkpt>
      <trkpt lat="47.6949" lon="6.05507">
        <ele>258.79998779297</ele>
        <time>2012-09-05T07:40:02.000Z</time>
      </trkpt>
      <trkpt lat="47.69492" lon="6.05509">
        <ele>259.20001220703</ele>
        <time>2012-09-05T07:40:03.000Z</time>
      </trkpt>
      <trkpt lat="47.69494" lon="6.05511">
        <ele>259.60000610352</ele>
        <time>2012-09-05T07:40:04.000Z</time>
      </trkpt>
      <trkpt lat="47.69496" lon="6.05512">
        <ele>260</ele>
        <time>2012-09-05T07:40:05.000Z</time>
      </trkpt>
      <trkpt lat="47.69498" lon="6.05514">
        <ele>260.60000610352</ele>
        <time>2012-09-05T07:40:06.000Z</time>
      </trkpt>
      <trkpt lat="47.69509" lon="6.05525">
        <ele>260.60000610352</ele>
        <time>2012-09-05T07:40:12.000Z</time>
      </trkpt>
      <trkpt lat="47.69523" lon="6.0553">
        <ele>260.60000610352</ele>
        <time>2012-09-05T07:40:18.000Z</time>
      </trkpt>
      <trkpt lat="47.69545" lon="6.05533">
        <ele>260.60000610352</ele>
        <time>2012-09-05T07:40:27.000Z</time>
      </trkpt>
      <trkpt lat="47.69568" lon="6.05538">
        <ele>260.60000610352</ele>
        <time>2012-09-05T07:40:32.000Z</time>
      </trkpt>
      <trkpt lat="47.69573" lon="6.0554">
        <ele>260.60000610352</ele>
        <time>2012-09-05T07:40:33.000Z</time>
      </trkpt>
      <trkpt lat="47.69585" lon="6.05548">
        <ele>260.60000610352</ele>
        <time>2012-09-05T07:40:35.000Z</time>
      </trkpt>
      <trkpt lat="47.6959" lon="6.05553">
        <ele>260.60000610352</ele>
        <time>2012-09-05T07:40:36.000Z</time>
      </trkpt>
      <trkpt lat="47.69608" lon="6.05569">
        <ele>260.20001220703</ele>
        <time>2012-09-05T07:40:39.000Z</time>
      </trkpt>
      <trkpt lat="47.69615" lon="6.05574">
        <ele>259.60000610352</ele>
        <time>2012-09-05T07:40:40.000Z</time>
      </trkpt>
      <trkpt lat="47.69622" lon="6.05578">
        <ele>259.20001220703</ele>
        <time>2012-09-05T07:40:41.000Z</time>
      </trkpt>
      <trkpt lat="47.69629" lon="6.05582">
        <ele>258.79998779297</ele>
        <time>2012-09-05T07:40:42.000Z</time>
      </trkpt>
      <trkpt lat="47.69636" lon="6.05585">
        <ele>258.39999389648</ele>
        <time>2012-09-05T07:40:43.000Z</time>
      </trkpt>
      <trkpt lat="47.69644" lon="6.05587">
        <ele>258</ele>
        <time>2012-09-05T07:40:44.000Z</time>
      </trkpt>
      <trkpt lat="47.69652" lon="6.05588">
        <ele>257.60000610352</ele>
        <time>2012-09-05T07:40:45.000Z</time>
      </trkpt>
      <trkpt lat="47.69659" lon="6.05587">
        <ele>257</ele>
        <time>2012-09-05T07:40:46.000Z</time>
      </trkpt>
      <trkpt lat="47.69667" lon="6.05585">
        <ele>256.60000610352</ele>
        <time>2012-09-05T07:40:47.000Z</time>
      </trkpt>
      <trkpt lat="47.69674" lon="6.05581">
        <ele>256.20001220703</ele>
        <time>2012-09-05T07:40:48.000Z</time>
      </trkpt>
      <trkpt lat="47.69682" lon="6.05575">
        <ele>255.60000610352</ele>
        <time>2012-09-05T07:40:49.000Z</time>
      </trkpt>
      <trkpt lat="47.69689" lon="6.0557">
        <ele>255.19999694824</ele>
        <time>2012-09-05T07:40:50.000Z</time>
      </trkpt>
      <trkpt lat="47.69696" lon="6.05563">
        <ele>254.60000610352</ele>
        <time>2012-09-05T07:40:51.000Z</time>
      </trkpt>
      <trkpt lat="47.69703" lon="6.05557">
        <ele>254.19999694824</ele>
        <time>2012-09-05T07:40:52.000Z</time>
      </trkpt>
      <trkpt lat="47.69709" lon="6.0555">
        <ele>253.60000610352</ele>
        <time>2012-09-05T07:40:53.000Z</time>
      </trkpt>
      <trkpt lat="47.69727" lon="6.05527">
        <ele>253.60000610352</ele>
        <time>2012-09-05T07:40:56.000Z</time>
      </trkpt>
      <trkpt lat="47.69733" lon="6.0552">
        <ele>253.19999694824</ele>
        <time>2012-09-05T07:40:57.000Z</time>
      </trkpt>
      <trkpt lat="47.69738" lon="6.05512">
        <ele>252.80000305176</ele>
        <time>2012-09-05T07:40:58.000Z</time>
      </trkpt>
      <trkpt lat="47.69743" lon="6.05504">
        <ele>252.39999389648</ele>
        <time>2012-09-05T07:40:59.000Z</time>
      </trkpt>
      <trkpt lat="47.69749" lon="6.05495">
        <ele>252</ele>
        <time>2012-09-05T07:41:00.000Z</time>
      </trkpt>
      <trkpt lat="47.69755" lon="6.05487">
        <ele>251.60000610352</ele>
        <time>2012-09-05T07:41:01.000Z</time>
      </trkpt>
      <trkpt lat="47.6976" lon="6.0548">
        <ele>251.60000610352</ele>
        <time>2012-09-05T07:41:02.000Z</time>
      </trkpt>
      <trkpt lat="47.69779" lon="6.0546">
        <ele>251.60000610352</ele>
        <time>2012-09-05T07:41:05.000Z</time>
      </trkpt>
      <trkpt lat="47.69792" lon="6.05453">
        <ele>251.19999694824</ele>
        <time>2012-09-05T07:41:07.000Z</time>
      </trkpt>
      <trkpt lat="47.69798" lon="6.05451">
        <ele>250.80000305176</ele>
        <time>2012-09-05T07:41:08.000Z</time>
      </trkpt>
      <trkpt lat="47.69804" lon="6.0545">
        <ele>250.39999389648</ele>
        <time>2012-09-05T07:41:09.000Z</time>
      </trkpt>
      <trkpt lat="47.69809" lon="6.05449">
        <ele>250</ele>
        <time>2012-09-05T07:41:10.000Z</time>
      </trkpt>
      <trkpt lat="47.69814" lon="6.05449">
        <ele>249.60000610352</ele>
        <time>2012-09-05T07:41:11.000Z</time>
      </trkpt>
      <trkpt lat="47.6982" lon="6.05448">
        <ele>249.60000610352</ele>
        <time>2012-09-05T07:41:14.000Z</time>
      </trkpt>
      <trkpt lat="47.6982" lon="6.05448">
        <ele>249.60000610352</ele>
        <time>2012-09-05T07:41:15.000Z</time>
      </trkpt>
      <trkpt lat="47.69826" lon="6.05446">
        <ele>250</ele>
        <time>2012-09-05T07:41:35.000Z</time>
      </trkpt>
      <trkpt lat="47.69828" lon="6.05447">
        <ele>250.39999389648</ele>
        <time>2012-09-05T07:41:36.000Z</time>
      </trkpt>
      <trkpt lat="47.69829" lon="6.05447">
        <ele>250.80000305176</ele>
        <time>2012-09-05T07:41:37.000Z</time>
      </trkpt>
      <trkpt lat="47.69831" lon="6.05447">
        <ele>251.19999694824</ele>
        <time>2012-09-05T07:41:38.000Z</time>
      </trkpt>
      <trkpt lat="47.69833" lon="6.05447">
        <ele>251.60000610352</ele>
        <time>2012-09-05T07:41:39.000Z</time>
      </trkpt>
      <trkpt lat="47.69839" lon="6.05444">
        <ele>251.60000610352</ele>
        <time>2012-09-05T07:41:43.000Z</time>
      </trkpt>
      <trkpt lat="47.69847" lon="6.05441">
        <ele>252</ele>
        <time>2012-09-05T07:41:48.000Z</time>
      </trkpt>
      <trkpt lat="47.69849" lon="6.05441">
        <ele>252.39999389648</ele>
        <time>2012-09-05T07:41:49.000Z</time>
      </trkpt>
      <trkpt lat="47.6985" lon="6.0544">
        <ele>252.80000305176</ele>
        <time>2012-09-05T07:41:50.000Z</time>
      </trkpt>
      <trkpt lat="47.69851" lon="6.05439">
        <ele>253.19999694824</ele>
        <time>2012-09-05T07:41:51.000Z</time>
      </trkpt>
      <trkpt lat="47.69852" lon="6.05439">
        <ele>253.60000610352</ele>
        <time>2012-09-05T07:41:52.000Z</time>
      </trkpt>
      <trkpt lat="47.69854" lon="6.05438">
        <ele>253.60000610352</ele>
        <time>2012-09-05T07:41:53.000Z</time>
      </trkpt>
      <trkpt lat="47.69858" lon="6.05435">
        <ele>253.60000610352</ele>
        <time>2012-09-05T07:41:57.000Z</time>
      </trkpt>
      <trkpt lat="47.69868" lon="6.05431">
        <ele>253.60000610352</ele>
        <time>2012-09-05T07:42:04.000Z</time>
      </trkpt>
      <trkpt lat="47.6987" lon="6.0543">
        <ele>254</ele>
        <time>2012-09-05T07:42:06.000Z</time>
      </trkpt>
      <trkpt lat="47.69871" lon="6.05429">
        <ele>254.39999389648</ele>
        <time>2012-09-05T07:42:07.000Z</time>
      </trkpt>
      <trkpt lat="47.69872" lon="6.05429">
        <ele>255</ele>
        <time>2012-09-05T07:42:08.000Z</time>
      </trkpt>
      <trkpt lat="47.69874" lon="6.05428">
        <ele>255.39999389648</ele>
        <time>2012-09-05T07:42:09.000Z</time>
      </trkpt>
      <trkpt lat="47.69875" lon="6.05428">
        <ele>255.80000305176</ele>
        <time>2012-09-05T07:42:10.000Z</time>
      </trkpt>
      <trkpt lat="47.69877" lon="6.05427">
        <ele>255.80000305176</ele>
        <time>2012-09-05T07:42:11.000Z</time>
      </trkpt>
      <trkpt lat="47.69886" lon="6.05423">
        <ele>255.80000305176</ele>
        <time>2012-09-05T07:42:19.000Z</time>
      </trkpt>
      <trkpt lat="47.69893" lon="6.05419">
        <ele>256.20001220703</ele>
        <time>2012-09-05T07:42:25.000Z</time>
      </trkpt>
      <trkpt lat="47.69895" lon="6.05419">
        <ele>256.60000610352</ele>
        <time>2012-09-05T07:42:26.000Z</time>
      </trkpt>
      <trkpt lat="47.69896" lon="6.05418">
        <ele>257</ele>
        <time>2012-09-05T07:42:27.000Z</time>
      </trkpt>
      <trkpt lat="47.69897" lon="6.05417">
        <ele>257.39999389648</ele>
        <time>2012-09-05T07:42:28.000Z</time>
      </trkpt>
      <trkpt lat="47.69899" lon="6.05417">
        <ele>257.79998779297</ele>
        <time>2012-09-05T07:42:29.000Z</time>
      </trkpt>
      <trkpt lat="47.69906" lon="6.05413">
        <ele>257.79998779297</ele>
        <time>2012-09-05T07:42:34.000Z</time>
      </trkpt>
      <trkpt lat="47.69918" lon="6.05408">
        <ele>257.79998779297</ele>
        <time>2012-09-05T07:42:42.000Z</time>
      </trkpt>
      <trkpt lat="47.69925" lon="6.05404">
        <ele>258.20001220703</ele>
        <time>2012-09-05T07:42:47.000Z</time>
      </trkpt>
      <trkpt lat="47.69927" lon="6.05404">
        <ele>258.79998779297</ele>
        <time>2012-09-05T07:42:48.000Z</time>
      </trkpt>
      <trkpt lat="47.69929" lon="6.05403">
        <ele>259.20001220703</ele>
        <time>2012-09-05T07:42:49.000Z</time>
      </trkpt>
      <trkpt lat="47.6993" lon="6.05402">
        <ele>259.60000610352</ele>
        <time>2012-09-05T07:42:50.000Z</time>
      </trkpt>
      <trkpt lat="47.69932" lon="6.05401">
        <ele>260</ele>
        <time>2012-09-05T07:42:51.000Z</time>
      </trkpt>
      <trkpt lat="47.69944" lon="6.05395">
        <ele>260</ele>
        <time>2012-09-05T07:42:56.000Z</time>
      </trkpt>
      <trkpt lat="47.6997" lon="6.05385">
        <ele>260</ele>
        <time>2012-09-05T07:43:05.000Z</time>
      </trkpt>
      <trkpt lat="47.69993" lon="6.05378">
        <ele>260</ele>
        <time>2012-09-05T07:43:12.000Z</time>
      </trkpt>
      <trkpt lat="47.70024" lon="6.05378">
        <ele>260</ele>
        <time>2012-09-05T07:43:20.000Z</time>
      </trkpt>
      <trkpt lat="47.70057" lon="6.05381">
        <ele>259.60000610352</ele>
        <time>2012-09-05T07:43:26.000Z</time>
      </trkpt>
      <trkpt lat="47.70063" lon="6.05381">
        <ele>259.20001220703</ele>
        <time>2012-09-05T07:43:27.000Z</time>
      </trkpt>
      <trkpt lat="47.70069" lon="6.05381">
        <ele>258.79998779297</ele>
        <time>2012-09-05T07:43:28.000Z</time>
      </trkpt>
      <trkpt lat="47.70075" lon="6.0538">
        <ele>258.39999389648</ele>
        <time>2012-09-05T07:43:29.000Z</time>
      </trkpt>
      <trkpt lat="47.70082" lon="6.05378">
        <ele>258</ele>
        <time>2012-09-05T07:43:30.000Z</time>
      </trkpt>
      <trkpt lat="47.70095" lon="6.05374">
        <ele>258</ele>
        <time>2012-09-05T07:43:32.000Z</time>
      </trkpt>
      <trkpt lat="47.70108" lon="6.05369">
        <ele>257.60000610352</ele>
        <time>2012-09-05T07:43:34.000Z</time>
      </trkpt>
      <trkpt lat="47.70114" lon="6.05366">
        <ele>257.20001220703</ele>
        <time>2012-09-05T07:43:35.000Z</time>
      </trkpt>
      <trkpt lat="47.7012" lon="6.05363">
        <ele>256.79998779297</ele>
        <time>2012-09-05T07:43:36.000Z</time>
      </trkpt>
      <trkpt lat="47.70127" lon="6.0536">
        <ele>256.39999389648</ele>
        <time>2012-09-05T07:43:37.000Z</time>
      </trkpt>
      <trkpt lat="47.70134" lon="6.05356">
        <ele>255.80000305176</ele>
        <time>2012-09-05T07:43:38.000Z</time>
      </trkpt>
      <trkpt lat="47.7014" lon="6.05353">
        <ele>255.80000305176</ele>
        <time>2012-09-05T07:43:39.000Z</time>
      </trkpt>
      <trkpt lat="47.70179" lon="6.05326">
        <ele>255.80000305176</ele>
        <time>2012-09-05T07:43:45.000Z</time>
      </trkpt>
      <trkpt lat="47.70191" lon="6.05316">
        <ele>255.39999389648</ele>
        <time>2012-09-05T07:43:47.000Z</time>
      </trkpt>
      <trkpt lat="47.70197" lon="6.0531">
        <ele>255</ele>
        <time>2012-09-05T07:43:48.000Z</time>
      </trkpt>
      <trkpt lat="47.70202" lon="6.05304">
        <ele>254.60000610352</ele>
        <time>2012-09-05T07:43:49.000Z</time>
      </trkpt>
      <trkpt lat="47.70207" lon="6.05298">
        <ele>253.80000305176</ele>
        <time>2012-09-05T07:43:50.000Z</time>
      </trkpt>
      <trkpt lat="47.70212" lon="6.05294">
        <ele>253.80000305176</ele>
        <time>2012-09-05T07:43:51.000Z</time>
      </trkpt>
      <trkpt lat="47.70226" lon="6.05283">
        <ele>253.80000305176</ele>
        <time>2012-09-05T07:43:55.000Z</time>
      </trkpt>
      <trkpt lat="47.70229" lon="6.05282">
        <ele>254.19999694824</ele>
        <time>2012-09-05T07:43:56.000Z</time>
      </trkpt>
      <trkpt lat="47.70231" lon="6.05281">
        <ele>254.60000610352</ele>
        <time>2012-09-05T07:43:57.000Z</time>
      </trkpt>
      <trkpt lat="47.70233" lon="6.0528">
        <ele>255</ele>
        <time>2012-09-05T07:43:58.000Z</time>
      </trkpt>
      <trkpt lat="47.70235" lon="6.05278">
        <ele>255.39999389648</ele>
        <time>2012-09-05T07:43:59.000Z</time>
      </trkpt>
      <trkpt lat="47.70237" lon="6.05277">
        <ele>255.80000305176</ele>
        <time>2012-09-05T07:44:00.000Z</time>
      </trkpt>
      <trkpt lat="47.70239" lon="6.05276">
        <ele>255.80000305176</ele>
        <time>2012-09-05T07:44:01.000Z</time>
      </trkpt>
      <trkpt lat="47.70251" lon="6.05274">
        <ele>256.20001220703</ele>
        <time>2012-09-05T07:44:07.000Z</time>
      </trkpt>
      <trkpt lat="47.70252" lon="6.05274">
        <ele>256.60000610352</ele>
        <time>2012-09-05T07:44:08.000Z</time>
      </trkpt>
      <trkpt lat="47.70253" lon="6.05274">
        <ele>257</ele>
        <time>2012-09-05T07:44:09.000Z</time>
      </trkpt>
      <trkpt lat="47.70255" lon="6.05274">
        <ele>257.60000610352</ele>
        <time>2012-09-05T07:44:10.000Z</time>
      </trkpt>
      <trkpt lat="47.70257" lon="6.05274">
        <ele>258</ele>
        <time>2012-09-05T07:44:11.000Z</time>
      </trkpt>
      <trkpt lat="47.70262" lon="6.05274">
        <ele>258</ele>
        <time>2012-09-05T07:44:14.000Z</time>
      </trkpt>
      <trkpt lat="47.70271" lon="6.05273">
        <ele>258.39999389648</ele>
        <time>2012-09-05T07:44:18.000Z</time>
      </trkpt>
      <trkpt lat="47.70273" lon="6.05273">
        <ele>258.79998779297</ele>
        <time>2012-09-05T07:44:19.000Z</time>
      </trkpt>
      <trkpt lat="47.70275" lon="6.05273">
        <ele>259.20001220703</ele>
        <time>2012-09-05T07:44:20.000Z</time>
      </trkpt>
      <trkpt lat="47.70277" lon="6.05272">
        <ele>259.60000610352</ele>
        <time>2012-09-05T07:44:21.000Z</time>
      </trkpt>
      <trkpt lat="47.70279" lon="6.05272">
        <ele>260.20001220703</ele>
        <time>2012-09-05T07:44:22.000Z</time>
      </trkpt>
      <trkpt lat="47.70287" lon="6.05273">
        <ele>260.20001220703</ele>
        <time>2012-09-05T07:44:27.000Z</time>
      </trkpt>
      <trkpt lat="47.70293" lon="6.05272">
        <ele>260.60000610352</ele>
        <time>2012-09-05T07:44:32.000Z</time>
      </trkpt>
      <trkpt lat="47.70294" lon="6.05272">
        <ele>261</ele>
        <time>2012-09-05T07:44:33.000Z</time>
      </trkpt>
      <trkpt lat="47.70295" lon="6.05272">
        <ele>261.39999389648</ele>
        <time>2012-09-05T07:44:34.000Z</time>
      </trkpt>
      <trkpt lat="47.70297" lon="6.05272">
        <ele>261.79998779297</ele>
        <time>2012-09-05T07:44:35.000Z</time>
      </trkpt>
      <trkpt lat="47.70299" lon="6.05271">
        <ele>262.20001220703</ele>
        <time>2012-09-05T07:44:36.000Z</time>
      </trkpt>
      <trkpt lat="47.70308" lon="6.05272">
        <ele>262.20001220703</ele>
        <time>2012-09-05T07:44:42.000Z</time>
      </trkpt>
      <trkpt lat="47.70315" lon="6.05271">
        <ele>262.60000610352</ele>
        <time>2012-09-05T07:44:47.000Z</time>
      </trkpt>
      <trkpt lat="47.70316" lon="6.05272">
        <ele>263</ele>
        <time>2012-09-05T07:44:48.000Z</time>
      </trkpt>
      <trkpt lat="47.70318" lon="6.05272">
        <ele>263.60000610352</ele>
        <time>2012-09-05T07:44:49.000Z</time>
      </trkpt>
      <trkpt lat="47.70319" lon="6.05272">
        <ele>264</ele>
        <time>2012-09-05T07:44:50.000Z</time>
      </trkpt>
      <trkpt lat="47.7032" lon="6.05272">
        <ele>264.39999389648</ele>
        <time>2012-09-05T07:44:51.000Z</time>
      </trkpt>
      <trkpt lat="47.70324" lon="6.05272">
        <ele>264.39999389648</ele>
        <time>2012-09-05T07:44:54.000Z</time>
      </trkpt>
      <trkpt lat="47.70338" lon="6.05272">
        <ele>264.39999389648</ele>
        <time>2012-09-05T07:45:03.000Z</time>
      </trkpt>
      <trkpt lat="47.70346" lon="6.05274">
        <ele>264.79998779297</ele>
        <time>2012-09-05T07:45:08.000Z</time>
      </trkpt>
      <trkpt lat="47.70347" lon="6.05274">
        <ele>265.20001220703</ele>
        <time>2012-09-05T07:45:09.000Z</time>
      </trkpt>
      <trkpt lat="47.70349" lon="6.05274">
        <ele>265.60000610352</ele>
        <time>2012-09-05T07:45:10.000Z</time>
      </trkpt>
      <trkpt lat="47.70351" lon="6.05274">
        <ele>266</ele>
        <time>2012-09-05T07:45:11.000Z</time>
      </trkpt>
      <trkpt lat="47.70353" lon="6.05273">
        <ele>266.39999389648</ele>
        <time>2012-09-05T07:45:12.000Z</time>
      </trkpt>
      <trkpt lat="47.70361" lon="6.05276">
        <ele>266.39999389648</ele>
        <time>2012-09-05T07:45:17.000Z</time>
      </trkpt>
      <trkpt lat="47.70373" lon="6.05278">
        <ele>266.39999389648</ele>
        <time>2012-09-05T07:45:24.000Z</time>
      </trkpt>
      <trkpt lat="47.70382" lon="6.05281">
        <ele>266.79998779297</ele>
        <time>2012-09-05T07:45:29.000Z</time>
      </trkpt>
      <trkpt lat="47.70384" lon="6.05282">
        <ele>267.20001220703</ele>
        <time>2012-09-05T07:45:30.000Z</time>
      </trkpt>
      <trkpt lat="47.70386" lon="6.05282">
        <ele>267.60000610352</ele>
        <time>2012-09-05T07:45:31.000Z</time>
      </trkpt>
      <trkpt lat="47.70388" lon="6.05282">
        <ele>268</ele>
        <time>2012-09-05T07:45:32.000Z</time>
      </trkpt>
      <trkpt lat="47.7039" lon="6.05282">
        <ele>268.39999389648</ele>
        <time>2012-09-05T07:45:33.000Z</time>
      </trkpt>
      <trkpt lat="47.704" lon="6.05285">
        <ele>268.39999389648</ele>
        <time>2012-09-05T07:45:39.000Z</time>
      </trkpt>
      <trkpt lat="47.70417" lon="6.05291">
        <ele>268.39999389648</ele>
        <time>2012-09-05T07:45:48.000Z</time>
      </trkpt>
      <trkpt lat="47.70431" lon="6.05295">
        <ele>268.39999389648</ele>
        <time>2012-09-05T07:45:55.000Z</time>
      </trkpt>
      <trkpt lat="47.70449" lon="6.05302">
        <ele>268.39999389648</ele>
        <time>2012-09-05T07:46:04.000Z</time>
      </trkpt>
      <trkpt lat="47.70463" lon="6.05317">
        <ele>268.39999389648</ele>
        <time>2012-09-05T07:46:12.000Z</time>
      </trkpt>
      <trkpt lat="47.70477" lon="6.05331">
        <ele>268.39999389648</ele>
        <time>2012-09-05T07:46:19.000Z</time>
      </trkpt>
      <trkpt lat="47.70492" lon="6.05344">
        <ele>268.39999389648</ele>
        <time>2012-09-05T07:46:26.000Z</time>
      </trkpt>
      <trkpt lat="47.70512" lon="6.05353">
        <ele>268.39999389648</ele>
        <time>2012-09-05T07:46:34.000Z</time>
      </trkpt>
      <trkpt lat="47.70529" lon="6.05358">
        <ele>268.39999389648</ele>
        <time>2012-09-05T07:46:40.000Z</time>
      </trkpt>
      <trkpt lat="47.70546" lon="6.05363">
        <ele>268.39999389648</ele>
        <time>2012-09-05T07:46:46.000Z</time>
      </trkpt>
      <trkpt lat="47.70563" lon="6.0537">
        <ele>268.39999389648</ele>
        <time>2012-09-05T07:46:52.000Z</time>
      </trkpt>
      <trkpt lat="47.7058" lon="6.05377">
        <ele>268.39999389648</ele>
        <time>2012-09-05T07:46:58.000Z</time>
      </trkpt>
      <trkpt lat="47.70608" lon="6.05388">
        <ele>268.39999389648</ele>
        <time>2012-09-05T07:47:06.000Z</time>
      </trkpt>
      <trkpt lat="47.70611" lon="6.05389">
        <ele>268</ele>
        <time>2012-09-05T07:47:07.000Z</time>
      </trkpt>
      <trkpt lat="47.70613" lon="6.0539">
        <ele>267.39999389648</ele>
        <time>2012-09-05T07:47:08.000Z</time>
      </trkpt>
      <trkpt lat="47.70615" lon="6.05391">
        <ele>267</ele>
        <time>2012-09-05T07:47:09.000Z</time>
      </trkpt>
      <trkpt lat="47.70617" lon="6.05392">
        <ele>267.20001220703</ele>
        <time>2012-09-05T07:47:10.000Z</time>
      </trkpt>
      <trkpt lat="47.7062" lon="6.05393">
        <ele>267.60000610352</ele>
        <time>2012-09-05T07:47:11.000Z</time>
      </trkpt>
      <trkpt lat="47.70622" lon="6.05394">
        <ele>267.79998779297</ele>
        <time>2012-09-05T07:47:12.000Z</time>
      </trkpt>
      <trkpt lat="47.70624" lon="6.05395">
        <ele>268</ele>
        <time>2012-09-05T07:47:13.000Z</time>
      </trkpt>
      <trkpt lat="47.70627" lon="6.05396">
        <ele>268.39999389648</ele>
        <time>2012-09-05T07:47:14.000Z</time>
      </trkpt>
      <trkpt lat="47.70637" lon="6.05399">
        <ele>268.39999389648</ele>
        <time>2012-09-05T07:47:18.000Z</time>
      </trkpt>
      <trkpt lat="47.70666" lon="6.05407">
        <ele>268.39999389648</ele>
        <time>2012-09-05T07:47:27.000Z</time>
      </trkpt>
      <trkpt lat="47.70685" lon="6.05411">
        <ele>268.39999389648</ele>
        <time>2012-09-05T07:47:33.000Z</time>
      </trkpt>
      <trkpt lat="47.70699" lon="6.0541">
        <ele>268</ele>
        <time>2012-09-05T07:47:38.000Z</time>
      </trkpt>
      <trkpt lat="47.70702" lon="6.0541">
        <ele>267.60000610352</ele>
        <time>2012-09-05T07:47:39.000Z</time>
      </trkpt>
      <trkpt lat="47.70705" lon="6.0541">
        <ele>267.20001220703</ele>
        <time>2012-09-05T07:47:40.000Z</time>
      </trkpt>
      <trkpt lat="47.70708" lon="6.0541">
        <ele>266.79998779297</ele>
        <time>2012-09-05T07:47:41.000Z</time>
      </trkpt>
      <trkpt lat="47.70711" lon="6.0541">
        <ele>266.39999389648</ele>
        <time>2012-09-05T07:47:42.000Z</time>
      </trkpt>
      <trkpt lat="47.70729" lon="6.0541">
        <ele>266.39999389648</ele>
        <time>2012-09-05T07:47:48.000Z</time>
      </trkpt>
      <trkpt lat="47.70757" lon="6.05411">
        <ele>266.39999389648</ele>
        <time>2012-09-05T07:47:58.000Z</time>
      </trkpt>
      <trkpt lat="47.70771" lon="6.05415">
        <ele>266.39999389648</ele>
        <time>2012-09-05T07:48:04.000Z</time>
      </trkpt>
      <trkpt lat="47.70793" lon="6.05422">
        <ele>266.39999389648</ele>
        <time>2012-09-05T07:48:13.000Z</time>
      </trkpt>
      <trkpt lat="47.70801" lon="6.05428">
        <ele>266.79998779297</ele>
        <time>2012-09-05T07:48:17.000Z</time>
      </trkpt>
      <trkpt lat="47.70802" lon="6.0543">
        <ele>267.20001220703</ele>
        <time>2012-09-05T07:48:18.000Z</time>
      </trkpt>
      <trkpt lat="47.70804" lon="6.05431">
        <ele>267.60000610352</ele>
        <time>2012-09-05T07:48:19.000Z</time>
      </trkpt>
      <trkpt lat="47.70806" lon="6.05432">
        <ele>268</ele>
        <time>2012-09-05T07:48:20.000Z</time>
      </trkpt>
      <trkpt lat="47.70808" lon="6.05434">
        <ele>268.39999389648</ele>
        <time>2012-09-05T07:48:21.000Z</time>
      </trkpt>
      <trkpt lat="47.7082" lon="6.0544">
        <ele>268.39999389648</ele>
        <time>2012-09-05T07:48:27.000Z</time>
      </trkpt>
      <trkpt lat="47.70833" lon="6.05446">
        <ele>268.39999389648</ele>
        <time>2012-09-05T07:48:34.000Z</time>
      </trkpt>
      <trkpt lat="47.70837" lon="6.05448">
        <ele>268.79998779297</ele>
        <time>2012-09-05T07:48:37.000Z</time>
      </trkpt>
      <trkpt lat="47.70839" lon="6.05449">
        <ele>269.20001220703</ele>
        <time>2012-09-05T07:48:38.000Z</time>
      </trkpt>
      <trkpt lat="47.7084" lon="6.0545">
        <ele>269.60000610352</ele>
        <time>2012-09-05T07:48:39.000Z</time>
      </trkpt>
      <trkpt lat="47.70842" lon="6.05451">
        <ele>270</ele>
        <time>2012-09-05T07:48:40.000Z</time>
      </trkpt>
      <trkpt lat="47.70843" lon="6.05452">
        <ele>270.39999389648</ele>
        <time>2012-09-05T07:48:41.000Z</time>
      </trkpt>
      <trkpt lat="47.70852" lon="6.05457">
        <ele>270.39999389648</ele>
        <time>2012-09-05T07:48:46.000Z</time>
      </trkpt>
      <trkpt lat="47.70861" lon="6.05462">
        <ele>270.79998779297</ele>
        <time>2012-09-05T07:48:52.000Z</time>
      </trkpt>
      <trkpt lat="47.70863" lon="6.05463">
        <ele>271.20001220703</ele>
        <time>2012-09-05T07:48:53.000Z</time>
      </trkpt>
      <trkpt lat="47.70864" lon="6.05464">
        <ele>271.60000610352</ele>
        <time>2012-09-05T07:48:54.000Z</time>
      </trkpt>
      <trkpt lat="47.70866" lon="6.05465">
        <ele>272.20001220703</ele>
        <time>2012-09-05T07:48:55.000Z</time>
      </trkpt>
      <trkpt lat="47.70868" lon="6.05465">
        <ele>272.60000610352</ele>
        <time>2012-09-05T07:48:56.000Z</time>
      </trkpt>
      <trkpt lat="47.70876" lon="6.05468">
        <ele>272.60000610352</ele>
        <time>2012-09-05T07:49:01.000Z</time>
      </trkpt>
      <trkpt lat="47.70885" lon="6.05472">
        <ele>272.60000610352</ele>
        <time>2012-09-05T07:49:07.000Z</time>
      </trkpt>
      <trkpt lat="47.70888" lon="6.05473">
        <ele>273</ele>
        <time>2012-09-05T07:49:09.000Z</time>
      </trkpt>
      <trkpt lat="47.7089" lon="6.05474">
        <ele>273.79998779297</ele>
        <time>2012-09-05T07:49:10.000Z</time>
      </trkpt>
      <trkpt lat="47.70891" lon="6.05475">
        <ele>274.20001220703</ele>
        <time>2012-09-05T07:49:11.000Z</time>
      </trkpt>
      <trkpt lat="47.70892" lon="6.05475">
        <ele>274.60000610352</ele>
        <time>2012-09-05T07:49:12.000Z</time>
      </trkpt>
      <trkpt lat="47.70895" lon="6.05477">
        <ele>274.60000610352</ele>
        <time>2012-09-05T07:49:14.000Z</time>
      </trkpt>
      <trkpt lat="47.70911" lon="6.05483">
        <ele>274.60000610352</ele>
        <time>2012-09-05T07:49:24.000Z</time>
      </trkpt>
      <trkpt lat="47.70915" lon="6.05485">
        <ele>275</ele>
        <time>2012-09-05T07:49:27.000Z</time>
      </trkpt>
      <trkpt lat="47.70916" lon="6.05485">
        <ele>275.39999389648</ele>
        <time>2012-09-05T07:49:28.000Z</time>
      </trkpt>
      <trkpt lat="47.70918" lon="6.05486">
        <ele>275.79998779297</ele>
        <time>2012-09-05T07:49:29.000Z</time>
      </trkpt>
      <trkpt lat="47.70919" lon="6.05487">
        <ele>276.20001220703</ele>
        <time>2012-09-05T07:49:30.000Z</time>
      </trkpt>
      <trkpt lat="47.7092" lon="6.05488">
        <ele>276.60000610352</ele>
        <time>2012-09-05T07:49:31.000Z</time>
      </trkpt>
      <trkpt lat="47.70922" lon="6.05488">
        <ele>276.60000610352</ele>
        <time>2012-09-05T07:49:32.000Z</time>
      </trkpt>
      <trkpt lat="47.70933" lon="6.05493">
        <ele>276.60000610352</ele>
        <time>2012-09-05T07:49:40.000Z</time>
      </trkpt>
      <trkpt lat="47.70941" lon="6.05496">
        <ele>276.60000610352</ele>
        <time>2012-09-05T07:49:46.000Z</time>
      </trkpt>
      <trkpt lat="47.70943" lon="6.05495">
        <ele>276.60000610352</ele>
        <time>2012-09-05T07:49:47.000Z</time>
      </trkpt>
      <trkpt lat="47.70952" lon="6.05499">
        <ele>276.60000610352</ele>
        <time>2012-09-05T07:49:53.000Z</time>
      </trkpt>
      <trkpt lat="47.70954" lon="6.05499">
        <ele>277</ele>
        <time>2012-09-05T07:49:54.000Z</time>
      </trkpt>
      <trkpt lat="47.70955" lon="6.055">
        <ele>277.39999389648</ele>
        <time>2012-09-05T07:49:55.000Z</time>
      </trkpt>
      <trkpt lat="47.70957" lon="6.055">
        <ele>277.79998779297</ele>
        <time>2012-09-05T07:49:56.000Z</time>
      </trkpt>
      <trkpt lat="47.70958" lon="6.05501">
        <ele>278.20001220703</ele>
        <time>2012-09-05T07:49:57.000Z</time>
      </trkpt>
      <trkpt lat="47.7096" lon="6.05501">
        <ele>278.60000610352</ele>
        <time>2012-09-05T07:49:58.000Z</time>
      </trkpt>
      <trkpt lat="47.70966" lon="6.05502">
        <ele>278.60000610352</ele>
        <time>2012-09-05T07:50:02.000Z</time>
      </trkpt>
      <trkpt lat="47.70977" lon="6.05505">
        <ele>279.20001220703</ele>
        <time>2012-09-05T07:50:08.000Z</time>
      </trkpt>
      <trkpt lat="47.7098" lon="6.05505">
        <ele>279.60000610352</ele>
        <time>2012-09-05T07:50:09.000Z</time>
      </trkpt>
      <trkpt lat="47.70982" lon="6.05506">
        <ele>280</ele>
        <time>2012-09-05T07:50:10.000Z</time>
      </trkpt>
      <trkpt lat="47.70985" lon="6.05506">
        <ele>280.39999389648</ele>
        <time>2012-09-05T07:50:11.000Z</time>
      </trkpt>
      <trkpt lat="47.70986" lon="6.05507">
        <ele>280.79998779297</ele>
        <time>2012-09-05T07:50:12.000Z</time>
      </trkpt>
      <trkpt lat="47.70994" lon="6.05509">
        <ele>280.79998779297</ele>
        <time>2012-09-05T07:50:16.000Z</time>
      </trkpt>
      <trkpt lat="47.71007" lon="6.05512">
        <ele>280.79998779297</ele>
        <time>2012-09-05T07:50:23.000Z</time>
      </trkpt>
      <trkpt lat="47.7102" lon="6.05517">
        <ele>280.79998779297</ele>
        <time>2012-09-05T07:50:30.000Z</time>
      </trkpt>
      <trkpt lat="47.71034" lon="6.05519">
        <ele>280.79998779297</ele>
        <time>2012-09-05T07:50:38.000Z</time>
      </trkpt>
      <trkpt lat="47.71046" lon="6.05521">
        <ele>280.79998779297</ele>
        <time>2012-09-05T07:50:45.000Z</time>
      </trkpt>
      <trkpt lat="47.71062" lon="6.05517">
        <ele>280.79998779297</ele>
        <time>2012-09-05T07:50:53.000Z</time>
      </trkpt>
      <trkpt lat="47.71071" lon="6.05515">
        <ele>281.20001220703</ele>
        <time>2012-09-05T07:50:57.000Z</time>
      </trkpt>
      <trkpt lat="47.71073" lon="6.05515">
        <ele>281.60000610352</ele>
        <time>2012-09-05T07:50:58.000Z</time>
      </trkpt>
      <trkpt lat="47.71076" lon="6.05514">
        <ele>282</ele>
        <time>2012-09-05T07:50:59.000Z</time>
      </trkpt>
      <trkpt lat="47.71078" lon="6.05514">
        <ele>282.39999389648</ele>
        <time>2012-09-05T07:51:00.000Z</time>
      </trkpt>
      <trkpt lat="47.7108" lon="6.05514">
        <ele>282.79998779297</ele>
        <time>2012-09-05T07:51:01.000Z</time>
      </trkpt>
      <trkpt lat="47.71096" lon="6.05512">
        <ele>282.79998779297</ele>
        <time>2012-09-05T07:51:08.000Z</time>
      </trkpt>
      <trkpt lat="47.71117" lon="6.05511">
        <ele>282.79998779297</ele>
        <time>2012-09-05T07:51:16.000Z</time>
      </trkpt>
      <trkpt lat="47.71133" lon="6.0551">
        <ele>282.79998779297</ele>
        <time>2012-09-05T07:51:23.000Z</time>
      </trkpt>
      <trkpt lat="47.71142" lon="6.05509">
        <ele>282.39999389648</ele>
        <time>2012-09-05T07:51:27.000Z</time>
      </trkpt>
      <trkpt lat="47.71144" lon="6.05508">
        <ele>282</ele>
        <time>2012-09-05T07:51:28.000Z</time>
      </trkpt>
      <trkpt lat="47.71146" lon="6.05508">
        <ele>281.60000610352</ele>
        <time>2012-09-05T07:51:29.000Z</time>
      </trkpt>
      <trkpt lat="47.71148" lon="6.05507">
        <ele>281.20001220703</ele>
        <time>2012-09-05T07:51:30.000Z</time>
      </trkpt>
      <trkpt lat="47.71151" lon="6.05507">
        <ele>280.79998779297</ele>
        <time>2012-09-05T07:51:31.000Z</time>
      </trkpt>
      <trkpt lat="47.71166" lon="6.05512">
        <ele>280.79998779297</ele>
        <time>2012-09-05T07:51:36.000Z</time>
      </trkpt>
      <trkpt lat="47.71181" lon="6.05513">
        <ele>280.79998779297</ele>
        <time>2012-09-05T07:51:42.000Z</time>
      </trkpt>
      <trkpt lat="47.71184" lon="6.05513">
        <ele>280.39999389648</ele>
        <time>2012-09-05T07:51:44.000Z</time>
      </trkpt>
      <trkpt lat="47.71186" lon="6.05513">
        <ele>280</ele>
        <time>2012-09-05T07:51:45.000Z</time>
      </trkpt>
      <trkpt lat="47.71187" lon="6.05514">
        <ele>279.39999389648</ele>
        <time>2012-09-05T07:51:46.000Z</time>
      </trkpt>
      <trkpt lat="47.71189" lon="6.05515">
        <ele>279</ele>
        <time>2012-09-05T07:51:47.000Z</time>
      </trkpt>
      <trkpt lat="47.71192" lon="6.05516">
        <ele>278.60000610352</ele>
        <time>2012-09-05T07:51:48.000Z</time>
      </trkpt>
      <trkpt lat="47.71204" lon="6.05521">
        <ele>278.20001220703</ele>
        <time>2012-09-05T07:51:52.000Z</time>
      </trkpt>
      <trkpt lat="47.71208" lon="6.05523">
        <ele>277.79998779297</ele>
        <time>2012-09-05T07:51:53.000Z</time>
      </trkpt>
      <trkpt lat="47.71211" lon="6.05524">
        <ele>277.39999389648</ele>
        <time>2012-09-05T07:51:54.000Z</time>
      </trkpt>
      <trkpt lat="47.71214" lon="6.05526">
        <ele>277</ele>
        <time>2012-09-05T07:51:55.000Z</time>
      </trkpt>
      <trkpt lat="47.71217" lon="6.05528">
        <ele>276.60000610352</ele>
        <time>2012-09-05T07:51:56.000Z</time>
      </trkpt>
      <trkpt lat="47.71221" lon="6.0553">
        <ele>276</ele>
        <time>2012-09-05T07:51:57.000Z</time>
      </trkpt>
      <trkpt lat="47.71224" lon="6.05532">
        <ele>275.60000610352</ele>
        <time>2012-09-05T07:51:58.000Z</time>
      </trkpt>
      <trkpt lat="47.71228" lon="6.05534">
        <ele>275.20001220703</ele>
        <time>2012-09-05T07:51:59.000Z</time>
      </trkpt>
      <trkpt lat="47.71233" lon="6.05538">
        <ele>274.60000610352</ele>
        <time>2012-09-05T07:52:00.000Z</time>
      </trkpt>
      <trkpt lat="47.71238" lon="6.05542">
        <ele>274</ele>
        <time>2012-09-05T07:52:01.000Z</time>
      </trkpt>
      <trkpt lat="47.71243" lon="6.05545">
        <ele>273.39999389648</ele>
        <time>2012-09-05T07:52:02.000Z</time>
      </trkpt>
      <trkpt lat="47.71247" lon="6.05547">
        <ele>272</ele>
        <time>2012-09-05T07:52:03.000Z</time>
      </trkpt>
      <trkpt lat="47.71251" lon="6.05549">
        <ele>271.20001220703</ele>
        <time>2012-09-05T07:52:04.000Z</time>
      </trkpt>
      <trkpt lat="47.71254" lon="6.0555">
        <ele>270.60000610352</ele>
        <time>2012-09-05T07:52:05.000Z</time>
      </trkpt>
      <trkpt lat="47.71259" lon="6.05551">
        <ele>270</ele>
        <time>2012-09-05T07:52:06.000Z</time>
      </trkpt>
      <trkpt lat="47.71263" lon="6.05552">
        <ele>269.39999389648</ele>
        <time>2012-09-05T07:52:07.000Z</time>
      </trkpt>
      <trkpt lat="47.71267" lon="6.05553">
        <ele>269</ele>
        <time>2012-09-05T07:52:08.000Z</time>
      </trkpt>
      <trkpt lat="47.71271" lon="6.05554">
        <ele>268.60000610352</ele>
        <time>2012-09-05T07:52:09.000Z</time>
      </trkpt>
      <trkpt lat="47.71275" lon="6.05555">
        <ele>268.20001220703</ele>
        <time>2012-09-05T07:52:10.000Z</time>
      </trkpt>
      <trkpt lat="47.71278" lon="6.05557">
        <ele>267.79998779297</ele>
        <time>2012-09-05T07:52:11.000Z</time>
      </trkpt>
      <trkpt lat="47.71295" lon="6.05568">
        <ele>267.79998779297</ele>
        <time>2012-09-05T07:52:15.000Z</time>
      </trkpt>
      <trkpt lat="47.71311" lon="6.05578">
        <ele>267.39999389648</ele>
        <time>2012-09-05T07:52:19.000Z</time>
      </trkpt>
      <trkpt lat="47.71315" lon="6.0558">
        <ele>266.79998779297</ele>
        <time>2012-09-05T07:52:20.000Z</time>
      </trkpt>
      <trkpt lat="47.71318" lon="6.05583">
        <ele>266.39999389648</ele>
        <time>2012-09-05T07:52:21.000Z</time>
      </trkpt>
      <trkpt lat="47.71322" lon="6.05585">
        <ele>266</ele>
        <time>2012-09-05T07:52:22.000Z</time>
      </trkpt>
      <trkpt lat="47.71329" lon="6.05587">
        <ele>265.60000610352</ele>
        <time>2012-09-05T07:52:23.000Z</time>
      </trkpt>
      <trkpt lat="47.71344" lon="6.05591">
        <ele>265.60000610352</ele>
        <time>2012-09-05T07:52:27.000Z</time>
      </trkpt>
      <trkpt lat="47.71358" lon="6.05601">
        <ele>265.60000610352</ele>
        <time>2012-09-05T07:52:33.000Z</time>
      </trkpt>
      <trkpt lat="47.71373" lon="6.05614">
        <ele>265.60000610352</ele>
        <time>2012-09-05T07:52:39.000Z</time>
      </trkpt>
      <trkpt lat="47.71392" lon="6.05627">
        <ele>265.60000610352</ele>
        <time>2012-09-05T07:52:46.000Z</time>
      </trkpt>
      <trkpt lat="47.71394" lon="6.05629">
        <ele>265.60000610352</ele>
        <time>2012-09-05T07:52:47.000Z</time>
      </trkpt>
      <trkpt lat="47.71403" lon="6.05636">
        <ele>265.60000610352</ele>
        <time>2012-09-05T07:52:51.000Z</time>
      </trkpt>
      <trkpt lat="47.71405" lon="6.05638">
        <ele>265.20001220703</ele>
        <time>2012-09-05T07:52:52.000Z</time>
      </trkpt>
      <trkpt lat="47.71407" lon="6.0564">
        <ele>264.79998779297</ele>
        <time>2012-09-05T07:52:53.000Z</time>
      </trkpt>
      <trkpt lat="47.71409" lon="6.05642">
        <ele>264</ele>
        <time>2012-09-05T07:52:54.000Z</time>
      </trkpt>
      <trkpt lat="47.71411" lon="6.05644">
        <ele>263.60000610352</ele>
        <time>2012-09-05T07:52:55.000Z</time>
      </trkpt>
      <trkpt lat="47.71412" lon="6.05646">
        <ele>263.60000610352</ele>
        <time>2012-09-05T07:52:56.000Z</time>
      </trkpt>
      <trkpt lat="47.71427" lon="6.05658">
        <ele>263.60000610352</ele>
        <time>2012-09-05T07:53:02.000Z</time>
      </trkpt>
      <trkpt lat="47.71445" lon="6.05675">
        <ele>263.60000610352</ele>
        <time>2012-09-05T07:53:08.000Z</time>
      </trkpt>
      <trkpt lat="47.71461" lon="6.05686">
        <ele>263.60000610352</ele>
        <time>2012-09-05T07:53:14.000Z</time>
      </trkpt>
      <trkpt lat="47.71478" lon="6.05702">
        <ele>263.60000610352</ele>
        <time>2012-09-05T07:53:21.000Z</time>
      </trkpt>
      <trkpt lat="47.71494" lon="6.05713">
        <ele>263.60000610352</ele>
        <time>2012-09-05T07:53:27.000Z</time>
      </trkpt>
      <trkpt lat="47.71497" lon="6.05715">
        <ele>263.20001220703</ele>
        <time>2012-09-05T07:53:28.000Z</time>
      </trkpt>
      <trkpt lat="47.71499" lon="6.05718">
        <ele>262.60000610352</ele>
        <time>2012-09-05T07:53:29.000Z</time>
      </trkpt>
      <trkpt lat="47.71502" lon="6.05719">
        <ele>262.20001220703</ele>
        <time>2012-09-05T07:53:30.000Z</time>
      </trkpt>
      <trkpt lat="47.71504" lon="6.05721">
        <ele>261.79998779297</ele>
        <time>2012-09-05T07:53:31.000Z</time>
      </trkpt>
      <trkpt lat="47.71507" lon="6.05722">
        <ele>261.39999389648</ele>
        <time>2012-09-05T07:53:32.000Z</time>
      </trkpt>
      <trkpt lat="47.71511" lon="6.05725">
        <ele>261.39999389648</ele>
        <time>2012-09-05T07:53:34.000Z</time>
      </trkpt>
      <trkpt lat="47.71527" lon="6.05728">
        <ele>261.39999389648</ele>
        <time>2012-09-05T07:53:40.000Z</time>
      </trkpt>
      <trkpt lat="47.71547" lon="6.0573">
        <ele>261.39999389648</ele>
        <time>2012-09-05T07:53:48.000Z</time>
      </trkpt>
      <trkpt lat="47.71565" lon="6.0573">
        <ele>261.39999389648</ele>
        <time>2012-09-05T07:53:56.000Z</time>
      </trkpt>
      <trkpt lat="47.71579" lon="6.05734">
        <ele>261.39999389648</ele>
        <time>2012-09-05T07:54:02.000Z</time>
      </trkpt>
      <trkpt lat="47.7159" lon="6.05738">
        <ele>261.39999389648</ele>
        <time>2012-09-05T07:54:07.000Z</time>
      </trkpt>
      <trkpt lat="47.71596" lon="6.05736">
        <ele>261.39999389648</ele>
        <time>2012-09-05T07:54:12.000Z</time>
      </trkpt>
      <trkpt lat="47.716" lon="6.05735">
        <ele>261.39999389648</ele>
        <time>2012-09-05T07:54:15.000Z</time>
      </trkpt>
      <trkpt lat="47.71603" lon="6.05735">
        <ele>261.39999389648</ele>
        <time>2012-09-05T07:54:18.000Z</time>
      </trkpt>
      <trkpt lat="47.71612" lon="6.05737">
        <ele>261.39999389648</ele>
        <time>2012-09-05T07:54:25.000Z</time>
      </trkpt>
      <trkpt lat="47.7162" lon="6.05739">
        <ele>261.39999389648</ele>
        <time>2012-09-05T07:54:31.000Z</time>
      </trkpt>
      <trkpt lat="47.7162" lon="6.05738">
        <ele>261.39999389648</ele>
        <time>2012-09-05T07:54:33.000Z</time>
      </trkpt>
      <trkpt lat="47.7163" lon="6.05741">
        <ele>261.39999389648</ele>
        <time>2012-09-05T07:55:24.000Z</time>
      </trkpt>
      <trkpt lat="47.71634" lon="6.05741">
        <ele>261.39999389648</ele>
        <time>2012-09-05T07:55:26.000Z</time>
      </trkpt>
      <trkpt lat="47.71647" lon="6.05745">
        <ele>261.39999389648</ele>
        <time>2012-09-05T07:55:33.000Z</time>
      </trkpt>
      <trkpt lat="47.7165" lon="6.05745">
        <ele>261.39999389648</ele>
        <time>2012-09-05T07:55:35.000Z</time>
      </trkpt>
      <trkpt lat="47.71655" lon="6.05746">
        <ele>261.39999389648</ele>
        <time>2012-09-05T07:55:38.000Z</time>
      </trkpt>
      <trkpt lat="47.71672" lon="6.05747">
        <ele>261.39999389648</ele>
        <time>2012-09-05T07:55:45.000Z</time>
      </trkpt>
      <trkpt lat="47.71685" lon="6.05751">
        <ele>261.39999389648</ele>
        <time>2012-09-05T07:55:51.000Z</time>
      </trkpt>
      <trkpt lat="47.71699" lon="6.05759">
        <ele>261.39999389648</ele>
        <time>2012-09-05T07:55:58.000Z</time>
      </trkpt>
      <trkpt lat="47.71716" lon="6.05765">
        <ele>261.39999389648</ele>
        <time>2012-09-05T07:56:05.000Z</time>
      </trkpt>
      <trkpt lat="47.71717" lon="6.05765">
        <ele>261.39999389648</ele>
        <time>2012-09-05T07:56:06.000Z</time>
      </trkpt>
      <trkpt lat="47.71721" lon="6.05765">
        <ele>261.39999389648</ele>
        <time>2012-09-05T07:56:11.000Z</time>
      </trkpt>
      <trkpt lat="47.71727" lon="6.05769">
        <ele>261.39999389648</ele>
        <time>2012-09-05T07:56:17.000Z</time>
      </trkpt>
      <trkpt lat="47.71729" lon="6.05774">
        <ele>261.39999389648</ele>
        <time>2012-09-05T07:56:22.000Z</time>
      </trkpt>
      <trkpt lat="47.71757" lon="6.05784">
        <ele>261.39999389648</ele>
        <time>2012-09-05T07:56:32.000Z</time>
      </trkpt>
      <trkpt lat="47.7177" lon="6.05789">
        <ele>261.39999389648</ele>
        <time>2012-09-05T07:56:39.000Z</time>
      </trkpt>
      <trkpt lat="47.71783" lon="6.05796">
        <ele>261.39999389648</ele>
        <time>2012-09-05T07:56:45.000Z</time>
      </trkpt>
      <trkpt lat="47.71799" lon="6.05807">
        <ele>261.39999389648</ele>
        <time>2012-09-05T07:56:53.000Z</time>
      </trkpt>
      <trkpt lat="47.71813" lon="6.0582">
        <ele>261.39999389648</ele>
        <time>2012-09-05T07:56:59.000Z</time>
      </trkpt>
      <trkpt lat="47.7183" lon="6.05831">
        <ele>261.39999389648</ele>
        <time>2012-09-05T07:57:06.000Z</time>
      </trkpt>
      <trkpt lat="47.71841" lon="6.05847">
        <ele>261.39999389648</ele>
        <time>2012-09-05T07:57:13.000Z</time>
      </trkpt>
      <trkpt lat="47.71855" lon="6.05865">
        <ele>261.39999389648</ele>
        <time>2012-09-05T07:57:20.000Z</time>
      </trkpt>
      <trkpt lat="47.71864" lon="6.05878">
        <ele>261.39999389648</ele>
        <time>2012-09-05T07:57:27.000Z</time>
      </trkpt>
      <trkpt lat="47.71872" lon="6.05883">
        <ele>261.39999389648</ele>
        <time>2012-09-05T07:57:33.000Z</time>
      </trkpt>
      <trkpt lat="47.71883" lon="6.0589">
        <ele>261.39999389648</ele>
        <time>2012-09-05T07:57:40.000Z</time>
      </trkpt>
      <trkpt lat="47.71885" lon="6.05891">
        <ele>261.39999389648</ele>
        <time>2012-09-05T07:57:42.000Z</time>
      </trkpt>
      <trkpt lat="47.71891" lon="6.05897">
        <ele>261.39999389648</ele>
        <time>2012-09-05T07:57:47.000Z</time>
      </trkpt>
      <trkpt lat="47.71901" lon="6.05905">
        <ele>261.39999389648</ele>
        <time>2012-09-05T07:57:55.000Z</time>
      </trkpt>
      <trkpt lat="47.71903" lon="6.05906">
        <ele>261.79998779297</ele>
        <time>2012-09-05T07:57:56.000Z</time>
      </trkpt>
      <trkpt lat="47.71904" lon="6.05907">
        <ele>262.20001220703</ele>
        <time>2012-09-05T07:57:57.000Z</time>
      </trkpt>
      <trkpt lat="47.71905" lon="6.05908">
        <ele>262.60000610352</ele>
        <time>2012-09-05T07:57:58.000Z</time>
      </trkpt>
      <trkpt lat="47.71907" lon="6.0591">
        <ele>263</ele>
        <time>2012-09-05T07:57:59.000Z</time>
      </trkpt>
      <trkpt lat="47.71908" lon="6.05911">
        <ele>263.39999389648</ele>
        <time>2012-09-05T07:58:00.000Z</time>
      </trkpt>
      <trkpt lat="47.71913" lon="6.05914">
        <ele>263.39999389648</ele>
        <time>2012-09-05T07:58:04.000Z</time>
      </trkpt>
      <trkpt lat="47.71915" lon="6.05915">
        <ele>263.39999389648</ele>
        <time>2012-09-05T07:58:05.000Z</time>
      </trkpt>
      <trkpt lat="47.71922" lon="6.05919">
        <ele>263.39999389648</ele>
        <time>2012-09-05T07:58:11.000Z</time>
      </trkpt>
      <trkpt lat="47.71939" lon="6.05922">
        <ele>263.39999389648</ele>
        <time>2012-09-05T07:58:18.000Z</time>
      </trkpt>
      <trkpt lat="47.71956" lon="6.0593">
        <ele>263.39999389648</ele>
        <time>2012-09-05T07:58:25.000Z</time>
      </trkpt>
      <trkpt lat="47.71972" lon="6.05944">
        <ele>263.39999389648</ele>
        <time>2012-09-05T07:58:31.000Z</time>
      </trkpt>
      <trkpt lat="47.71991" lon="6.05955">
        <ele>263</ele>
        <time>2012-09-05T07:58:36.000Z</time>
      </trkpt>
      <trkpt lat="47.71994" lon="6.05957">
        <ele>262.60000610352</ele>
        <time>2012-09-05T07:58:37.000Z</time>
      </trkpt>
      <trkpt lat="47.71998" lon="6.05959">
        <ele>262.20001220703</ele>
        <time>2012-09-05T07:58:38.000Z</time>
      </trkpt>
      <trkpt lat="47.72003" lon="6.05962">
        <ele>261.20001220703</ele>
        <time>2012-09-05T07:58:39.000Z</time>
      </trkpt>
      <trkpt lat="47.72015" lon="6.05972">
        <ele>260.79998779297</ele>
        <time>2012-09-05T07:58:43.000Z</time>
      </trkpt>
      <trkpt lat="47.72018" lon="6.05974">
        <ele>260.39999389648</ele>
        <time>2012-09-05T07:58:44.000Z</time>
      </trkpt>
      <trkpt lat="47.72021" lon="6.05976">
        <ele>259.79998779297</ele>
        <time>2012-09-05T07:58:45.000Z</time>
      </trkpt>
      <trkpt lat="47.72024" lon="6.05978">
        <ele>259.39999389648</ele>
        <time>2012-09-05T07:58:46.000Z</time>
      </trkpt>
      <trkpt lat="47.72027" lon="6.05981">
        <ele>259</ele>
        <time>2012-09-05T07:58:47.000Z</time>
      </trkpt>
      <trkpt lat="47.72037" lon="6.05989">
        <ele>259</ele>
        <time>2012-09-05T07:58:50.000Z</time>
      </trkpt>
      <trkpt lat="47.72044" lon="6.05995">
        <ele>258.60000610352</ele>
        <time>2012-09-05T07:58:52.000Z</time>
      </trkpt>
      <trkpt lat="47.72047" lon="6.05998">
        <ele>258.20001220703</ele>
        <time>2012-09-05T07:58:53.000Z</time>
      </trkpt>
      <trkpt lat="47.72052" lon="6.06001">
        <ele>257.79998779297</ele>
        <time>2012-09-05T07:58:54.000Z</time>
      </trkpt>
      <trkpt lat="47.72056" lon="6.06004">
        <ele>257.39999389648</ele>
        <time>2012-09-05T07:58:55.000Z</time>
      </trkpt>
      <trkpt lat="47.7206" lon="6.06007">
        <ele>257</ele>
        <time>2012-09-05T07:58:56.000Z</time>
      </trkpt>
      <trkpt lat="47.72086" lon="6.06025">
        <ele>257</ele>
        <time>2012-09-05T07:59:01.000Z</time>
      </trkpt>
      <trkpt lat="47.72091" lon="6.06029">
        <ele>256.60000610352</ele>
        <time>2012-09-05T07:59:02.000Z</time>
      </trkpt>
      <trkpt lat="47.72094" lon="6.06032">
        <ele>256</ele>
        <time>2012-09-05T07:59:03.000Z</time>
      </trkpt>
      <trkpt lat="47.72096" lon="6.06034">
        <ele>255.19999694824</ele>
        <time>2012-09-05T07:59:04.000Z</time>
      </trkpt>
      <trkpt lat="47.72099" lon="6.06037">
        <ele>254.80000305176</ele>
        <time>2012-09-05T07:59:05.000Z</time>
      </trkpt>
      <trkpt lat="47.72104" lon="6.06041">
        <ele>254.80000305176</ele>
        <time>2012-09-05T07:59:07.000Z</time>
      </trkpt>
      <trkpt lat="47.72118" lon="6.0605">
        <ele>254.80000305176</ele>
        <time>2012-09-05T07:59:12.000Z</time>
      </trkpt>
      <trkpt lat="47.72125" lon="6.06054">
        <ele>254.39999389648</ele>
        <time>2012-09-05T07:59:14.000Z</time>
      </trkpt>
      <trkpt lat="47.72128" lon="6.06056">
        <ele>254</ele>
        <time>2012-09-05T07:59:15.000Z</time>
      </trkpt>
      <trkpt lat="47.72129" lon="6.06059">
        <ele>253.39999389648</ele>
        <time>2012-09-05T07:59:16.000Z</time>
      </trkpt>
      <trkpt lat="47.72132" lon="6.06061">
        <ele>253</ele>
        <time>2012-09-05T07:59:17.000Z</time>
      </trkpt>
      <trkpt lat="47.72134" lon="6.06063">
        <ele>252.60000610352</ele>
        <time>2012-09-05T07:59:18.000Z</time>
      </trkpt>
      <trkpt lat="47.72144" lon="6.06077">
        <ele>252.60000610352</ele>
        <time>2012-09-05T07:59:24.000Z</time>
      </trkpt>
      <trkpt lat="47.72145" lon="6.06081">
        <ele>252.60000610352</ele>
        <time>2012-09-05T07:59:25.000Z</time>
      </trkpt>
      <trkpt lat="47.72149" lon="6.06096">
        <ele>252.60000610352</ele>
        <time>2012-09-05T07:59:29.000Z</time>
      </trkpt>
      <trkpt lat="47.72152" lon="6.06101">
        <ele>252.60000610352</ele>
        <time>2012-09-05T07:59:31.000Z</time>
      </trkpt>
      <trkpt lat="47.72159" lon="6.06107">
        <ele>252.60000610352</ele>
        <time>2012-09-05T07:59:34.000Z</time>
      </trkpt>
      <trkpt lat="47.72176" lon="6.06124">
        <ele>252.60000610352</ele>
        <time>2012-09-05T07:59:43.000Z</time>
      </trkpt>
      <trkpt lat="47.7219" lon="6.06136">
        <ele>252.60000610352</ele>
        <time>2012-09-05T07:59:52.000Z</time>
      </trkpt>
      <trkpt lat="47.72198" lon="6.06139">
        <ele>252.60000610352</ele>
        <time>2012-09-05T07:59:59.000Z</time>
      </trkpt>
      <trkpt lat="47.72205" lon="6.06143">
        <ele>252.60000610352</ele>
        <time>2012-09-05T08:00:06.000Z</time>
      </trkpt>
      <trkpt lat="47.72209" lon="6.06148">
        <ele>252.60000610352</ele>
        <time>2012-09-05T08:00:10.000Z</time>
      </trkpt>
      <trkpt lat="47.72213" lon="6.06151">
        <ele>252.60000610352</ele>
        <time>2012-09-05T08:00:12.000Z</time>
      </trkpt>
      <trkpt lat="47.72222" lon="6.06153">
        <ele>252.60000610352</ele>
        <time>2012-09-05T08:00:17.000Z</time>
      </trkpt>
      <trkpt lat="47.72223" lon="6.06153">
        <ele>252.60000610352</ele>
        <time>2012-09-05T08:00:18.000Z</time>
      </trkpt>
      <trkpt lat="47.72227" lon="6.06154">
        <ele>253</ele>
        <time>2012-09-05T08:00:21.000Z</time>
      </trkpt>
      <trkpt lat="47.72228" lon="6.06154">
        <ele>253.39999389648</ele>
        <time>2012-09-05T08:00:22.000Z</time>
      </trkpt>
      <trkpt lat="47.72229" lon="6.06153">
        <ele>253.80000305176</ele>
        <time>2012-09-05T08:00:23.000Z</time>
      </trkpt>
      <trkpt lat="47.72231" lon="6.06154">
        <ele>254.19999694824</ele>
        <time>2012-09-05T08:00:24.000Z</time>
      </trkpt>
      <trkpt lat="47.72233" lon="6.06154">
        <ele>254.60000610352</ele>
        <time>2012-09-05T08:00:25.000Z</time>
      </trkpt>
      <trkpt lat="47.72235" lon="6.06154">
        <ele>254.60000610352</ele>
        <time>2012-09-05T08:00:26.000Z</time>
      </trkpt>
      <trkpt lat="47.7225" lon="6.06153">
        <ele>254.60000610352</ele>
        <time>2012-09-05T08:00:34.000Z</time>
      </trkpt>
      <trkpt lat="47.72263" lon="6.0615">
        <ele>254.60000610352</ele>
        <time>2012-09-05T08:00:41.000Z</time>
      </trkpt>
      <trkpt lat="47.72265" lon="6.06149">
        <ele>255</ele>
        <time>2012-09-05T08:00:42.000Z</time>
      </trkpt>
      <trkpt lat="47.72266" lon="6.06148">
        <ele>255.39999389648</ele>
        <time>2012-09-05T08:00:43.000Z</time>
      </trkpt>
      <trkpt lat="47.72268" lon="6.06147">
        <ele>255.80000305176</ele>
        <time>2012-09-05T08:00:44.000Z</time>
      </trkpt>
      <trkpt lat="47.72269" lon="6.06147">
        <ele>256.20001220703</ele>
        <time>2012-09-05T08:00:45.000Z</time>
      </trkpt>
      <trkpt lat="47.72271" lon="6.06145">
        <ele>256.60000610352</ele>
        <time>2012-09-05T08:00:46.000Z</time>
      </trkpt>
      <trkpt lat="47.72274" lon="6.06144">
        <ele>256.60000610352</ele>
        <time>2012-09-05T08:00:47.000Z</time>
      </trkpt>
      <trkpt lat="47.72294" lon="6.06141">
        <ele>256.60000610352</ele>
        <time>2012-09-05T08:00:55.000Z</time>
      </trkpt>
      <trkpt lat="47.72313" lon="6.06145">
        <ele>256.60000610352</ele>
        <time>2012-09-05T08:01:03.000Z</time>
      </trkpt>
      <trkpt lat="47.72331" lon="6.06146">
        <ele>256.60000610352</ele>
        <time>2012-09-05T08:01:11.000Z</time>
      </trkpt>
      <trkpt lat="47.72354" lon="6.06151">
        <ele>256.60000610352</ele>
        <time>2012-09-05T08:01:20.000Z</time>
      </trkpt>
      <trkpt lat="47.72378" lon="6.06154">
        <ele>256.60000610352</ele>
        <time>2012-09-05T08:01:29.000Z</time>
      </trkpt>
      <trkpt lat="47.72401" lon="6.06163">
        <ele>256.60000610352</ele>
        <time>2012-09-05T08:01:37.000Z</time>
      </trkpt>
      <trkpt lat="47.72424" lon="6.06179">
        <ele>257</ele>
        <time>2012-09-05T08:01:47.000Z</time>
      </trkpt>
      <trkpt lat="47.72426" lon="6.06181">
        <ele>257.39999389648</ele>
        <time>2012-09-05T08:01:48.000Z</time>
      </trkpt>
      <trkpt lat="47.72428" lon="6.06183">
        <ele>257.79998779297</ele>
        <time>2012-09-05T08:01:49.000Z</time>
      </trkpt>
      <trkpt lat="47.72431" lon="6.06184">
        <ele>258.20001220703</ele>
        <time>2012-09-05T08:01:50.000Z</time>
      </trkpt>
      <trkpt lat="47.72433" lon="6.06186">
        <ele>258.60000610352</ele>
        <time>2012-09-05T08:01:51.000Z</time>
      </trkpt>
      <trkpt lat="47.72448" lon="6.06196">
        <ele>258.60000610352</ele>
        <time>2012-09-05T08:01:57.000Z</time>
      </trkpt>
      <trkpt lat="47.7247" lon="6.06211">
        <ele>258.60000610352</ele>
        <time>2012-09-05T08:02:05.000Z</time>
      </trkpt>
      <trkpt lat="47.72495" lon="6.06226">
        <ele>258.60000610352</ele>
        <time>2012-09-05T08:02:13.000Z</time>
      </trkpt>
      <trkpt lat="47.72522" lon="6.06243">
        <ele>258.60000610352</ele>
        <time>2012-09-05T08:02:22.000Z</time>
      </trkpt>
      <trkpt lat="47.72539" lon="6.06254">
        <ele>259.20001220703</ele>
        <time>2012-09-05T08:02:28.000Z</time>
      </trkpt>
      <trkpt lat="47.72542" lon="6.06256">
        <ele>259.79998779297</ele>
        <time>2012-09-05T08:02:29.000Z</time>
      </trkpt>
      <trkpt lat="47.72545" lon="6.06258">
        <ele>260.20001220703</ele>
        <time>2012-09-05T08:02:30.000Z</time>
      </trkpt>
      <trkpt lat="47.72547" lon="6.0626">
        <ele>260.79998779297</ele>
        <time>2012-09-05T08:02:31.000Z</time>
      </trkpt>
      <trkpt lat="47.7255" lon="6.06263">
        <ele>261.20001220703</ele>
        <time>2012-09-05T08:02:32.000Z</time>
      </trkpt>
      <trkpt lat="47.72568" lon="6.06277">
        <ele>261.20001220703</ele>
        <time>2012-09-05T08:02:39.000Z</time>
      </trkpt>
      <trkpt lat="47.72591" lon="6.06299">
        <ele>261.20001220703</ele>
        <time>2012-09-05T08:02:47.000Z</time>
      </trkpt>
      <trkpt lat="47.72618" lon="6.06325">
        <ele>261.20001220703</ele>
        <time>2012-09-05T08:02:54.000Z</time>
      </trkpt>
      <trkpt lat="47.72623" lon="6.0633">
        <ele>260.79998779297</ele>
        <time>2012-09-05T08:02:55.000Z</time>
      </trkpt>
      <trkpt lat="47.72627" lon="6.06335">
        <ele>260.20001220703</ele>
        <time>2012-09-05T08:02:56.000Z</time>
      </trkpt>
      <trkpt lat="47.72632" lon="6.0634">
        <ele>259.79998779297</ele>
        <time>2012-09-05T08:02:57.000Z</time>
      </trkpt>
      <trkpt lat="47.72636" lon="6.06346">
        <ele>259.39999389648</ele>
        <time>2012-09-05T08:02:58.000Z</time>
      </trkpt>
      <trkpt lat="47.72641" lon="6.06351">
        <ele>258.79998779297</ele>
        <time>2012-09-05T08:02:59.000Z</time>
      </trkpt>
      <trkpt lat="47.72645" lon="6.06357">
        <ele>258.39999389648</ele>
        <time>2012-09-05T08:03:00.000Z</time>
      </trkpt>
      <trkpt lat="47.7265" lon="6.06362">
        <ele>258</ele>
        <time>2012-09-05T08:03:01.000Z</time>
      </trkpt>
      <trkpt lat="47.72655" lon="6.06366">
        <ele>257.60000610352</ele>
        <time>2012-09-05T08:03:02.000Z</time>
      </trkpt>
      <trkpt lat="47.7266" lon="6.0637">
        <ele>257.20001220703</ele>
        <time>2012-09-05T08:03:03.000Z</time>
      </trkpt>
      <trkpt lat="47.72665" lon="6.06373">
        <ele>256.79998779297</ele>
        <time>2012-09-05T08:03:04.000Z</time>
      </trkpt>
      <trkpt lat="47.7267" lon="6.06376">
        <ele>256.39999389648</ele>
        <time>2012-09-05T08:03:05.000Z</time>
      </trkpt>
      <trkpt lat="47.72675" lon="6.06379">
        <ele>256</ele>
        <time>2012-09-05T08:03:06.000Z</time>
      </trkpt>
      <trkpt lat="47.7268" lon="6.06382">
        <ele>255.60000610352</ele>
        <time>2012-09-05T08:03:07.000Z</time>
      </trkpt>
      <trkpt lat="47.72686" lon="6.06385">
        <ele>255.19999694824</ele>
        <time>2012-09-05T08:03:08.000Z</time>
      </trkpt>
      <trkpt lat="47.7269" lon="6.06388">
        <ele>254.80000305176</ele>
        <time>2012-09-05T08:03:09.000Z</time>
      </trkpt>
      <trkpt lat="47.72699" lon="6.06393">
        <ele>253.80000305176</ele>
        <time>2012-09-05T08:03:11.000Z</time>
      </trkpt>
      <trkpt lat="47.72703" lon="6.06395">
        <ele>253.39999389648</ele>
        <time>2012-09-05T08:03:12.000Z</time>
      </trkpt>
      <trkpt lat="47.72707" lon="6.06397">
        <ele>253</ele>
        <time>2012-09-05T08:03:13.000Z</time>
      </trkpt>
      <trkpt lat="47.72711" lon="6.06398">
        <ele>252.60000610352</ele>
        <time>2012-09-05T08:03:14.000Z</time>
      </trkpt>
      <trkpt lat="47.72725" lon="6.06402">
        <ele>252.19999694824</ele>
        <time>2012-09-05T08:03:18.000Z</time>
      </trkpt>
      <trkpt lat="47.72728" lon="6.06402">
        <ele>251.80000305176</ele>
        <time>2012-09-05T08:03:19.000Z</time>
      </trkpt>
      <trkpt lat="47.72731" lon="6.06402">
        <ele>251.39999389648</ele>
        <time>2012-09-05T08:03:20.000Z</time>
      </trkpt>
      <trkpt lat="47.72734" lon="6.06401">
        <ele>251</ele>
        <time>2012-09-05T08:03:21.000Z</time>
      </trkpt>
      <trkpt lat="47.72737" lon="6.06401">
        <ele>250.60000610352</ele>
        <time>2012-09-05T08:03:22.000Z</time>
      </trkpt>
      <trkpt lat="47.72739" lon="6.064">
        <ele>250</ele>
        <time>2012-09-05T08:03:23.000Z</time>
      </trkpt>
      <trkpt lat="47.72742" lon="6.064">
        <ele>249.60000610352</ele>
        <time>2012-09-05T08:03:24.000Z</time>
      </trkpt>
      <trkpt lat="47.72744" lon="6.064">
        <ele>249.19999694824</ele>
        <time>2012-09-05T08:03:25.000Z</time>
      </trkpt>
      <trkpt lat="47.72747" lon="6.06401">
        <ele>248.80000305176</ele>
        <time>2012-09-05T08:03:26.000Z</time>
      </trkpt>
      <trkpt lat="47.7275" lon="6.06403">
        <ele>248.19999694824</ele>
        <time>2012-09-05T08:03:27.000Z</time>
      </trkpt>
      <trkpt lat="47.72757" lon="6.06404">
        <ele>247.80000305176</ele>
        <time>2012-09-05T08:03:29.000Z</time>
      </trkpt>
      <trkpt lat="47.7276" lon="6.06404">
        <ele>247.19999694824</ele>
        <time>2012-09-05T08:03:30.000Z</time>
      </trkpt>
      <trkpt lat="47.72764" lon="6.06404">
        <ele>246.60000610352</ele>
        <time>2012-09-05T08:03:31.000Z</time>
      </trkpt>
      <trkpt lat="47.72767" lon="6.06404">
        <ele>246</ele>
        <time>2012-09-05T08:03:32.000Z</time>
      </trkpt>
      <trkpt lat="47.72771" lon="6.06402">
        <ele>245.60000610352</ele>
        <time>2012-09-05T08:03:33.000Z</time>
      </trkpt>
      <trkpt lat="47.7278" lon="6.06397">
        <ele>244.60000610352</ele>
        <time>2012-09-05T08:03:35.000Z</time>
      </trkpt>
      <trkpt lat="47.72785" lon="6.06393">
        <ele>244.19999694824</ele>
        <time>2012-09-05T08:03:36.000Z</time>
      </trkpt>
      <trkpt lat="47.7279" lon="6.0639">
        <ele>243.80000305176</ele>
        <time>2012-09-05T08:03:37.000Z</time>
      </trkpt>
      <trkpt lat="47.72795" lon="6.06386">
        <ele>243.19999694824</ele>
        <time>2012-09-05T08:03:38.000Z</time>
      </trkpt>
      <trkpt lat="47.72809" lon="6.06375">
        <ele>243.19999694824</ele>
        <time>2012-09-05T08:03:41.000Z</time>
      </trkpt>
      <trkpt lat="47.72824" lon="6.06364">
        <ele>243.19999694824</ele>
        <time>2012-09-05T08:03:45.000Z</time>
      </trkpt>
      <trkpt lat="47.72833" lon="6.06354">
        <ele>243.19999694824</ele>
        <time>2012-09-05T08:03:50.000Z</time>
      </trkpt>
      <trkpt lat="47.72837" lon="6.06348">
        <ele>243.19999694824</ele>
        <time>2012-09-05T08:03:53.000Z</time>
      </trkpt>
      <trkpt lat="47.72842" lon="6.06341">
        <ele>243.19999694824</ele>
        <time>2012-09-05T08:03:56.000Z</time>
      </trkpt>
      <trkpt lat="47.72846" lon="6.06337">
        <ele>243.19999694824</ele>
        <time>2012-09-05T08:03:58.000Z</time>
      </trkpt>
      <trkpt lat="47.72848" lon="6.06333">
        <ele>243.60000610352</ele>
        <time>2012-09-05T08:04:00.000Z</time>
      </trkpt>
      <trkpt lat="47.72849" lon="6.0633">
        <ele>244.19999694824</ele>
        <time>2012-09-05T08:04:01.000Z</time>
      </trkpt>
      <trkpt lat="47.72849" lon="6.06329">
        <ele>244.60000610352</ele>
        <time>2012-09-05T08:04:02.000Z</time>
      </trkpt>
      <trkpt lat="47.7285" lon="6.06327">
        <ele>245</ele>
        <time>2012-09-05T08:04:03.000Z</time>
      </trkpt>
      <trkpt lat="47.72851" lon="6.06326">
        <ele>245.39999389648</ele>
        <time>2012-09-05T08:04:04.000Z</time>
      </trkpt>
      <trkpt lat="47.72858" lon="6.06314">
        <ele>245.39999389648</ele>
        <time>2012-09-05T08:04:10.000Z</time>
      </trkpt>
      <trkpt lat="47.72864" lon="6.06303">
        <ele>245.39999389648</ele>
        <time>2012-09-05T08:04:16.000Z</time>
      </trkpt>
      <trkpt lat="47.72869" lon="6.06293">
        <ele>245.80000305176</ele>
        <time>2012-09-05T08:04:21.000Z</time>
      </trkpt>
      <trkpt lat="47.7287" lon="6.06291">
        <ele>246.19999694824</ele>
        <time>2012-09-05T08:04:22.000Z</time>
      </trkpt>
      <trkpt lat="47.72871" lon="6.06288">
        <ele>246.60000610352</ele>
        <time>2012-09-05T08:04:23.000Z</time>
      </trkpt>
      <trkpt lat="47.72871" lon="6.06286">
        <ele>247</ele>
        <time>2012-09-05T08:04:24.000Z</time>
      </trkpt>
      <trkpt lat="47.72872" lon="6.06284">
        <ele>247.39999389648</ele>
        <time>2012-09-05T08:04:25.000Z</time>
      </trkpt>
      <trkpt lat="47.72877" lon="6.06273">
        <ele>247.39999389648</ele>
        <time>2012-09-05T08:04:29.000Z</time>
      </trkpt>
      <trkpt lat="47.72886" lon="6.06255">
        <ele>247.39999389648</ele>
        <time>2012-09-05T08:04:37.000Z</time>
      </trkpt>
      <trkpt lat="47.72899" lon="6.06232">
        <ele>247.39999389648</ele>
        <time>2012-09-05T08:04:46.000Z</time>
      </trkpt>
      <trkpt lat="47.72903" lon="6.06226">
        <ele>247.39999389648</ele>
        <time>2012-09-05T08:04:49.000Z</time>
      </trkpt>
      <trkpt lat="47.72907" lon="6.0622">
        <ele>247.39999389648</ele>
        <time>2012-09-05T08:04:52.000Z</time>
      </trkpt>
      <trkpt lat="47.72909" lon="6.06215">
        <ele>247.39999389648</ele>
        <time>2012-09-05T08:04:54.000Z</time>
      </trkpt>
      <trkpt lat="47.72914" lon="6.06205">
        <ele>247.39999389648</ele>
        <time>2012-09-05T08:04:58.000Z</time>
      </trkpt>
      <trkpt lat="47.72923" lon="6.06189">
        <ele>247.39999389648</ele>
        <time>2012-09-05T08:05:05.000Z</time>
      </trkpt>
      <trkpt lat="47.72926" lon="6.06184">
        <ele>247.39999389648</ele>
        <time>2012-09-05T08:05:08.000Z</time>
      </trkpt>
      <trkpt lat="47.7293" lon="6.06182">
        <ele>247.39999389648</ele>
        <time>2012-09-05T08:05:10.000Z</time>
      </trkpt>
      <trkpt lat="47.72937" lon="6.06175">
        <ele>247.39999389648</ele>
        <time>2012-09-05T08:05:16.000Z</time>
      </trkpt>
      <trkpt lat="47.72935" lon="6.06177">
        <ele>249.60000610352</ele>
        <time>2012-09-05T08:05:30.000Z</time>
      </trkpt>
      <trkpt lat="47.72931" lon="6.0618">
        <ele>249.60000610352</ele>
        <time>2012-09-05T08:05:33.000Z</time>
      </trkpt>
      <trkpt lat="47.7293" lon="6.06181">
        <ele>249.60000610352</ele>
        <time>2012-09-05T08:05:34.000Z</time>
      </trkpt>
      <trkpt lat="47.72928" lon="6.06181">
        <ele>249.60000610352</ele>
        <time>2012-09-05T08:05:37.000Z</time>
      </trkpt>
      <trkpt lat="47.72927" lon="6.06179">
        <ele>249.60000610352</ele>
        <time>2012-09-05T08:05:47.000Z</time>
      </trkpt>
      <trkpt lat="47.72924" lon="6.06174">
        <ele>249.60000610352</ele>
        <time>2012-09-05T08:05:51.000Z</time>
      </trkpt>
      <trkpt lat="47.72923" lon="6.0617">
        <ele>249.60000610352</ele>
        <time>2012-09-05T08:05:54.000Z</time>
      </trkpt>
      <trkpt lat="47.72922" lon="6.06169">
        <ele>249.19999694824</ele>
        <time>2012-09-05T08:05:55.000Z</time>
      </trkpt>
      <trkpt lat="47.72922" lon="6.06167">
        <ele>248.80000305176</ele>
        <time>2012-09-05T08:05:56.000Z</time>
      </trkpt>
      <trkpt lat="47.72922" lon="6.06165">
        <ele>248.39999389648</ele>
        <time>2012-09-05T08:05:57.000Z</time>
      </trkpt>
      <trkpt lat="47.72922" lon="6.06163">
        <ele>248</ele>
        <time>2012-09-05T08:05:58.000Z</time>
      </trkpt>
      <trkpt lat="47.72922" lon="6.06161">
        <ele>247.60000610352</ele>
        <time>2012-09-05T08:05:59.000Z</time>
      </trkpt>
      <trkpt lat="47.72922" lon="6.06156">
        <ele>247.60000610352</ele>
        <time>2012-09-05T08:06:01.000Z</time>
      </trkpt>
      <trkpt lat="47.72924" lon="6.06142">
        <ele>247.19999694824</ele>
        <time>2012-09-05T08:06:06.000Z</time>
      </trkpt>
      <trkpt lat="47.72924" lon="6.06139">
        <ele>246.80000305176</ele>
        <time>2012-09-05T08:06:07.000Z</time>
      </trkpt>
      <trkpt lat="47.72924" lon="6.06136">
        <ele>246.39999389648</ele>
        <time>2012-09-05T08:06:08.000Z</time>
      </trkpt>
      <trkpt lat="47.72924" lon="6.06135">
        <ele>246</ele>
        <time>2012-09-05T08:06:09.000Z</time>
      </trkpt>
      <trkpt lat="47.72924" lon="6.06133">
        <ele>245.60000610352</ele>
        <time>2012-09-05T08:06:10.000Z</time>
      </trkpt>
      <trkpt lat="47.72923" lon="6.06128">
        <ele>245.60000610352</ele>
        <time>2012-09-05T08:06:13.000Z</time>
      </trkpt>
      <trkpt lat="47.72919" lon="6.06087">
        <ele>237.19999694824</ele>
        <time>2012-09-05T08:07:58.000Z</time>
      </trkpt>
      <trkpt lat="47.72914" lon="6.06067">
        <ele>237.19999694824</ele>
        <time>2012-09-05T08:08:04.000Z</time>
      </trkpt>
      <trkpt lat="47.72913" lon="6.06051">
        <ele>237.19999694824</ele>
        <time>2012-09-05T08:08:09.000Z</time>
      </trkpt>
      <trkpt lat="47.72914" lon="6.0603">
        <ele>237.19999694824</ele>
        <time>2012-09-05T08:08:16.000Z</time>
      </trkpt>
      <trkpt lat="47.72917" lon="6.06006">
        <ele>237.19999694824</ele>
        <time>2012-09-05T08:08:21.000Z</time>
      </trkpt>
      <trkpt lat="47.7292" lon="6.05989">
        <ele>236.80000305176</ele>
        <time>2012-09-05T08:08:26.000Z</time>
      </trkpt>
      <trkpt lat="47.72921" lon="6.05985">
        <ele>236.39999389648</ele>
        <time>2012-09-05T08:08:27.000Z</time>
      </trkpt>
      <trkpt lat="47.72922" lon="6.05982">
        <ele>236</ele>
        <time>2012-09-05T08:08:28.000Z</time>
      </trkpt>
      <trkpt lat="47.72923" lon="6.05979">
        <ele>235.60000610352</ele>
        <time>2012-09-05T08:08:29.000Z</time>
      </trkpt>
      <trkpt lat="47.72923" lon="6.05974">
        <ele>235</ele>
        <time>2012-09-05T08:08:30.000Z</time>
      </trkpt>
      <trkpt lat="47.72925" lon="6.05959">
        <ele>235</ele>
        <time>2012-09-05T08:08:33.000Z</time>
      </trkpt>
      <trkpt lat="47.72924" lon="6.05936">
        <ele>235</ele>
        <time>2012-09-05T08:08:38.000Z</time>
      </trkpt>
      <trkpt lat="47.72923" lon="6.05926">
        <ele>234.60000610352</ele>
        <time>2012-09-05T08:08:41.000Z</time>
      </trkpt>
      <trkpt lat="47.72923" lon="6.05922">
        <ele>234.19999694824</ele>
        <time>2012-09-05T08:08:42.000Z</time>
      </trkpt>
      <trkpt lat="47.72923" lon="6.05919">
        <ele>233.80000305176</ele>
        <time>2012-09-05T08:08:43.000Z</time>
      </trkpt>
      <trkpt lat="47.72923" lon="6.05916">
        <ele>233.39999389648</ele>
        <time>2012-09-05T08:08:44.000Z</time>
      </trkpt>
      <trkpt lat="47.72923" lon="6.05912">
        <ele>233</ele>
        <time>2012-09-05T08:08:45.000Z</time>
      </trkpt>
      <trkpt lat="47.72923" lon="6.0591">
        <ele>233</ele>
        <time>2012-09-05T08:08:46.000Z</time>
      </trkpt>
      <trkpt lat="47.72926" lon="6.05885">
        <ele>233</ele>
        <time>2012-09-05T08:08:53.000Z</time>
      </trkpt>
      <trkpt lat="47.72928" lon="6.0588">
        <ele>233</ele>
        <time>2012-09-05T08:08:54.000Z</time>
      </trkpt>
      <trkpt lat="47.72934" lon="6.05852">
        <ele>233</ele>
        <time>2012-09-05T08:09:00.000Z</time>
      </trkpt>
      <trkpt lat="47.72935" lon="6.05821">
        <ele>233</ele>
        <time>2012-09-05T08:09:06.000Z</time>
      </trkpt>
      <trkpt lat="47.72935" lon="6.0581">
        <ele>232.60000610352</ele>
        <time>2012-09-05T08:09:08.000Z</time>
      </trkpt>
      <trkpt lat="47.72934" lon="6.05805">
        <ele>232.19999694824</ele>
        <time>2012-09-05T08:09:09.000Z</time>
      </trkpt>
      <trkpt lat="47.72933" lon="6.05799">
        <ele>231.80000305176</ele>
        <time>2012-09-05T08:09:10.000Z</time>
      </trkpt>
      <trkpt lat="47.72933" lon="6.05794">
        <ele>231.39999389648</ele>
        <time>2012-09-05T08:09:11.000Z</time>
      </trkpt>
      <trkpt lat="47.72933" lon="6.05789">
        <ele>231</ele>
        <time>2012-09-05T08:09:12.000Z</time>
      </trkpt>
      <trkpt lat="47.72931" lon="6.05765">
        <ele>231</ele>
        <time>2012-09-05T08:09:16.000Z</time>
      </trkpt>
      <trkpt lat="47.72933" lon="6.05737">
        <ele>231</ele>
        <time>2012-09-05T08:09:19.000Z</time>
      </trkpt>
      <trkpt lat="47.72935" lon="6.05727">
        <ele>230.60000610352</ele>
        <time>2012-09-05T08:09:20.000Z</time>
      </trkpt>
      <trkpt lat="47.72937" lon="6.0572">
        <ele>230.19999694824</ele>
        <time>2012-09-05T08:09:21.000Z</time>
      </trkpt>
      <trkpt lat="47.72938" lon="6.05713">
        <ele>229.80000305176</ele>
        <time>2012-09-05T08:09:22.000Z</time>
      </trkpt>
      <trkpt lat="47.72939" lon="6.05707">
        <ele>229.39999389648</ele>
        <time>2012-09-05T08:09:23.000Z</time>
      </trkpt>
      <trkpt lat="47.72938" lon="6.057">
        <ele>229</ele>
        <time>2012-09-05T08:09:24.000Z</time>
      </trkpt>
      <trkpt lat="47.72935" lon="6.05692">
        <ele>229</ele>
        <time>2012-09-05T08:09:25.000Z</time>
      </trkpt>
      <trkpt lat="47.72935" lon="6.05652">
        <ele>229</ele>
        <time>2012-09-05T08:09:31.000Z</time>
      </trkpt>
      <trkpt lat="47.72938" lon="6.05618">
        <ele>229</ele>
        <time>2012-09-05T08:09:37.000Z</time>
      </trkpt>
      <trkpt lat="47.72941" lon="6.05613">
        <ele>228.39999389648</ele>
        <time>2012-09-05T08:09:38.000Z</time>
      </trkpt>
      <trkpt lat="47.72945" lon="6.05607">
        <ele>228</ele>
        <time>2012-09-05T08:09:39.000Z</time>
      </trkpt>
      <trkpt lat="47.72948" lon="6.05602">
        <ele>227.60000610352</ele>
        <time>2012-09-05T08:09:40.000Z</time>
      </trkpt>
      <trkpt lat="47.72951" lon="6.05598">
        <ele>227.19999694824</ele>
        <time>2012-09-05T08:09:41.000Z</time>
      </trkpt>
      <trkpt lat="47.72955" lon="6.05593">
        <ele>226.80000305176</ele>
        <time>2012-09-05T08:09:42.000Z</time>
      </trkpt>
      <trkpt lat="47.72963" lon="6.05573">
        <ele>226.80000305176</ele>
        <time>2012-09-05T08:09:47.000Z</time>
      </trkpt>
      <trkpt lat="47.72967" lon="6.05552">
        <ele>226.80000305176</ele>
        <time>2012-09-05T08:09:52.000Z</time>
      </trkpt>
      <trkpt lat="47.72974" lon="6.05528">
        <ele>226.80000305176</ele>
        <time>2012-09-05T08:09:57.000Z</time>
      </trkpt>
      <trkpt lat="47.72987" lon="6.05506">
        <ele>226.80000305176</ele>
        <time>2012-09-05T08:10:03.000Z</time>
      </trkpt>
      <trkpt lat="47.72999" lon="6.05495">
        <ele>226.80000305176</ele>
        <time>2012-09-05T08:10:09.000Z</time>
      </trkpt>
      <trkpt lat="47.73007" lon="6.05498">
        <ele>226.80000305176</ele>
        <time>2012-09-05T08:10:13.000Z</time>
      </trkpt>
      <trkpt lat="47.73012" lon="6.055">
        <ele>226.80000305176</ele>
        <time>2012-09-05T08:10:15.000Z</time>
      </trkpt>
      <trkpt lat="47.7302" lon="6.05505">
        <ele>226.80000305176</ele>
        <time>2012-09-05T08:10:19.000Z</time>
      </trkpt>
      <trkpt lat="47.73022" lon="6.05504">
        <ele>226.39999389648</ele>
        <time>2012-09-05T08:10:20.000Z</time>
      </trkpt>
      <trkpt lat="47.73024" lon="6.05501">
        <ele>226</ele>
        <time>2012-09-05T08:10:21.000Z</time>
      </trkpt>
      <trkpt lat="47.73025" lon="6.05499">
        <ele>225.60000610352</ele>
        <time>2012-09-05T08:10:22.000Z</time>
      </trkpt>
      <trkpt lat="47.73026" lon="6.05495">
        <ele>225.19999694824</ele>
        <time>2012-09-05T08:10:23.000Z</time>
      </trkpt>
      <trkpt lat="47.73028" lon="6.05491">
        <ele>224.80000305176</ele>
        <time>2012-09-05T08:10:24.000Z</time>
      </trkpt>
      <trkpt lat="47.7303" lon="6.05482">
        <ele>224.80000305176</ele>
        <time>2012-09-05T08:10:26.000Z</time>
      </trkpt>
      <trkpt lat="47.73041" lon="6.0546">
        <ele>224.80000305176</ele>
        <time>2012-09-05T08:10:32.000Z</time>
      </trkpt>
      <trkpt lat="47.73048" lon="6.05441">
        <ele>224.80000305176</ele>
        <time>2012-09-05T08:10:37.000Z</time>
      </trkpt>
      <trkpt lat="47.73055" lon="6.05427">
        <ele>224.80000305176</ele>
        <time>2012-09-05T08:10:41.000Z</time>
      </trkpt>
      <trkpt lat="47.73064" lon="6.05394">
        <ele>224.80000305176</ele>
        <time>2012-09-05T08:10:49.000Z</time>
      </trkpt>
      <trkpt lat="47.73068" lon="6.05376">
        <ele>224.80000305176</ele>
        <time>2012-09-05T08:10:54.000Z</time>
      </trkpt>
      <trkpt lat="47.73074" lon="6.05354">
        <ele>224.80000305176</ele>
        <time>2012-09-05T08:11:00.000Z</time>
      </trkpt>
      <trkpt lat="47.73081" lon="6.05328">
        <ele>224.80000305176</ele>
        <time>2012-09-05T08:11:06.000Z</time>
      </trkpt>
      <trkpt lat="47.73088" lon="6.05295">
        <ele>224.80000305176</ele>
        <time>2012-09-05T08:11:13.000Z</time>
      </trkpt>
      <trkpt lat="47.73094" lon="6.05263">
        <ele>224.80000305176</ele>
        <time>2012-09-05T08:11:19.000Z</time>
      </trkpt>
      <trkpt lat="47.73103" lon="6.05227">
        <ele>224.80000305176</ele>
        <time>2012-09-05T08:11:26.000Z</time>
      </trkpt>
      <trkpt lat="47.73112" lon="6.05195">
        <ele>224.80000305176</ele>
        <time>2012-09-05T08:11:33.000Z</time>
      </trkpt>
      <trkpt lat="47.73121" lon="6.05149">
        <ele>224.80000305176</ele>
        <time>2012-09-05T08:11:42.000Z</time>
      </trkpt>
      <trkpt lat="47.73126" lon="6.05112">
        <ele>224.80000305176</ele>
        <time>2012-09-05T08:11:49.000Z</time>
      </trkpt>
      <trkpt lat="47.73131" lon="6.05067">
        <ele>224.80000305176</ele>
        <time>2012-09-05T08:11:57.000Z</time>
      </trkpt>
      <trkpt lat="47.73136" lon="6.05018">
        <ele>224.80000305176</ele>
        <time>2012-09-05T08:12:06.000Z</time>
      </trkpt>
      <trkpt lat="47.73137" lon="6.04987">
        <ele>224.80000305176</ele>
        <time>2012-09-05T08:12:12.000Z</time>
      </trkpt>
      <trkpt lat="47.73129" lon="6.04959">
        <ele>224.80000305176</ele>
        <time>2012-09-05T08:12:18.000Z</time>
      </trkpt>
      <trkpt lat="47.73118" lon="6.0494">
        <ele>224.80000305176</ele>
        <time>2012-09-05T08:12:24.000Z</time>
      </trkpt>
      <trkpt lat="47.73105" lon="6.04915">
        <ele>224.80000305176</ele>
        <time>2012-09-05T08:12:32.000Z</time>
      </trkpt>
      <trkpt lat="47.7309" lon="6.04893">
        <ele>224.80000305176</ele>
        <time>2012-09-05T08:12:40.000Z</time>
      </trkpt>
      <trkpt lat="47.73078" lon="6.04873">
        <ele>224.80000305176</ele>
        <time>2012-09-05T08:12:46.000Z</time>
      </trkpt>
      <trkpt lat="47.73065" lon="6.04853">
        <ele>224.80000305176</ele>
        <time>2012-09-05T08:12:52.000Z</time>
      </trkpt>
      <trkpt lat="47.73054" lon="6.04839">
        <ele>224.80000305176</ele>
        <time>2012-09-05T08:12:58.000Z</time>
      </trkpt>
      <trkpt lat="47.7304" lon="6.04828">
        <ele>224.80000305176</ele>
        <time>2012-09-05T08:13:04.000Z</time>
      </trkpt>
      <trkpt lat="47.73021" lon="6.04813">
        <ele>224.80000305176</ele>
        <time>2012-09-05T08:13:11.000Z</time>
      </trkpt>
      <trkpt lat="47.73007" lon="6.04804">
        <ele>224.80000305176</ele>
        <time>2012-09-05T08:13:17.000Z</time>
      </trkpt>
      <trkpt lat="47.72989" lon="6.04794">
        <ele>224.80000305176</ele>
        <time>2012-09-05T08:13:24.000Z</time>
      </trkpt>
      <trkpt lat="47.72974" lon="6.04787">
        <ele>224.80000305176</ele>
        <time>2012-09-05T08:13:29.000Z</time>
      </trkpt>
      <trkpt lat="47.72957" lon="6.04764">
        <ele>226.80000305176</ele>
        <time>2012-09-05T08:14:00.000Z</time>
      </trkpt>
      <trkpt lat="47.72954" lon="6.04755">
        <ele>226.80000305176</ele>
        <time>2012-09-05T08:14:03.000Z</time>
      </trkpt>
      <trkpt lat="47.72946" lon="6.04735">
        <ele>226.80000305176</ele>
        <time>2012-09-05T08:14:11.000Z</time>
      </trkpt>
      <trkpt lat="47.72941" lon="6.04724">
        <ele>226.80000305176</ele>
        <time>2012-09-05T08:14:17.000Z</time>
      </trkpt>
      <trkpt lat="47.72941" lon="6.04724">
        <ele>226.80000305176</ele>
        <time>2012-09-05T08:14:18.000Z</time>
      </trkpt>
      <trkpt lat="47.72932" lon="6.04711">
        <ele>224.80000305176</ele>
        <time>2012-09-05T08:14:45.000Z</time>
      </trkpt>
      <trkpt lat="47.72927" lon="6.04713">
        <ele>224.80000305176</ele>
        <time>2012-09-05T08:14:48.000Z</time>
      </trkpt>
      <trkpt lat="47.72921" lon="6.04716">
        <ele>224.80000305176</ele>
        <time>2012-09-05T08:14:50.000Z</time>
      </trkpt>
      <trkpt lat="47.7291" lon="6.0472">
        <ele>224.80000305176</ele>
        <time>2012-09-05T08:14:53.000Z</time>
      </trkpt>
      <trkpt lat="47.72894" lon="6.04717">
        <ele>224.80000305176</ele>
        <time>2012-09-05T08:14:58.000Z</time>
      </trkpt>
      <trkpt lat="47.72878" lon="6.04702">
        <ele>224.80000305176</ele>
        <time>2012-09-05T08:15:04.000Z</time>
      </trkpt>
      <trkpt lat="47.72867" lon="6.04678">
        <ele>224.80000305176</ele>
        <time>2012-09-05T08:15:11.000Z</time>
      </trkpt>
      <trkpt lat="47.72867" lon="6.04664">
        <ele>225.19999694824</ele>
        <time>2012-09-05T08:15:15.000Z</time>
      </trkpt>
      <trkpt lat="47.72867" lon="6.0466">
        <ele>225.60000610352</ele>
        <time>2012-09-05T08:15:16.000Z</time>
      </trkpt>
      <trkpt lat="47.72867" lon="6.04657">
        <ele>226</ele>
        <time>2012-09-05T08:15:17.000Z</time>
      </trkpt>
      <trkpt lat="47.72867" lon="6.04654">
        <ele>226.39999389648</ele>
        <time>2012-09-05T08:15:18.000Z</time>
      </trkpt>
      <trkpt lat="47.72866" lon="6.0465">
        <ele>226.80000305176</ele>
        <time>2012-09-05T08:15:19.000Z</time>
      </trkpt>
      <trkpt lat="47.72865" lon="6.04644">
        <ele>226.80000305176</ele>
        <time>2012-09-05T08:15:21.000Z</time>
      </trkpt>
      <trkpt lat="47.72857" lon="6.04615">
        <ele>227.80000305176</ele>
        <time>2012-09-05T08:15:30.000Z</time>
      </trkpt>
      <trkpt lat="47.72856" lon="6.04612">
        <ele>228.19999694824</ele>
        <time>2012-09-05T08:15:31.000Z</time>
      </trkpt>
      <trkpt lat="47.72855" lon="6.04609">
        <ele>228.60000610352</ele>
        <time>2012-09-05T08:15:32.000Z</time>
      </trkpt>
      <trkpt lat="47.72854" lon="6.04606">
        <ele>229</ele>
        <time>2012-09-05T08:15:33.000Z</time>
      </trkpt>
      <trkpt lat="47.72853" lon="6.04593">
        <ele>229</ele>
        <time>2012-09-05T08:15:38.000Z</time>
      </trkpt>
      <trkpt lat="47.72851" lon="6.04582">
        <ele>229.39999389648</ele>
        <time>2012-09-05T08:15:42.000Z</time>
      </trkpt>
      <trkpt lat="47.7285" lon="6.04579">
        <ele>229.80000305176</ele>
        <time>2012-09-05T08:15:43.000Z</time>
      </trkpt>
      <trkpt lat="47.72849" lon="6.04577">
        <ele>230.19999694824</ele>
        <time>2012-09-05T08:15:44.000Z</time>
      </trkpt>
      <trkpt lat="47.72848" lon="6.04575">
        <ele>230.60000610352</ele>
        <time>2012-09-05T08:15:45.000Z</time>
      </trkpt>
      <trkpt lat="47.72846" lon="6.04573">
        <ele>231</ele>
        <time>2012-09-05T08:15:46.000Z</time>
      </trkpt>
      <trkpt lat="47.72837" lon="6.04557">
        <ele>231</ele>
        <time>2012-09-05T08:15:51.000Z</time>
      </trkpt>
      <trkpt lat="47.72819" lon="6.04528">
        <ele>231</ele>
        <time>2012-09-05T08:15:58.000Z</time>
      </trkpt>
      <trkpt lat="47.72816" lon="6.04522">
        <ele>231</ele>
        <time>2012-09-05T08:15:59.000Z</time>
      </trkpt>
      <trkpt lat="47.72809" lon="6.04505">
        <ele>231</ele>
        <time>2012-09-05T08:16:02.000Z</time>
      </trkpt>
      <trkpt lat="47.72806" lon="6.045">
        <ele>231</ele>
        <time>2012-09-05T08:16:03.000Z</time>
      </trkpt>
      <trkpt lat="47.72804" lon="6.04493">
        <ele>231</ele>
        <time>2012-09-05T08:16:04.000Z</time>
      </trkpt>
      <trkpt lat="47.72796" lon="6.04469">
        <ele>231</ele>
        <time>2012-09-05T08:16:08.000Z</time>
      </trkpt>
      <trkpt lat="47.72785" lon="6.04432">
        <ele>231</ele>
        <time>2012-09-05T08:16:15.000Z</time>
      </trkpt>
      <trkpt lat="47.72774" lon="6.04397">
        <ele>231</ele>
        <time>2012-09-05T08:16:22.000Z</time>
      </trkpt>
      <trkpt lat="47.72767" lon="6.04383">
        <ele>231</ele>
        <time>2012-09-05T08:16:27.000Z</time>
      </trkpt>
      <trkpt lat="47.72761" lon="6.04362">
        <ele>231</ele>
        <time>2012-09-05T08:16:33.000Z</time>
      </trkpt>
      <trkpt lat="47.72754" lon="6.04332">
        <ele>231</ele>
        <time>2012-09-05T08:16:41.000Z</time>
      </trkpt>
      <trkpt lat="47.72748" lon="6.04316">
        <ele>231</ele>
        <time>2012-09-05T08:16:46.000Z</time>
      </trkpt>
      <trkpt lat="47.72735" lon="6.04291">
        <ele>231</ele>
        <time>2012-09-05T08:16:53.000Z</time>
      </trkpt>
      <trkpt lat="47.72715" lon="6.04262">
        <ele>231</ele>
        <time>2012-09-05T08:16:59.000Z</time>
      </trkpt>
      <trkpt lat="47.72711" lon="6.04256">
        <ele>231</ele>
        <time>2012-09-05T08:17:00.000Z</time>
      </trkpt>
      <trkpt lat="47.72697" lon="6.04233">
        <ele>231</ele>
        <time>2012-09-05T08:17:04.000Z</time>
      </trkpt>
      <trkpt lat="47.72684" lon="6.04209">
        <ele>230.60000610352</ele>
        <time>2012-09-05T08:17:08.000Z</time>
      </trkpt>
      <trkpt lat="47.72682" lon="6.04203">
        <ele>229.80000305176</ele>
        <time>2012-09-05T08:17:09.000Z</time>
      </trkpt>
      <trkpt lat="47.72679" lon="6.04197">
        <ele>229.39999389648</ele>
        <time>2012-09-05T08:17:10.000Z</time>
      </trkpt>
      <trkpt lat="47.72677" lon="6.0419">
        <ele>229</ele>
        <time>2012-09-05T08:17:11.000Z</time>
      </trkpt>
      <trkpt lat="47.72667" lon="6.04146">
        <ele>229</ele>
        <time>2012-09-05T08:17:18.000Z</time>
      </trkpt>
      <trkpt lat="47.72661" lon="6.04119">
        <ele>229</ele>
        <time>2012-09-05T08:17:23.000Z</time>
      </trkpt>
      <trkpt lat="47.72651" lon="6.04073">
        <ele>229.39999389648</ele>
        <time>2012-09-05T08:17:32.000Z</time>
      </trkpt>
      <trkpt lat="47.72651" lon="6.04068">
        <ele>230.19999694824</ele>
        <time>2012-09-05T08:17:33.000Z</time>
      </trkpt>
      <trkpt lat="47.7265" lon="6.04064">
        <ele>230.60000610352</ele>
        <time>2012-09-05T08:17:34.000Z</time>
      </trkpt>
      <trkpt lat="47.7265" lon="6.04059">
        <ele>231.19999694824</ele>
        <time>2012-09-05T08:17:35.000Z</time>
      </trkpt>
      <trkpt lat="47.7265" lon="6.04041">
        <ele>231.19999694824</ele>
        <time>2012-09-05T08:17:39.000Z</time>
      </trkpt>
      <trkpt lat="47.72645" lon="6.0401">
        <ele>231.19999694824</ele>
        <time>2012-09-05T08:17:46.000Z</time>
      </trkpt>
      <trkpt lat="47.72645" lon="6.03993">
        <ele>231.60000610352</ele>
        <time>2012-09-05T08:17:50.000Z</time>
      </trkpt>
      <trkpt lat="47.72645" lon="6.03989">
        <ele>232</ele>
        <time>2012-09-05T08:17:51.000Z</time>
      </trkpt>
      <trkpt lat="47.72645" lon="6.03985">
        <ele>232.60000610352</ele>
        <time>2012-09-05T08:17:52.000Z</time>
      </trkpt>
      <trkpt lat="47.72645" lon="6.03981">
        <ele>233</ele>
        <time>2012-09-05T08:17:53.000Z</time>
      </trkpt>
      <trkpt lat="47.72645" lon="6.03977">
        <ele>233.39999389648</ele>
        <time>2012-09-05T08:17:54.000Z</time>
      </trkpt>
      <trkpt lat="47.72645" lon="6.03953">
        <ele>233.39999389648</ele>
        <time>2012-09-05T08:18:00.000Z</time>
      </trkpt>
      <trkpt lat="47.72646" lon="6.03945">
        <ele>233.80000305176</ele>
        <time>2012-09-05T08:18:02.000Z</time>
      </trkpt>
      <trkpt lat="47.72646" lon="6.0394">
        <ele>234.19999694824</ele>
        <time>2012-09-05T08:18:03.000Z</time>
      </trkpt>
      <trkpt lat="47.72646" lon="6.03936">
        <ele>234.60000610352</ele>
        <time>2012-09-05T08:18:04.000Z</time>
      </trkpt>
      <trkpt lat="47.72647" lon="6.03932">
        <ele>235</ele>
        <time>2012-09-05T08:18:05.000Z</time>
      </trkpt>
      <trkpt lat="47.72647" lon="6.03927">
        <ele>235.39999389648</ele>
        <time>2012-09-05T08:18:06.000Z</time>
      </trkpt>
      <trkpt lat="47.72652" lon="6.03878">
        <ele>235.39999389648</ele>
        <time>2012-09-05T08:18:17.000Z</time>
      </trkpt>
      <trkpt lat="47.72658" lon="6.03842">
        <ele>235.39999389648</ele>
        <time>2012-09-05T08:18:26.000Z</time>
      </trkpt>
      <trkpt lat="47.72661" lon="6.03825">
        <ele>236</ele>
        <time>2012-09-05T08:18:30.000Z</time>
      </trkpt>
      <trkpt lat="47.72662" lon="6.03821">
        <ele>236.39999389648</ele>
        <time>2012-09-05T08:18:31.000Z</time>
      </trkpt>
      <trkpt lat="47.72662" lon="6.03816">
        <ele>236.80000305176</ele>
        <time>2012-09-05T08:18:32.000Z</time>
      </trkpt>
      <trkpt lat="47.72663" lon="6.03812">
        <ele>237.19999694824</ele>
        <time>2012-09-05T08:18:33.000Z</time>
      </trkpt>
      <trkpt lat="47.72664" lon="6.03808">
        <ele>237.60000610352</ele>
        <time>2012-09-05T08:18:34.000Z</time>
      </trkpt>
      <trkpt lat="47.72665" lon="6.03804">
        <ele>237.60000610352</ele>
        <time>2012-09-05T08:18:35.000Z</time>
      </trkpt>
      <trkpt lat="47.72675" lon="6.0378">
        <ele>237.60000610352</ele>
        <time>2012-09-05T08:18:42.000Z</time>
      </trkpt>
      <trkpt lat="47.72692" lon="6.03748">
        <ele>237.60000610352</ele>
        <time>2012-09-05T08:18:50.000Z</time>
      </trkpt>
      <trkpt lat="47.72701" lon="6.03732">
        <ele>237.60000610352</ele>
        <time>2012-09-05T08:18:54.000Z</time>
      </trkpt>
      <trkpt lat="47.72707" lon="6.0372">
        <ele>237.60000610352</ele>
        <time>2012-09-05T08:18:57.000Z</time>
      </trkpt>
      <trkpt lat="47.72724" lon="6.03691">
        <ele>237.60000610352</ele>
        <time>2012-09-05T08:19:04.000Z</time>
      </trkpt>
      <trkpt lat="47.72742" lon="6.03665">
        <ele>237.60000610352</ele>
        <time>2012-09-05T08:19:11.000Z</time>
      </trkpt>
      <trkpt lat="47.72768" lon="6.03631">
        <ele>237.60000610352</ele>
        <time>2012-09-05T08:19:20.000Z</time>
      </trkpt>
      <trkpt lat="47.72789" lon="6.03608">
        <ele>237.60000610352</ele>
        <time>2012-09-05T08:19:27.000Z</time>
      </trkpt>
      <trkpt lat="47.72811" lon="6.03586">
        <ele>237.60000610352</ele>
        <time>2012-09-05T08:19:35.000Z</time>
      </trkpt>
      <trkpt lat="47.72824" lon="6.03574">
        <ele>237.60000610352</ele>
        <time>2012-09-05T08:19:40.000Z</time>
      </trkpt>
      <trkpt lat="47.72837" lon="6.03551">
        <ele>237.60000610352</ele>
        <time>2012-09-05T08:19:47.000Z</time>
      </trkpt>
      <trkpt lat="47.7284" lon="6.03527">
        <ele>237.60000610352</ele>
        <time>2012-09-05T08:19:51.000Z</time>
      </trkpt>
      <trkpt lat="47.7284" lon="6.0352">
        <ele>237.60000610352</ele>
        <time>2012-09-05T08:19:52.000Z</time>
      </trkpt>
      <trkpt lat="47.72838" lon="6.03472">
        <ele>237.60000610352</ele>
        <time>2012-09-05T08:20:00.000Z</time>
      </trkpt>
      <trkpt lat="47.72832" lon="6.03423">
        <ele>237.60000610352</ele>
        <time>2012-09-05T08:20:08.000Z</time>
      </trkpt>
      <trkpt lat="47.72827" lon="6.03374">
        <ele>237.60000610352</ele>
        <time>2012-09-05T08:20:16.000Z</time>
      </trkpt>
      <trkpt lat="47.72828" lon="6.03338">
        <ele>237.60000610352</ele>
        <time>2012-09-05T08:20:22.000Z</time>
      </trkpt>
      <trkpt lat="47.72833" lon="6.03314">
        <ele>237.60000610352</ele>
        <time>2012-09-05T08:20:27.000Z</time>
      </trkpt>
      <trkpt lat="47.72845" lon="6.03266">
        <ele>237.60000610352</ele>
        <time>2012-09-05T08:20:38.000Z</time>
      </trkpt>
      <trkpt lat="47.72852" lon="6.03237">
        <ele>237.60000610352</ele>
        <time>2012-09-05T08:20:46.000Z</time>
      </trkpt>
      <trkpt lat="47.72855" lon="6.03217">
        <ele>237.60000610352</ele>
        <time>2012-09-05T08:20:52.000Z</time>
      </trkpt>
      <trkpt lat="47.72862" lon="6.03193">
        <ele>237.60000610352</ele>
        <time>2012-09-05T08:20:59.000Z</time>
      </trkpt>
      <trkpt lat="47.72864" lon="6.03186">
        <ele>238</ele>
        <time>2012-09-05T08:21:01.000Z</time>
      </trkpt>
      <trkpt lat="47.72865" lon="6.03183">
        <ele>238.39999389648</ele>
        <time>2012-09-05T08:21:02.000Z</time>
      </trkpt>
      <trkpt lat="47.72866" lon="6.03178">
        <ele>238.80000305176</ele>
        <time>2012-09-05T08:21:03.000Z</time>
      </trkpt>
      <trkpt lat="47.72867" lon="6.03174">
        <ele>239.19999694824</ele>
        <time>2012-09-05T08:21:04.000Z</time>
      </trkpt>
      <trkpt lat="47.72869" lon="6.03169">
        <ele>239.60000610352</ele>
        <time>2012-09-05T08:21:05.000Z</time>
      </trkpt>
      <trkpt lat="47.7287" lon="6.03164">
        <ele>239.60000610352</ele>
        <time>2012-09-05T08:21:06.000Z</time>
      </trkpt>
      <trkpt lat="47.72877" lon="6.03137">
        <ele>239.60000610352</ele>
        <time>2012-09-05T08:21:12.000Z</time>
      </trkpt>
      <trkpt lat="47.72885" lon="6.0311">
        <ele>239.60000610352</ele>
        <time>2012-09-05T08:21:18.000Z</time>
      </trkpt>
      <trkpt lat="47.7289" lon="6.03083">
        <ele>239.60000610352</ele>
        <time>2012-09-05T08:21:24.000Z</time>
      </trkpt>
      <trkpt lat="47.72895" lon="6.03048">
        <ele>239.60000610352</ele>
        <time>2012-09-05T08:21:31.000Z</time>
      </trkpt>
      <trkpt lat="47.72898" lon="6.03013">
        <ele>239.60000610352</ele>
        <time>2012-09-05T08:21:37.000Z</time>
      </trkpt>
      <trkpt lat="47.72898" lon="6.02977">
        <ele>239.60000610352</ele>
        <time>2012-09-05T08:21:44.000Z</time>
      </trkpt>
      <trkpt lat="47.72897" lon="6.02958">
        <ele>240</ele>
        <time>2012-09-05T08:21:49.000Z</time>
      </trkpt>
      <trkpt lat="47.72897" lon="6.02954">
        <ele>240.39999389648</ele>
        <time>2012-09-05T08:21:50.000Z</time>
      </trkpt>
      <trkpt lat="47.72897" lon="6.02951">
        <ele>240.80000305176</ele>
        <time>2012-09-05T08:21:51.000Z</time>
      </trkpt>
      <trkpt lat="47.72898" lon="6.02947">
        <ele>241.19999694824</ele>
        <time>2012-09-05T08:21:52.000Z</time>
      </trkpt>
      <trkpt lat="47.72897" lon="6.02943">
        <ele>241.60000610352</ele>
        <time>2012-09-05T08:21:53.000Z</time>
      </trkpt>
      <trkpt lat="47.72896" lon="6.02936">
        <ele>241.60000610352</ele>
        <time>2012-09-05T08:21:55.000Z</time>
      </trkpt>
      <trkpt lat="47.72889" lon="6.02909">
        <ele>241.60000610352</ele>
        <time>2012-09-05T08:22:03.000Z</time>
      </trkpt>
      <trkpt lat="47.72888" lon="6.02907">
        <ele>242</ele>
        <time>2012-09-05T08:22:04.000Z</time>
      </trkpt>
      <trkpt lat="47.72887" lon="6.02904">
        <ele>242.80000305176</ele>
        <time>2012-09-05T08:22:05.000Z</time>
      </trkpt>
      <trkpt lat="47.72886" lon="6.02901">
        <ele>243.19999694824</ele>
        <time>2012-09-05T08:22:06.000Z</time>
      </trkpt>
      <trkpt lat="47.72885" lon="6.02899">
        <ele>243.60000610352</ele>
        <time>2012-09-05T08:22:07.000Z</time>
      </trkpt>
      <trkpt lat="47.72883" lon="6.02893">
        <ele>243.60000610352</ele>
        <time>2012-09-05T08:22:10.000Z</time>
      </trkpt>
      <trkpt lat="47.72878" lon="6.02879">
        <ele>244</ele>
        <time>2012-09-05T08:22:16.000Z</time>
      </trkpt>
      <trkpt lat="47.72878" lon="6.02876">
        <ele>244.39999389648</ele>
        <time>2012-09-05T08:22:17.000Z</time>
      </trkpt>
      <trkpt lat="47.72877" lon="6.02874">
        <ele>245</ele>
        <time>2012-09-05T08:22:18.000Z</time>
      </trkpt>
      <trkpt lat="47.72876" lon="6.02871">
        <ele>245.39999389648</ele>
        <time>2012-09-05T08:22:19.000Z</time>
      </trkpt>
      <trkpt lat="47.72875" lon="6.02869">
        <ele>245.80000305176</ele>
        <time>2012-09-05T08:22:20.000Z</time>
      </trkpt>
      <trkpt lat="47.72873" lon="6.0286">
        <ele>245.80000305176</ele>
        <time>2012-09-05T08:22:23.000Z</time>
      </trkpt>
      <trkpt lat="47.72868" lon="6.02847">
        <ele>246.19999694824</ele>
        <time>2012-09-05T08:22:28.000Z</time>
      </trkpt>
      <trkpt lat="47.72867" lon="6.02844">
        <ele>246.60000610352</ele>
        <time>2012-09-05T08:22:29.000Z</time>
      </trkpt>
      <trkpt lat="47.72867" lon="6.02841">
        <ele>247.60000610352</ele>
        <time>2012-09-05T08:22:30.000Z</time>
      </trkpt>
      <trkpt lat="47.72866" lon="6.02839">
        <ele>248</ele>
        <time>2012-09-05T08:22:31.000Z</time>
      </trkpt>
      <trkpt lat="47.72864" lon="6.02827">
        <ele>248</ele>
        <time>2012-09-05T08:22:36.000Z</time>
      </trkpt>
      <trkpt lat="47.72863" lon="6.02824">
        <ele>248.39999389648</ele>
        <time>2012-09-05T08:22:37.000Z</time>
      </trkpt>
      <trkpt lat="47.72862" lon="6.02822">
        <ele>248.80000305176</ele>
        <time>2012-09-05T08:22:38.000Z</time>
      </trkpt>
      <trkpt lat="47.72862" lon="6.0282">
        <ele>249.19999694824</ele>
        <time>2012-09-05T08:22:39.000Z</time>
      </trkpt>
      <trkpt lat="47.72862" lon="6.02818">
        <ele>249.60000610352</ele>
        <time>2012-09-05T08:22:40.000Z</time>
      </trkpt>
      <trkpt lat="47.72861" lon="6.02816">
        <ele>250</ele>
        <time>2012-09-05T08:22:41.000Z</time>
      </trkpt>
      <trkpt lat="47.7286" lon="6.0281">
        <ele>250</ele>
        <time>2012-09-05T08:22:44.000Z</time>
      </trkpt>
      <trkpt lat="47.72858" lon="6.02799">
        <ele>250</ele>
        <time>2012-09-05T08:22:49.000Z</time>
      </trkpt>
      <trkpt lat="47.72857" lon="6.02794">
        <ele>250</ele>
        <time>2012-09-05T08:22:51.000Z</time>
      </trkpt>
      <trkpt lat="47.72857" lon="6.02791">
        <ele>250.39999389648</ele>
        <time>2012-09-05T08:22:52.000Z</time>
      </trkpt>
      <trkpt lat="47.72856" lon="6.02788">
        <ele>250.80000305176</ele>
        <time>2012-09-05T08:22:53.000Z</time>
      </trkpt>
      <trkpt lat="47.72855" lon="6.02786">
        <ele>251.39999389648</ele>
        <time>2012-09-05T08:22:54.000Z</time>
      </trkpt>
      <trkpt lat="47.72855" lon="6.02784">
        <ele>252.19999694824</ele>
        <time>2012-09-05T08:22:55.000Z</time>
      </trkpt>
      <trkpt lat="47.72853" lon="6.02774">
        <ele>252.19999694824</ele>
        <time>2012-09-05T08:22:59.000Z</time>
      </trkpt>
      <trkpt lat="47.72853" lon="6.02752">
        <ele>252.19999694824</ele>
        <time>2012-09-05T08:23:07.000Z</time>
      </trkpt>
      <trkpt lat="47.72855" lon="6.02744">
        <ele>252.60000610352</ele>
        <time>2012-09-05T08:23:10.000Z</time>
      </trkpt>
      <trkpt lat="47.72856" lon="6.02742">
        <ele>253</ele>
        <time>2012-09-05T08:23:11.000Z</time>
      </trkpt>
      <trkpt lat="47.72856" lon="6.02739">
        <ele>253.39999389648</ele>
        <time>2012-09-05T08:23:12.000Z</time>
      </trkpt>
      <trkpt lat="47.72857" lon="6.02737">
        <ele>253.80000305176</ele>
        <time>2012-09-05T08:23:13.000Z</time>
      </trkpt>
      <trkpt lat="47.72858" lon="6.02734">
        <ele>254.19999694824</ele>
        <time>2012-09-05T08:23:14.000Z</time>
      </trkpt>
      <trkpt lat="47.72858" lon="6.02732">
        <ele>254.19999694824</ele>
        <time>2012-09-05T08:23:15.000Z</time>
      </trkpt>
      <trkpt lat="47.72864" lon="6.02712">
        <ele>254.19999694824</ele>
        <time>2012-09-05T08:23:22.000Z</time>
      </trkpt>
      <trkpt lat="47.7287" lon="6.02692">
        <ele>254.19999694824</ele>
        <time>2012-09-05T08:23:29.000Z</time>
      </trkpt>
      <trkpt lat="47.72879" lon="6.02667">
        <ele>254.19999694824</ele>
        <time>2012-09-05T08:23:37.000Z</time>
      </trkpt>
      <trkpt lat="47.72889" lon="6.02645">
        <ele>254.19999694824</ele>
        <time>2012-09-05T08:23:44.000Z</time>
      </trkpt>
      <trkpt lat="47.72892" lon="6.02638">
        <ele>254.19999694824</ele>
        <time>2012-09-05T08:23:47.000Z</time>
      </trkpt>
      <trkpt lat="47.72895" lon="6.02634">
        <ele>254.19999694824</ele>
        <time>2012-09-05T08:23:49.000Z</time>
      </trkpt>
      <trkpt lat="47.72897" lon="6.02629">
        <ele>254.19999694824</ele>
        <time>2012-09-05T08:23:51.000Z</time>
      </trkpt>
      <trkpt lat="47.72901" lon="6.02619">
        <ele>254.19999694824</ele>
        <time>2012-09-05T08:23:55.000Z</time>
      </trkpt>
      <trkpt lat="47.72908" lon="6.02602">
        <ele>254.60000610352</ele>
        <time>2012-09-05T08:24:02.000Z</time>
      </trkpt>
      <trkpt lat="47.72909" lon="6.02599">
        <ele>255</ele>
        <time>2012-09-05T08:24:03.000Z</time>
      </trkpt>
      <trkpt lat="47.72911" lon="6.02597">
        <ele>255.60000610352</ele>
        <time>2012-09-05T08:24:04.000Z</time>
      </trkpt>
      <trkpt lat="47.72912" lon="6.02594">
        <ele>256</ele>
        <time>2012-09-05T08:24:05.000Z</time>
      </trkpt>
      <trkpt lat="47.72913" lon="6.02592">
        <ele>256.39999389648</ele>
        <time>2012-09-05T08:24:06.000Z</time>
      </trkpt>
      <trkpt lat="47.72917" lon="6.02583">
        <ele>256.39999389648</ele>
        <time>2012-09-05T08:24:09.000Z</time>
      </trkpt>
      <trkpt lat="47.72927" lon="6.0256">
        <ele>256.39999389648</ele>
        <time>2012-09-05T08:24:17.000Z</time>
      </trkpt>
      <trkpt lat="47.72939" lon="6.02537">
        <ele>256.39999389648</ele>
        <time>2012-09-05T08:24:25.000Z</time>
      </trkpt>
      <trkpt lat="47.72947" lon="6.02521">
        <ele>256.39999389648</ele>
        <time>2012-09-05T08:24:31.000Z</time>
      </trkpt>
      <trkpt lat="47.72958" lon="6.02502">
        <ele>256.79998779297</ele>
        <time>2012-09-05T08:24:37.000Z</time>
      </trkpt>
      <trkpt lat="47.72959" lon="6.02499">
        <ele>257.20001220703</ele>
        <time>2012-09-05T08:24:38.000Z</time>
      </trkpt>
      <trkpt lat="47.72961" lon="6.02496">
        <ele>257.60000610352</ele>
        <time>2012-09-05T08:24:39.000Z</time>
      </trkpt>
      <trkpt lat="47.72963" lon="6.02493">
        <ele>258</ele>
        <time>2012-09-05T08:24:40.000Z</time>
      </trkpt>
      <trkpt lat="47.72965" lon="6.0249">
        <ele>258.39999389648</ele>
        <time>2012-09-05T08:24:41.000Z</time>
      </trkpt>
      <trkpt lat="47.72971" lon="6.02479">
        <ele>258.39999389648</ele>
        <time>2012-09-05T08:24:44.000Z</time>
      </trkpt>
      <trkpt lat="47.72985" lon="6.02456">
        <ele>258.39999389648</ele>
        <time>2012-09-05T08:24:51.000Z</time>
      </trkpt>
      <trkpt lat="47.72995" lon="6.02438">
        <ele>258.39999389648</ele>
        <time>2012-09-05T08:24:56.000Z</time>
      </trkpt>
      <trkpt lat="47.73017" lon="6.02402">
        <ele>258.39999389648</ele>
        <time>2012-09-05T08:25:06.000Z</time>
      </trkpt>
      <trkpt lat="47.73025" lon="6.02388">
        <ele>258.79998779297</ele>
        <time>2012-09-05T08:25:10.000Z</time>
      </trkpt>
      <trkpt lat="47.73027" lon="6.02384">
        <ele>259.20001220703</ele>
        <time>2012-09-05T08:25:11.000Z</time>
      </trkpt>
      <trkpt lat="47.73029" lon="6.02381">
        <ele>259.60000610352</ele>
        <time>2012-09-05T08:25:12.000Z</time>
      </trkpt>
      <trkpt lat="47.73031" lon="6.02377">
        <ele>260</ele>
        <time>2012-09-05T08:25:13.000Z</time>
      </trkpt>
      <trkpt lat="47.73033" lon="6.02374">
        <ele>260.39999389648</ele>
        <time>2012-09-05T08:25:14.000Z</time>
      </trkpt>
      <trkpt lat="47.73035" lon="6.0237">
        <ele>260.39999389648</ele>
        <time>2012-09-05T08:25:15.000Z</time>
      </trkpt>
      <trkpt lat="47.73058" lon="6.02332">
        <ele>260.39999389648</ele>
        <time>2012-09-05T08:25:26.000Z</time>
      </trkpt>
      <trkpt lat="47.7307" lon="6.02312">
        <ele>260.39999389648</ele>
        <time>2012-09-05T08:25:31.000Z</time>
      </trkpt>
      <trkpt lat="47.73077" lon="6.02299">
        <ele>260.39999389648</ele>
        <time>2012-09-05T08:25:34.000Z</time>
      </trkpt>
      <trkpt lat="47.73083" lon="6.0229">
        <ele>260.39999389648</ele>
        <time>2012-09-05T08:25:36.000Z</time>
      </trkpt>
      <trkpt lat="47.73086" lon="6.02285">
        <ele>260.39999389648</ele>
        <time>2012-09-05T08:25:37.000Z</time>
      </trkpt>
      <trkpt lat="47.731" lon="6.02259">
        <ele>260.39999389648</ele>
        <time>2012-09-05T08:25:42.000Z</time>
      </trkpt>
      <trkpt lat="47.7311" lon="6.02244">
        <ele>260.39999389648</ele>
        <time>2012-09-05T08:25:45.000Z</time>
      </trkpt>
      <trkpt lat="47.73121" lon="6.02228">
        <ele>260.79998779297</ele>
        <time>2012-09-05T08:25:49.000Z</time>
      </trkpt>
      <trkpt lat="47.73123" lon="6.02224">
        <ele>261.20001220703</ele>
        <time>2012-09-05T08:25:50.000Z</time>
      </trkpt>
      <trkpt lat="47.73125" lon="6.02219">
        <ele>261.60000610352</ele>
        <time>2012-09-05T08:25:51.000Z</time>
      </trkpt>
      <trkpt lat="47.73128" lon="6.02215">
        <ele>262</ele>
        <time>2012-09-05T08:25:52.000Z</time>
      </trkpt>
      <trkpt lat="47.73131" lon="6.02211">
        <ele>262.39999389648</ele>
        <time>2012-09-05T08:25:53.000Z</time>
      </trkpt>
      <trkpt lat="47.73142" lon="6.02196">
        <ele>262.39999389648</ele>
        <time>2012-09-05T08:25:57.000Z</time>
      </trkpt>
      <trkpt lat="47.73165" lon="6.02162">
        <ele>262.39999389648</ele>
        <time>2012-09-05T08:26:05.000Z</time>
      </trkpt>
      <trkpt lat="47.73183" lon="6.02136">
        <ele>262.39999389648</ele>
        <time>2012-09-05T08:26:12.000Z</time>
      </trkpt>
      <trkpt lat="47.73198" lon="6.02109">
        <ele>262.39999389648</ele>
        <time>2012-09-05T08:26:20.000Z</time>
      </trkpt>
      <trkpt lat="47.73214" lon="6.02077">
        <ele>262.39999389648</ele>
        <time>2012-09-05T08:26:28.000Z</time>
      </trkpt>
      <trkpt lat="47.73231" lon="6.02035">
        <ele>262.39999389648</ele>
        <time>2012-09-05T08:26:36.000Z</time>
      </trkpt>
      <trkpt lat="47.73242" lon="6.02007">
        <ele>262.39999389648</ele>
        <time>2012-09-05T08:26:42.000Z</time>
      </trkpt>
      <trkpt lat="47.73258" lon="6.01964">
        <ele>262.39999389648</ele>
        <time>2012-09-05T08:26:52.000Z</time>
      </trkpt>
      <trkpt lat="47.73274" lon="6.01926">
        <ele>262.39999389648</ele>
        <time>2012-09-05T08:27:00.000Z</time>
      </trkpt>
      <trkpt lat="47.73292" lon="6.01873">
        <ele>262.39999389648</ele>
        <time>2012-09-05T08:27:09.000Z</time>
      </trkpt>
      <trkpt lat="47.73302" lon="6.01824">
        <ele>262.39999389648</ele>
        <time>2012-09-05T08:27:16.000Z</time>
      </trkpt>
      <trkpt lat="47.73312" lon="6.0175">
        <ele>262.39999389648</ele>
        <time>2012-09-05T08:27:25.000Z</time>
      </trkpt>
      <trkpt lat="47.73322" lon="6.01703">
        <ele>262.39999389648</ele>
        <time>2012-09-05T08:27:32.000Z</time>
      </trkpt>
      <trkpt lat="47.73334" lon="6.01654">
        <ele>262.39999389648</ele>
        <time>2012-09-05T08:27:40.000Z</time>
      </trkpt>
      <trkpt lat="47.73342" lon="6.01599">
        <ele>262.39999389648</ele>
        <time>2012-09-05T08:27:49.000Z</time>
      </trkpt>
      <trkpt lat="47.73344" lon="6.0155">
        <ele>262.39999389648</ele>
        <time>2012-09-05T08:27:58.000Z</time>
      </trkpt>
      <trkpt lat="47.73343" lon="6.01511">
        <ele>262.39999389648</ele>
        <time>2012-09-05T08:28:06.000Z</time>
      </trkpt>
      <trkpt lat="47.73342" lon="6.01498">
        <ele>263</ele>
        <time>2012-09-05T08:28:09.000Z</time>
      </trkpt>
      <trkpt lat="47.73341" lon="6.01493">
        <ele>263.39999389648</ele>
        <time>2012-09-05T08:28:10.000Z</time>
      </trkpt>
      <trkpt lat="47.73341" lon="6.01489">
        <ele>263.79998779297</ele>
        <time>2012-09-05T08:28:11.000Z</time>
      </trkpt>
      <trkpt lat="47.7334" lon="6.01485">
        <ele>264.20001220703</ele>
        <time>2012-09-05T08:28:12.000Z</time>
      </trkpt>
      <trkpt lat="47.7334" lon="6.01481">
        <ele>264.60000610352</ele>
        <time>2012-09-05T08:28:13.000Z</time>
      </trkpt>
      <trkpt lat="47.73339" lon="6.01476">
        <ele>264.60000610352</ele>
        <time>2012-09-05T08:28:14.000Z</time>
      </trkpt>
      <trkpt lat="47.73337" lon="6.01456">
        <ele>264.60000610352</ele>
        <time>2012-09-05T08:28:19.000Z</time>
      </trkpt>
      <trkpt lat="47.73337" lon="6.01418">
        <ele>264.60000610352</ele>
        <time>2012-09-05T08:28:27.000Z</time>
      </trkpt>
      <trkpt lat="47.73338" lon="6.01413">
        <ele>265</ele>
        <time>2012-09-05T08:28:28.000Z</time>
      </trkpt>
      <trkpt lat="47.73338" lon="6.01407">
        <ele>265.39999389648</ele>
        <time>2012-09-05T08:28:29.000Z</time>
      </trkpt>
      <trkpt lat="47.73338" lon="6.01402">
        <ele>265.79998779297</ele>
        <time>2012-09-05T08:28:30.000Z</time>
      </trkpt>
      <trkpt lat="47.73339" lon="6.01397">
        <ele>266.20001220703</ele>
        <time>2012-09-05T08:28:31.000Z</time>
      </trkpt>
      <trkpt lat="47.7334" lon="6.01392">
        <ele>266.60000610352</ele>
        <time>2012-09-05T08:28:32.000Z</time>
      </trkpt>
      <trkpt lat="47.73341" lon="6.01384">
        <ele>266.60000610352</ele>
        <time>2012-09-05T08:28:34.000Z</time>
      </trkpt>
      <trkpt lat="47.73348" lon="6.01344">
        <ele>266.60000610352</ele>
        <time>2012-09-05T08:28:42.000Z</time>
      </trkpt>
      <trkpt lat="47.7335" lon="6.01297">
        <ele>266.60000610352</ele>
        <time>2012-09-05T08:28:50.000Z</time>
      </trkpt>
      <trkpt lat="47.73347" lon="6.01268">
        <ele>266.60000610352</ele>
        <time>2012-09-05T08:28:54.000Z</time>
      </trkpt>
      <trkpt lat="47.73345" lon="6.01261">
        <ele>266.60000610352</ele>
        <time>2012-09-05T08:28:55.000Z</time>
      </trkpt>
      <trkpt lat="47.73334" lon="6.01204">
        <ele>266.20001220703</ele>
        <time>2012-09-05T08:29:02.000Z</time>
      </trkpt>
      <trkpt lat="47.73333" lon="6.01195">
        <ele>265.79998779297</ele>
        <time>2012-09-05T08:29:03.000Z</time>
      </trkpt>
      <trkpt lat="47.73332" lon="6.01186">
        <ele>265.39999389648</ele>
        <time>2012-09-05T08:29:04.000Z</time>
      </trkpt>
      <trkpt lat="47.73332" lon="6.01176">
        <ele>264.60000610352</ele>
        <time>2012-09-05T08:29:05.000Z</time>
      </trkpt>
      <trkpt lat="47.73334" lon="6.01157">
        <ele>264.60000610352</ele>
        <time>2012-09-05T08:29:07.000Z</time>
      </trkpt>
      <trkpt lat="47.73337" lon="6.01138">
        <ele>264.20001220703</ele>
        <time>2012-09-05T08:29:09.000Z</time>
      </trkpt>
      <trkpt lat="47.73339" lon="6.01128">
        <ele>263.79998779297</ele>
        <time>2012-09-05T08:29:10.000Z</time>
      </trkpt>
      <trkpt lat="47.73342" lon="6.01118">
        <ele>263.20001220703</ele>
        <time>2012-09-05T08:29:11.000Z</time>
      </trkpt>
      <trkpt lat="47.73346" lon="6.01108">
        <ele>262.79998779297</ele>
        <time>2012-09-05T08:29:12.000Z</time>
      </trkpt>
      <trkpt lat="47.7335" lon="6.01098">
        <ele>262.39999389648</ele>
        <time>2012-09-05T08:29:13.000Z</time>
      </trkpt>
      <trkpt lat="47.73365" lon="6.01059">
        <ele>262.39999389648</ele>
        <time>2012-09-05T08:29:17.000Z</time>
      </trkpt>
      <trkpt lat="47.73372" lon="6.01043">
        <ele>262</ele>
        <time>2012-09-05T08:29:19.000Z</time>
      </trkpt>
      <trkpt lat="47.73375" lon="6.01035">
        <ele>261.60000610352</ele>
        <time>2012-09-05T08:29:20.000Z</time>
      </trkpt>
      <trkpt lat="47.73378" lon="6.01028">
        <ele>261.20001220703</ele>
        <time>2012-09-05T08:29:21.000Z</time>
      </trkpt>
      <trkpt lat="47.7338" lon="6.01021">
        <ele>260.79998779297</ele>
        <time>2012-09-05T08:29:22.000Z</time>
      </trkpt>
      <trkpt lat="47.73382" lon="6.01014">
        <ele>260.39999389648</ele>
        <time>2012-09-05T08:29:23.000Z</time>
      </trkpt>
      <trkpt lat="47.73393" lon="6.00985">
        <ele>260.39999389648</ele>
        <time>2012-09-05T08:29:28.000Z</time>
      </trkpt>
      <trkpt lat="47.73394" lon="6.00978">
        <ele>260.39999389648</ele>
        <time>2012-09-05T08:29:32.000Z</time>
      </trkpt>
      <trkpt lat="47.73393" lon="6.00979">
        <ele>260.39999389648</ele>
        <time>2012-09-05T08:29:37.000Z</time>
      </trkpt>
      <trkpt lat="47.73393" lon="6.00979">
        <ele>260.39999389648</ele>
        <time>2012-09-05T08:29:38.000Z</time>
      </trkpt>
      <trkpt lat="47.73397" lon="6.00975">
        <ele>260.39999389648</ele>
        <time>2012-09-05T08:33:03.000Z</time>
      </trkpt>
      <trkpt lat="47.73401" lon="6.00964">
        <ele>260.39999389648</ele>
        <time>2012-09-05T08:33:07.000Z</time>
      </trkpt>
      <trkpt lat="47.73402" lon="6.0096">
        <ele>260.39999389648</ele>
        <time>2012-09-05T08:33:08.000Z</time>
      </trkpt>
      <trkpt lat="47.73409" lon="6.00939">
        <ele>260.39999389648</ele>
        <time>2012-09-05T08:33:13.000Z</time>
      </trkpt>
      <trkpt lat="47.73416" lon="6.00916">
        <ele>260.39999389648</ele>
        <time>2012-09-05T08:33:19.000Z</time>
      </trkpt>
      <trkpt lat="47.7343" lon="6.00892">
        <ele>260.39999389648</ele>
        <time>2012-09-05T08:33:26.000Z</time>
      </trkpt>
      <trkpt lat="47.7344" lon="6.0086">
        <ele>260.39999389648</ele>
        <time>2012-09-05T08:33:34.000Z</time>
      </trkpt>
      <trkpt lat="47.73446" lon="6.0084">
        <ele>260.79998779297</ele>
        <time>2012-09-05T08:33:39.000Z</time>
      </trkpt>
      <trkpt lat="47.73447" lon="6.00835">
        <ele>261.20001220703</ele>
        <time>2012-09-05T08:33:40.000Z</time>
      </trkpt>
      <trkpt lat="47.73448" lon="6.00831">
        <ele>261.60000610352</ele>
        <time>2012-09-05T08:33:41.000Z</time>
      </trkpt>
      <trkpt lat="47.73449" lon="6.00827">
        <ele>262</ele>
        <time>2012-09-05T08:33:42.000Z</time>
      </trkpt>
      <trkpt lat="47.7345" lon="6.00823">
        <ele>262.39999389648</ele>
        <time>2012-09-05T08:33:43.000Z</time>
      </trkpt>
      <trkpt lat="47.73451" lon="6.00819">
        <ele>262.39999389648</ele>
        <time>2012-09-05T08:33:44.000Z</time>
      </trkpt>
      <trkpt lat="47.73457" lon="6.00793">
        <ele>262.39999389648</ele>
        <time>2012-09-05T08:33:51.000Z</time>
      </trkpt>
      <trkpt lat="47.73462" lon="6.00771">
        <ele>262.39999389648</ele>
        <time>2012-09-05T08:33:58.000Z</time>
      </trkpt>
      <trkpt lat="47.73464" lon="6.00749">
        <ele>262.39999389648</ele>
        <time>2012-09-05T08:34:05.000Z</time>
      </trkpt>
      <trkpt lat="47.73467" lon="6.00724">
        <ele>262.39999389648</ele>
        <time>2012-09-05T08:34:11.000Z</time>
      </trkpt>
      <trkpt lat="47.7347" lon="6.0069">
        <ele>262.39999389648</ele>
        <time>2012-09-05T08:34:17.000Z</time>
      </trkpt>
      <trkpt lat="47.73473" lon="6.00665">
        <ele>262.39999389648</ele>
        <time>2012-09-05T08:34:21.000Z</time>
      </trkpt>
      <trkpt lat="47.73475" lon="6.00647">
        <ele>262.39999389648</ele>
        <time>2012-09-05T08:34:24.000Z</time>
      </trkpt>
      <trkpt lat="47.73478" lon="6.00621">
        <ele>262.39999389648</ele>
        <time>2012-09-05T08:34:29.000Z</time>
      </trkpt>
      <trkpt lat="47.73479" lon="6.00617">
        <ele>262.39999389648</ele>
        <time>2012-09-05T08:34:30.000Z</time>
      </trkpt>
      <trkpt lat="47.73482" lon="6.00604">
        <ele>262.79998779297</ele>
        <time>2012-09-05T08:34:33.000Z</time>
      </trkpt>
      <trkpt lat="47.73483" lon="6.00599">
        <ele>263.20001220703</ele>
        <time>2012-09-05T08:34:34.000Z</time>
      </trkpt>
      <trkpt lat="47.73483" lon="6.00594">
        <ele>263.60000610352</ele>
        <time>2012-09-05T08:34:35.000Z</time>
      </trkpt>
      <trkpt lat="47.73483" lon="6.00589">
        <ele>264</ele>
        <time>2012-09-05T08:34:36.000Z</time>
      </trkpt>
      <trkpt lat="47.73483" lon="6.00584">
        <ele>264.39999389648</ele>
        <time>2012-09-05T08:34:37.000Z</time>
      </trkpt>
      <trkpt lat="47.73483" lon="6.0055">
        <ele>264.39999389648</ele>
        <time>2012-09-05T08:34:44.000Z</time>
      </trkpt>
      <trkpt lat="47.73489" lon="6.00513">
        <ele>264.79998779297</ele>
        <time>2012-09-05T08:34:52.000Z</time>
      </trkpt>
      <trkpt lat="47.7349" lon="6.00509">
        <ele>265.20001220703</ele>
        <time>2012-09-05T08:34:53.000Z</time>
      </trkpt>
      <trkpt lat="47.73491" lon="6.00506">
        <ele>265.60000610352</ele>
        <time>2012-09-05T08:34:54.000Z</time>
      </trkpt>
      <trkpt lat="47.73491" lon="6.00502">
        <ele>266</ele>
        <time>2012-09-05T08:34:55.000Z</time>
      </trkpt>
      <trkpt lat="47.73492" lon="6.00499">
        <ele>266.39999389648</ele>
        <time>2012-09-05T08:34:56.000Z</time>
      </trkpt>
      <trkpt lat="47.73495" lon="6.00484">
        <ele>266.39999389648</ele>
        <time>2012-09-05T08:35:00.000Z</time>
      </trkpt>
      <trkpt lat="47.73498" lon="6.00467">
        <ele>266.39999389648</ele>
        <time>2012-09-05T08:35:05.000Z</time>
      </trkpt>
      <trkpt lat="47.73499" lon="6.00458">
        <ele>267</ele>
        <time>2012-09-05T08:35:08.000Z</time>
      </trkpt>
      <trkpt lat="47.735" lon="6.00455">
        <ele>267.39999389648</ele>
        <time>2012-09-05T08:35:09.000Z</time>
      </trkpt>
      <trkpt lat="47.73501" lon="6.00452">
        <ele>267.79998779297</ele>
        <time>2012-09-05T08:35:10.000Z</time>
      </trkpt>
      <trkpt lat="47.73501" lon="6.00448">
        <ele>268.20001220703</ele>
        <time>2012-09-05T08:35:11.000Z</time>
      </trkpt>
      <trkpt lat="47.73501" lon="6.00444">
        <ele>268.60000610352</ele>
        <time>2012-09-05T08:35:12.000Z</time>
      </trkpt>
      <trkpt lat="47.73504" lon="6.00423">
        <ele>268.60000610352</ele>
        <time>2012-09-05T08:35:17.000Z</time>
      </trkpt>
      <trkpt lat="47.73508" lon="6.00388">
        <ele>268.60000610352</ele>
        <time>2012-09-05T08:35:26.000Z</time>
      </trkpt>
      <trkpt lat="47.73511" lon="6.00357">
        <ele>268.60000610352</ele>
        <time>2012-09-05T08:35:32.000Z</time>
      </trkpt>
      <trkpt lat="47.73512" lon="6.00353">
        <ele>269</ele>
        <time>2012-09-05T08:35:33.000Z</time>
      </trkpt>
      <trkpt lat="47.73512" lon="6.00348">
        <ele>269.39999389648</ele>
        <time>2012-09-05T08:35:34.000Z</time>
      </trkpt>
      <trkpt lat="47.73512" lon="6.00345">
        <ele>269.79998779297</ele>
        <time>2012-09-05T08:35:35.000Z</time>
      </trkpt>
      <trkpt lat="47.73513" lon="6.00341">
        <ele>270.20001220703</ele>
        <time>2012-09-05T08:35:36.000Z</time>
      </trkpt>
      <trkpt lat="47.73514" lon="6.00337">
        <ele>270.60000610352</ele>
        <time>2012-09-05T08:35:37.000Z</time>
      </trkpt>
      <trkpt lat="47.73515" lon="6.00334">
        <ele>270.60000610352</ele>
        <time>2012-09-05T08:35:38.000Z</time>
      </trkpt>
      <trkpt lat="47.7352" lon="6.00317">
        <ele>270.60000610352</ele>
        <time>2012-09-05T08:35:44.000Z</time>
      </trkpt>
      <trkpt lat="47.73521" lon="6.00315">
        <ele>271</ele>
        <time>2012-09-05T08:35:45.000Z</time>
      </trkpt>
      <trkpt lat="47.73522" lon="6.00313">
        <ele>271.39999389648</ele>
        <time>2012-09-05T08:35:46.000Z</time>
      </trkpt>
      <trkpt lat="47.73524" lon="6.00311">
        <ele>271.79998779297</ele>
        <time>2012-09-05T08:35:47.000Z</time>
      </trkpt>
      <trkpt lat="47.73525" lon="6.00309">
        <ele>272.20001220703</ele>
        <time>2012-09-05T08:35:48.000Z</time>
      </trkpt>
      <trkpt lat="47.73526" lon="6.00307">
        <ele>272.60000610352</ele>
        <time>2012-09-05T08:35:49.000Z</time>
      </trkpt>
      <trkpt lat="47.7353" lon="6.00304">
        <ele>272.60000610352</ele>
        <time>2012-09-05T08:35:51.000Z</time>
      </trkpt>
      <trkpt lat="47.73532" lon="6.00302">
        <ele>272.60000610352</ele>
        <time>2012-09-05T08:35:52.000Z</time>
      </trkpt>
      <trkpt lat="47.73545" lon="6.00297">
        <ele>272.60000610352</ele>
        <time>2012-09-05T08:35:58.000Z</time>
      </trkpt>
      <trkpt lat="47.73564" lon="6.00295">
        <ele>272.60000610352</ele>
        <time>2012-09-05T08:36:05.000Z</time>
      </trkpt>
      <trkpt lat="47.73585" lon="6.00295">
        <ele>272.60000610352</ele>
        <time>2012-09-05T08:36:12.000Z</time>
      </trkpt>
      <trkpt lat="47.73605" lon="6.00289">
        <ele>272.60000610352</ele>
        <time>2012-09-05T08:36:19.000Z</time>
      </trkpt>
      <trkpt lat="47.73617" lon="6.00281">
        <ele>273.20001220703</ele>
        <time>2012-09-05T08:36:24.000Z</time>
      </trkpt>
      <trkpt lat="47.73619" lon="6.00278">
        <ele>273.60000610352</ele>
        <time>2012-09-05T08:36:25.000Z</time>
      </trkpt>
      <trkpt lat="47.73621" lon="6.00275">
        <ele>274</ele>
        <time>2012-09-05T08:36:26.000Z</time>
      </trkpt>
      <trkpt lat="47.73622" lon="6.00272">
        <ele>274.60000610352</ele>
        <time>2012-09-05T08:36:27.000Z</time>
      </trkpt>
      <trkpt lat="47.73624" lon="6.0027">
        <ele>275</ele>
        <time>2012-09-05T08:36:28.000Z</time>
      </trkpt>
      <trkpt lat="47.73631" lon="6.00261">
        <ele>275</ele>
        <time>2012-09-05T08:36:32.000Z</time>
      </trkpt>
      <trkpt lat="47.7364" lon="6.00246">
        <ele>275</ele>
        <time>2012-09-05T08:36:38.000Z</time>
      </trkpt>
      <trkpt lat="47.73647" lon="6.00233">
        <ele>275.39999389648</ele>
        <time>2012-09-05T08:36:43.000Z</time>
      </trkpt>
      <trkpt lat="47.73649" lon="6.0023">
        <ele>276</ele>
        <time>2012-09-05T08:36:44.000Z</time>
      </trkpt>
      <trkpt lat="47.7365" lon="6.00228">
        <ele>276.39999389648</ele>
        <time>2012-09-05T08:36:45.000Z</time>
      </trkpt>
      <trkpt lat="47.73651" lon="6.00225">
        <ele>276.79998779297</ele>
        <time>2012-09-05T08:36:46.000Z</time>
      </trkpt>
      <trkpt lat="47.73651" lon="6.00222">
        <ele>277.20001220703</ele>
        <time>2012-09-05T08:36:47.000Z</time>
      </trkpt>
      <trkpt lat="47.7365" lon="6.00218">
        <ele>277.20001220703</ele>
        <time>2012-09-05T08:36:49.000Z</time>
      </trkpt>
      <trkpt lat="47.73641" lon="6.0021">
        <ele>277.20001220703</ele>
        <time>2012-09-05T08:36:54.000Z</time>
      </trkpt>
      <trkpt lat="47.7364" lon="6.00207">
        <ele>277.60000610352</ele>
        <time>2012-09-05T08:36:55.000Z</time>
      </trkpt>
      <trkpt lat="47.73639" lon="6.00205">
        <ele>278.20001220703</ele>
        <time>2012-09-05T08:36:56.000Z</time>
      </trkpt>
      <trkpt lat="47.73637" lon="6.00204">
        <ele>278.60000610352</ele>
        <time>2012-09-05T08:36:57.000Z</time>
      </trkpt>
      <trkpt lat="47.73637" lon="6.00203">
        <ele>279</ele>
        <time>2012-09-05T08:36:58.000Z</time>
      </trkpt>
      <trkpt lat="47.73635" lon="6.00202">
        <ele>279.39999389648</ele>
        <time>2012-09-05T08:36:59.000Z</time>
      </trkpt>
      <trkpt lat="47.73634" lon="6.00201">
        <ele>279.39999389648</ele>
        <time>2012-09-05T08:37:00.000Z</time>
      </trkpt>
      <trkpt lat="47.73625" lon="6.00191">
        <ele>279.39999389648</ele>
        <time>2012-09-05T08:37:06.000Z</time>
      </trkpt>
      <trkpt lat="47.73619" lon="6.00187">
        <ele>279.79998779297</ele>
        <time>2012-09-05T08:37:09.000Z</time>
      </trkpt>
      <trkpt lat="47.73618" lon="6.00186">
        <ele>280.20001220703</ele>
        <time>2012-09-05T08:37:10.000Z</time>
      </trkpt>
      <trkpt lat="47.73616" lon="6.00184">
        <ele>280.60000610352</ele>
        <time>2012-09-05T08:37:11.000Z</time>
      </trkpt>
      <trkpt lat="47.73614" lon="6.00182">
        <ele>281</ele>
        <time>2012-09-05T08:37:12.000Z</time>
      </trkpt>
      <trkpt lat="47.73613" lon="6.00179">
        <ele>281.39999389648</ele>
        <time>2012-09-05T08:37:13.000Z</time>
      </trkpt>
      <trkpt lat="47.73604" lon="6.00171">
        <ele>281.39999389648</ele>
        <time>2012-09-05T08:37:19.000Z</time>
      </trkpt>
      <trkpt lat="47.73591" lon="6.0016">
        <ele>281.39999389648</ele>
        <time>2012-09-05T08:37:26.000Z</time>
      </trkpt>
      <trkpt lat="47.73586" lon="6.00155">
        <ele>282</ele>
        <time>2012-09-05T08:37:29.000Z</time>
      </trkpt>
      <trkpt lat="47.73584" lon="6.00155">
        <ele>282.60000610352</ele>
        <time>2012-09-05T08:37:30.000Z</time>
      </trkpt>
      <trkpt lat="47.73583" lon="6.00154">
        <ele>283.20001220703</ele>
        <time>2012-09-05T08:37:31.000Z</time>
      </trkpt>
      <trkpt lat="47.73581" lon="6.00153">
        <ele>283.79998779297</ele>
        <time>2012-09-05T08:37:32.000Z</time>
      </trkpt>
      <trkpt lat="47.73579" lon="6.00152">
        <ele>284.39999389648</ele>
        <time>2012-09-05T08:37:33.000Z</time>
      </trkpt>
      <trkpt lat="47.73564" lon="6.00143">
        <ele>284.39999389648</ele>
        <time>2012-09-05T08:37:41.000Z</time>
      </trkpt>
      <trkpt lat="47.73548" lon="6.00128">
        <ele>284.39999389648</ele>
        <time>2012-09-05T08:37:51.000Z</time>
      </trkpt>
      <trkpt lat="47.73539" lon="6.00113">
        <ele>284.39999389648</ele>
        <time>2012-09-05T08:37:59.000Z</time>
      </trkpt>
      <trkpt lat="47.73535" lon="6.00098">
        <ele>284.39999389648</ele>
        <time>2012-09-05T08:38:05.000Z</time>
      </trkpt>
      <trkpt lat="47.73535" lon="6.00095">
        <ele>284.39999389648</ele>
        <time>2012-09-05T08:38:06.000Z</time>
      </trkpt>
      <trkpt lat="47.73533" lon="6.00087">
        <ele>285.20001220703</ele>
        <time>2012-09-05T08:38:09.000Z</time>
      </trkpt>
      <trkpt lat="47.73532" lon="6.00085">
        <ele>285.60000610352</ele>
        <time>2012-09-05T08:38:10.000Z</time>
      </trkpt>
      <trkpt lat="47.73532" lon="6.00083">
        <ele>286</ele>
        <time>2012-09-05T08:38:11.000Z</time>
      </trkpt>
      <trkpt lat="47.73532" lon="6.0008">
        <ele>286.39999389648</ele>
        <time>2012-09-05T08:38:12.000Z</time>
      </trkpt>
      <trkpt lat="47.7353" lon="6.00064">
        <ele>286.39999389648</ele>
        <time>2012-09-05T08:38:17.000Z</time>
      </trkpt>
      <trkpt lat="47.73525" lon="6.00045">
        <ele>286.39999389648</ele>
        <time>2012-09-05T08:38:24.000Z</time>
      </trkpt>
      <trkpt lat="47.73523" lon="6.00041">
        <ele>286.39999389648</ele>
        <time>2012-09-05T08:38:26.000Z</time>
      </trkpt>
      <trkpt lat="47.73522" lon="6.00042">
        <ele>286.39999389648</ele>
        <time>2012-09-05T08:38:28.000Z</time>
      </trkpt>
      <trkpt lat="47.73521" lon="6.0004">
        <ele>286.39999389648</ele>
        <time>2012-09-05T08:38:57.000Z</time>
      </trkpt>
      <trkpt lat="47.73519" lon="6.00039">
        <ele>286.39999389648</ele>
        <time>2012-09-05T08:38:58.000Z</time>
      </trkpt>
      <trkpt lat="47.73509" lon="6.00035">
        <ele>286.39999389648</ele>
        <time>2012-09-05T08:39:02.000Z</time>
      </trkpt>
      <trkpt lat="47.73492" lon="6.00032">
        <ele>286.39999389648</ele>
        <time>2012-09-05T08:39:07.000Z</time>
      </trkpt>
      <trkpt lat="47.73482" lon="6.00029">
        <ele>286.39999389648</ele>
        <time>2012-09-05T08:39:10.000Z</time>
      </trkpt>
      <trkpt lat="47.73472" lon="6.00027">
        <ele>286.39999389648</ele>
        <time>2012-09-05T08:39:13.000Z</time>
      </trkpt>
      <trkpt lat="47.73443" lon="6.00021">
        <ele>286.39999389648</ele>
        <time>2012-09-05T08:39:21.000Z</time>
      </trkpt>
      <trkpt lat="47.73414" lon="6.00016">
        <ele>286.39999389648</ele>
        <time>2012-09-05T08:39:29.000Z</time>
      </trkpt>
      <trkpt lat="47.73388" lon="6.00018">
        <ele>286.39999389648</ele>
        <time>2012-09-05T08:39:37.000Z</time>
      </trkpt>
      <trkpt lat="47.73376" lon="6.0002">
        <ele>286.39999389648</ele>
        <time>2012-09-05T08:39:42.000Z</time>
      </trkpt>
      <trkpt lat="47.73374" lon="6.00021">
        <ele>286.39999389648</ele>
        <time>2012-09-05T08:39:43.000Z</time>
      </trkpt>
      <trkpt lat="47.73366" lon="6.00017">
        <ele>286.79998779297</ele>
        <time>2012-09-05T08:39:47.000Z</time>
      </trkpt>
      <trkpt lat="47.73364" lon="6.00017">
        <ele>287.60000610352</ele>
        <time>2012-09-05T08:39:48.000Z</time>
      </trkpt>
      <trkpt lat="47.73362" lon="6.00016">
        <ele>288</ele>
        <time>2012-09-05T08:39:49.000Z</time>
      </trkpt>
      <trkpt lat="47.7336" lon="6.00016">
        <ele>288.39999389648</ele>
        <time>2012-09-05T08:39:50.000Z</time>
      </trkpt>
      <trkpt lat="47.73355" lon="6.00019">
        <ele>288.39999389648</ele>
        <time>2012-09-05T08:39:53.000Z</time>
      </trkpt>
      <trkpt lat="47.73349" lon="6.00017">
        <ele>288.39999389648</ele>
        <time>2012-09-05T08:39:56.000Z</time>
      </trkpt>
      <trkpt lat="47.73345" lon="6.00013">
        <ele>288.39999389648</ele>
        <time>2012-09-05T08:39:58.000Z</time>
      </trkpt>
      <trkpt lat="47.73335" lon="6.00007">
        <ele>288.39999389648</ele>
        <time>2012-09-05T08:40:03.000Z</time>
      </trkpt>
      <trkpt lat="47.73325" lon="6.00003">
        <ele>288.79998779297</ele>
        <time>2012-09-05T08:40:08.000Z</time>
      </trkpt>
      <trkpt lat="47.73323" lon="6.00003">
        <ele>289.20001220703</ele>
        <time>2012-09-05T08:40:09.000Z</time>
      </trkpt>
      <trkpt lat="47.73321" lon="6.00003">
        <ele>289.60000610352</ele>
        <time>2012-09-05T08:40:10.000Z</time>
      </trkpt>
      <trkpt lat="47.73319" lon="6.00002">
        <ele>290</ele>
        <time>2012-09-05T08:40:11.000Z</time>
      </trkpt>
      <trkpt lat="47.73316" lon="6.00003">
        <ele>290.39999389648</ele>
        <time>2012-09-05T08:40:12.000Z</time>
      </trkpt>
      <trkpt lat="47.73311" lon="6.00002">
        <ele>290.39999389648</ele>
        <time>2012-09-05T08:40:14.000Z</time>
      </trkpt>
      <trkpt lat="47.73297" lon="5.99997">
        <ele>290.39999389648</ele>
        <time>2012-09-05T08:40:20.000Z</time>
      </trkpt>
      <trkpt lat="47.73286" lon="5.99994">
        <ele>290.39999389648</ele>
        <time>2012-09-05T08:40:25.000Z</time>
      </trkpt>
      <trkpt lat="47.73265" lon="5.9999">
        <ele>290.39999389648</ele>
        <time>2012-09-05T08:40:33.000Z</time>
      </trkpt>
      <trkpt lat="47.73246" lon="5.99988">
        <ele>290.39999389648</ele>
        <time>2012-09-05T08:40:39.000Z</time>
      </trkpt>
      <trkpt lat="47.73242" lon="5.99987">
        <ele>290.39999389648</ele>
        <time>2012-09-05T08:40:40.000Z</time>
      </trkpt>
      <trkpt lat="47.73235" lon="5.99985">
        <ele>290.79998779297</ele>
        <time>2012-09-05T08:40:42.000Z</time>
      </trkpt>
      <trkpt lat="47.73232" lon="5.99985">
        <ele>291.20001220703</ele>
        <time>2012-09-05T08:40:43.000Z</time>
      </trkpt>
      <trkpt lat="47.73229" lon="5.99985">
        <ele>291.60000610352</ele>
        <time>2012-09-05T08:40:44.000Z</time>
      </trkpt>
      <trkpt lat="47.73226" lon="5.99986">
        <ele>292</ele>
        <time>2012-09-05T08:40:45.000Z</time>
      </trkpt>
      <trkpt lat="47.73225" lon="5.99986">
        <ele>292.60000610352</ele>
        <time>2012-09-05T08:40:46.000Z</time>
      </trkpt>
      <trkpt lat="47.73219" lon="5.99988">
        <ele>292.60000610352</ele>
        <time>2012-09-05T08:40:49.000Z</time>
      </trkpt>
      <trkpt lat="47.73213" lon="5.99988">
        <ele>293</ele>
        <time>2012-09-05T08:40:54.000Z</time>
      </trkpt>
      <trkpt lat="47.73212" lon="5.99988">
        <ele>293.39999389648</ele>
        <time>2012-09-05T08:40:55.000Z</time>
      </trkpt>
      <trkpt lat="47.7321" lon="5.99988">
        <ele>293.79998779297</ele>
        <time>2012-09-05T08:40:56.000Z</time>
      </trkpt>
      <trkpt lat="47.73209" lon="5.99988">
        <ele>294.20001220703</ele>
        <time>2012-09-05T08:40:57.000Z</time>
      </trkpt>
      <trkpt lat="47.73207" lon="5.99987">
        <ele>294.60000610352</ele>
        <time>2012-09-05T08:40:58.000Z</time>
      </trkpt>
      <trkpt lat="47.73196" lon="5.99985">
        <ele>295</ele>
        <time>2012-09-05T08:41:05.000Z</time>
      </trkpt>
      <trkpt lat="47.73194" lon="5.99984">
        <ele>295.39999389648</ele>
        <time>2012-09-05T08:41:06.000Z</time>
      </trkpt>
      <trkpt lat="47.73193" lon="5.99983">
        <ele>295.79998779297</ele>
        <time>2012-09-05T08:41:07.000Z</time>
      </trkpt>
      <trkpt lat="47.73192" lon="5.99981">
        <ele>296.20001220703</ele>
        <time>2012-09-05T08:41:08.000Z</time>
      </trkpt>
      <trkpt lat="47.73191" lon="5.9998">
        <ele>296.79998779297</ele>
        <time>2012-09-05T08:41:09.000Z</time>
      </trkpt>
      <trkpt lat="47.73188" lon="5.99979">
        <ele>296.79998779297</ele>
        <time>2012-09-05T08:41:11.000Z</time>
      </trkpt>
      <trkpt lat="47.7318" lon="5.99977">
        <ele>297.20001220703</ele>
        <time>2012-09-05T08:41:18.000Z</time>
      </trkpt>
      <trkpt lat="47.7318" lon="5.99977">
        <ele>297.60000610352</ele>
        <time>2012-09-05T08:41:19.000Z</time>
      </trkpt>
      <trkpt lat="47.73178" lon="5.99976">
        <ele>298</ele>
        <time>2012-09-05T08:41:20.000Z</time>
      </trkpt>
      <trkpt lat="47.73177" lon="5.99975">
        <ele>298.39999389648</ele>
        <time>2012-09-05T08:41:21.000Z</time>
      </trkpt>
      <trkpt lat="47.73176" lon="5.99974">
        <ele>298.79998779297</ele>
        <time>2012-09-05T08:41:22.000Z</time>
      </trkpt>
      <trkpt lat="47.7317" lon="5.99969">
        <ele>298.79998779297</ele>
        <time>2012-09-05T08:41:28.000Z</time>
      </trkpt>
      <trkpt lat="47.73165" lon="5.99966">
        <ele>299.20001220703</ele>
        <time>2012-09-05T08:41:32.000Z</time>
      </trkpt>
      <trkpt lat="47.73164" lon="5.99965">
        <ele>299.60000610352</ele>
        <time>2012-09-05T08:41:33.000Z</time>
      </trkpt>
      <trkpt lat="47.73163" lon="5.99964">
        <ele>300</ele>
        <time>2012-09-05T08:41:34.000Z</time>
      </trkpt>
      <trkpt lat="47.73162" lon="5.99963">
        <ele>300.39999389648</ele>
        <time>2012-09-05T08:41:35.000Z</time>
      </trkpt>
      <trkpt lat="47.7316" lon="5.99961">
        <ele>300.79998779297</ele>
        <time>2012-09-05T08:41:36.000Z</time>
      </trkpt>
      <trkpt lat="47.73152" lon="5.99956">
        <ele>300.79998779297</ele>
        <time>2012-09-05T08:41:43.000Z</time>
      </trkpt>
      <trkpt lat="47.7315" lon="5.99955">
        <ele>300.79998779297</ele>
        <time>2012-09-05T08:41:45.000Z</time>
      </trkpt>
      <trkpt lat="47.73146" lon="5.99949">
        <ele>300.79998779297</ele>
        <time>2012-09-05T08:41:49.000Z</time>
      </trkpt>
      <trkpt lat="47.73139" lon="5.9994">
        <ele>301.20001220703</ele>
        <time>2012-09-05T08:41:54.000Z</time>
      </trkpt>
      <trkpt lat="47.73136" lon="5.99939">
        <ele>301.60000610352</ele>
        <time>2012-09-05T08:41:55.000Z</time>
      </trkpt>
      <trkpt lat="47.73134" lon="5.99937">
        <ele>302.20001220703</ele>
        <time>2012-09-05T08:41:56.000Z</time>
      </trkpt>
      <trkpt lat="47.73132" lon="5.99936">
        <ele>302.60000610352</ele>
        <time>2012-09-05T08:41:57.000Z</time>
      </trkpt>
      <trkpt lat="47.73131" lon="5.99935">
        <ele>303</ele>
        <time>2012-09-05T08:41:58.000Z</time>
      </trkpt>
      <trkpt lat="47.73125" lon="5.99931">
        <ele>303</ele>
        <time>2012-09-05T08:42:03.000Z</time>
      </trkpt>
      <trkpt lat="47.73112" lon="5.99923">
        <ele>303</ele>
        <time>2012-09-05T08:42:09.000Z</time>
      </trkpt>
      <trkpt lat="47.73097" lon="5.99917">
        <ele>303</ele>
        <time>2012-09-05T08:42:15.000Z</time>
      </trkpt>
      <trkpt lat="47.73086" lon="5.99909">
        <ele>303</ele>
        <time>2012-09-05T08:42:21.000Z</time>
      </trkpt>
      <trkpt lat="47.73073" lon="5.99899">
        <ele>303</ele>
        <time>2012-09-05T08:42:27.000Z</time>
      </trkpt>
      <trkpt lat="47.73069" lon="5.99893">
        <ele>303</ele>
        <time>2012-09-05T08:42:29.000Z</time>
      </trkpt>
      <trkpt lat="47.73063" lon="5.99884">
        <ele>303</ele>
        <time>2012-09-05T08:42:32.000Z</time>
      </trkpt>
      <trkpt lat="47.73061" lon="5.99882">
        <ele>303</ele>
        <time>2012-09-05T08:42:33.000Z</time>
      </trkpt>
      <trkpt lat="47.73048" lon="5.99864">
        <ele>303</ele>
        <time>2012-09-05T08:42:39.000Z</time>
      </trkpt>
      <trkpt lat="47.73036" lon="5.99851">
        <ele>303</ele>
        <time>2012-09-05T08:42:45.000Z</time>
      </trkpt>
      <trkpt lat="47.73032" lon="5.99848">
        <ele>303.39999389648</ele>
        <time>2012-09-05T08:42:47.000Z</time>
      </trkpt>
      <trkpt lat="47.7303" lon="5.99846">
        <ele>304</ele>
        <time>2012-09-05T08:42:48.000Z</time>
      </trkpt>
      <trkpt lat="47.73028" lon="5.99845">
        <ele>304.39999389648</ele>
        <time>2012-09-05T08:42:49.000Z</time>
      </trkpt>
      <trkpt lat="47.73026" lon="5.99844">
        <ele>304.79998779297</ele>
        <time>2012-09-05T08:42:50.000Z</time>
      </trkpt>
      <trkpt lat="47.73025" lon="5.99842">
        <ele>305.20001220703</ele>
        <time>2012-09-05T08:42:51.000Z</time>
      </trkpt>
      <trkpt lat="47.73023" lon="5.99841">
        <ele>305.20001220703</ele>
        <time>2012-09-05T08:42:52.000Z</time>
      </trkpt>
      <trkpt lat="47.73005" lon="5.99829">
        <ele>305.60000610352</ele>
        <time>2012-09-05T08:43:00.000Z</time>
      </trkpt>
      <trkpt lat="47.73003" lon="5.99828">
        <ele>306</ele>
        <time>2012-09-05T08:43:01.000Z</time>
      </trkpt>
      <trkpt lat="47.73001" lon="5.99827">
        <ele>306.39999389648</ele>
        <time>2012-09-05T08:43:02.000Z</time>
      </trkpt>
      <trkpt lat="47.72998" lon="5.99825">
        <ele>306.79998779297</ele>
        <time>2012-09-05T08:43:03.000Z</time>
      </trkpt>
      <trkpt lat="47.72997" lon="5.99824">
        <ele>307.20001220703</ele>
        <time>2012-09-05T08:43:04.000Z</time>
      </trkpt>
      <trkpt lat="47.72993" lon="5.99821">
        <ele>307.20001220703</ele>
        <time>2012-09-05T08:43:07.000Z</time>
      </trkpt>
      <trkpt lat="47.72985" lon="5.9982">
        <ele>307.20001220703</ele>
        <time>2012-09-05T08:43:13.000Z</time>
      </trkpt>
      <trkpt lat="47.72984" lon="5.9982">
        <ele>307.20001220703</ele>
        <time>2012-09-05T08:43:14.000Z</time>
      </trkpt>
      <trkpt lat="47.72957" lon="5.99813">
        <ele>309.39999389648</ele>
        <time>2012-09-05T08:46:12.000Z</time>
      </trkpt>
      <trkpt lat="47.72952" lon="5.99813">
        <ele>309.39999389648</ele>
        <time>2012-09-05T08:46:15.000Z</time>
      </trkpt>
      <trkpt lat="47.7294" lon="5.99813">
        <ele>309.39999389648</ele>
        <time>2012-09-05T08:46:22.000Z</time>
      </trkpt>
      <trkpt lat="47.72926" lon="5.99813">
        <ele>309.39999389648</ele>
        <time>2012-09-05T08:46:28.000Z</time>
      </trkpt>
      <trkpt lat="47.72914" lon="5.99812">
        <ele>309.39999389648</ele>
        <time>2012-09-05T08:46:34.000Z</time>
      </trkpt>
      <trkpt lat="47.72896" lon="5.99813">
        <ele>309.39999389648</ele>
        <time>2012-09-05T08:46:41.000Z</time>
      </trkpt>
      <trkpt lat="47.72881" lon="5.99814">
        <ele>309.39999389648</ele>
        <time>2012-09-05T08:46:47.000Z</time>
      </trkpt>
      <trkpt lat="47.72869" lon="5.99818">
        <ele>309.39999389648</ele>
        <time>2012-09-05T08:46:54.000Z</time>
      </trkpt>
      <trkpt lat="47.72854" lon="5.9982">
        <ele>309.39999389648</ele>
        <time>2012-09-05T08:47:01.000Z</time>
      </trkpt>
      <trkpt lat="47.72836" lon="5.99821">
        <ele>309.39999389648</ele>
        <time>2012-09-05T08:47:06.000Z</time>
      </trkpt>
      <trkpt lat="47.72815" lon="5.99822">
        <ele>309.39999389648</ele>
        <time>2012-09-05T08:47:11.000Z</time>
      </trkpt>
      <trkpt lat="47.72799" lon="5.99832">
        <ele>309.39999389648</ele>
        <time>2012-09-05T08:47:15.000Z</time>
      </trkpt>
      <trkpt lat="47.72776" lon="5.99838">
        <ele>309.39999389648</ele>
        <time>2012-09-05T08:47:20.000Z</time>
      </trkpt>
      <trkpt lat="47.72754" lon="5.99833">
        <ele>309.39999389648</ele>
        <time>2012-09-05T08:47:26.000Z</time>
      </trkpt>
      <trkpt lat="47.7274" lon="5.99825">
        <ele>309.39999389648</ele>
        <time>2012-09-05T08:47:34.000Z</time>
      </trkpt>
      <trkpt lat="47.72733" lon="5.99818">
        <ele>309.39999389648</ele>
        <time>2012-09-05T08:47:40.000Z</time>
      </trkpt>
      <trkpt lat="47.72731" lon="5.99815">
        <ele>309.39999389648</ele>
        <time>2012-09-05T08:47:42.000Z</time>
      </trkpt>
      <trkpt lat="47.72724" lon="5.9981">
        <ele>309.79998779297</ele>
        <time>2012-09-05T08:47:46.000Z</time>
      </trkpt>
      <trkpt lat="47.72723" lon="5.99809">
        <ele>310.20001220703</ele>
        <time>2012-09-05T08:47:47.000Z</time>
      </trkpt>
      <trkpt lat="47.72721" lon="5.99807">
        <ele>310.60000610352</ele>
        <time>2012-09-05T08:47:48.000Z</time>
      </trkpt>
      <trkpt lat="47.72718" lon="5.99805">
        <ele>311</ele>
        <time>2012-09-05T08:47:49.000Z</time>
      </trkpt>
      <trkpt lat="47.72716" lon="5.99803">
        <ele>311.60000610352</ele>
        <time>2012-09-05T08:47:50.000Z</time>
      </trkpt>
      <trkpt lat="47.72697" lon="5.99791">
        <ele>311.60000610352</ele>
        <time>2012-09-05T08:47:57.000Z</time>
      </trkpt>
      <trkpt lat="47.72683" lon="5.99783">
        <ele>311.60000610352</ele>
        <time>2012-09-05T08:48:03.000Z</time>
      </trkpt>
      <trkpt lat="47.72672" lon="5.99776">
        <ele>311.60000610352</ele>
        <time>2012-09-05T08:48:07.000Z</time>
      </trkpt>
      <trkpt lat="47.72663" lon="5.99769">
        <ele>312</ele>
        <time>2012-09-05T08:48:11.000Z</time>
      </trkpt>
      <trkpt lat="47.72661" lon="5.99768">
        <ele>312.39999389648</ele>
        <time>2012-09-05T08:48:12.000Z</time>
      </trkpt>
      <trkpt lat="47.72659" lon="5.99767">
        <ele>312.79998779297</ele>
        <time>2012-09-05T08:48:13.000Z</time>
      </trkpt>
      <trkpt lat="47.72657" lon="5.99766">
        <ele>313.20001220703</ele>
        <time>2012-09-05T08:48:14.000Z</time>
      </trkpt>
      <trkpt lat="47.72655" lon="5.99764">
        <ele>313.60000610352</ele>
        <time>2012-09-05T08:48:15.000Z</time>
      </trkpt>
      <trkpt lat="47.72646" lon="5.99755">
        <ele>313.60000610352</ele>
        <time>2012-09-05T08:48:20.000Z</time>
      </trkpt>
      <trkpt lat="47.72639" lon="5.99746">
        <ele>313.60000610352</ele>
        <time>2012-09-05T08:48:26.000Z</time>
      </trkpt>
      <trkpt lat="47.72629" lon="5.99735">
        <ele>313.60000610352</ele>
        <time>2012-09-05T08:48:33.000Z</time>
      </trkpt>
      <trkpt lat="47.72626" lon="5.99734">
        <ele>313.60000610352</ele>
        <time>2012-09-05T08:48:34.000Z</time>
      </trkpt>
      <trkpt lat="47.72614" lon="5.99726">
        <ele>313.60000610352</ele>
        <time>2012-09-05T08:48:39.000Z</time>
      </trkpt>
      <trkpt lat="47.72608" lon="5.99722">
        <ele>313.60000610352</ele>
        <time>2012-09-05T08:48:41.000Z</time>
      </trkpt>
      <trkpt lat="47.72596" lon="5.99713">
        <ele>313.60000610352</ele>
        <time>2012-09-05T08:48:46.000Z</time>
      </trkpt>
      <trkpt lat="47.72585" lon="5.99702">
        <ele>313.60000610352</ele>
        <time>2012-09-05T08:48:53.000Z</time>
      </trkpt>
      <trkpt lat="47.72568" lon="5.99688">
        <ele>313.60000610352</ele>
        <time>2012-09-05T08:49:00.000Z</time>
      </trkpt>
      <trkpt lat="47.72546" lon="5.99672">
        <ele>313.60000610352</ele>
        <time>2012-09-05T08:49:08.000Z</time>
      </trkpt>
      <trkpt lat="47.72533" lon="5.99662">
        <ele>313.60000610352</ele>
        <time>2012-09-05T08:49:14.000Z</time>
      </trkpt>
      <trkpt lat="47.72515" lon="5.99649">
        <ele>313.60000610352</ele>
        <time>2012-09-05T08:49:21.000Z</time>
      </trkpt>
      <trkpt lat="47.72493" lon="5.99639">
        <ele>313.60000610352</ele>
        <time>2012-09-05T08:49:28.000Z</time>
      </trkpt>
      <trkpt lat="47.7247" lon="5.99624">
        <ele>313.60000610352</ele>
        <time>2012-09-05T08:49:35.000Z</time>
      </trkpt>
      <trkpt lat="47.72451" lon="5.99621">
        <ele>313.60000610352</ele>
        <time>2012-09-05T08:49:42.000Z</time>
      </trkpt>
      <trkpt lat="47.72435" lon="5.99621">
        <ele>313.60000610352</ele>
        <time>2012-09-05T08:49:48.000Z</time>
      </trkpt>
      <trkpt lat="47.7241" lon="5.99622">
        <ele>313.60000610352</ele>
        <time>2012-09-05T08:49:55.000Z</time>
      </trkpt>
      <trkpt lat="47.72395" lon="5.99629">
        <ele>313.60000610352</ele>
        <time>2012-09-05T08:50:01.000Z</time>
      </trkpt>
      <trkpt lat="47.72382" lon="5.99642">
        <ele>313.60000610352</ele>
        <time>2012-09-05T08:50:08.000Z</time>
      </trkpt>
      <trkpt lat="47.72367" lon="5.9965">
        <ele>313.60000610352</ele>
        <time>2012-09-05T08:50:15.000Z</time>
      </trkpt>
      <trkpt lat="47.72354" lon="5.99656">
        <ele>313.60000610352</ele>
        <time>2012-09-05T08:50:20.000Z</time>
      </trkpt>
      <trkpt lat="47.72338" lon="5.9966">
        <ele>313.60000610352</ele>
        <time>2012-09-05T08:50:26.000Z</time>
      </trkpt>
      <trkpt lat="47.72326" lon="5.99668">
        <ele>313.60000610352</ele>
        <time>2012-09-05T08:50:32.000Z</time>
      </trkpt>
      <trkpt lat="47.72324" lon="5.99669">
        <ele>314</ele>
        <time>2012-09-05T08:50:33.000Z</time>
      </trkpt>
      <trkpt lat="47.72322" lon="5.99671">
        <ele>314.39999389648</ele>
        <time>2012-09-05T08:50:34.000Z</time>
      </trkpt>
      <trkpt lat="47.72319" lon="5.99672">
        <ele>314.79998779297</ele>
        <time>2012-09-05T08:50:35.000Z</time>
      </trkpt>
      <trkpt lat="47.72316" lon="5.99673">
        <ele>315.20001220703</ele>
        <time>2012-09-05T08:50:36.000Z</time>
      </trkpt>
      <trkpt lat="47.72314" lon="5.99675">
        <ele>315.60000610352</ele>
        <time>2012-09-05T08:50:37.000Z</time>
      </trkpt>
      <trkpt lat="47.72307" lon="5.99678">
        <ele>315.60000610352</ele>
        <time>2012-09-05T08:50:40.000Z</time>
      </trkpt>
      <trkpt lat="47.7229" lon="5.99685">
        <ele>315.60000610352</ele>
        <time>2012-09-05T08:50:47.000Z</time>
      </trkpt>
      <trkpt lat="47.72276" lon="5.9969">
        <ele>315.60000610352</ele>
        <time>2012-09-05T08:50:55.000Z</time>
      </trkpt>
      <trkpt lat="47.72266" lon="5.99693">
        <ele>316</ele>
        <time>2012-09-05T08:51:00.000Z</time>
      </trkpt>
      <trkpt lat="47.72265" lon="5.99694">
        <ele>316.39999389648</ele>
        <time>2012-09-05T08:51:01.000Z</time>
      </trkpt>
      <trkpt lat="47.72263" lon="5.99694">
        <ele>317</ele>
        <time>2012-09-05T08:51:02.000Z</time>
      </trkpt>
      <trkpt lat="47.72261" lon="5.99695">
        <ele>317.39999389648</ele>
        <time>2012-09-05T08:51:03.000Z</time>
      </trkpt>
      <trkpt lat="47.72259" lon="5.99696">
        <ele>317.79998779297</ele>
        <time>2012-09-05T08:51:04.000Z</time>
      </trkpt>
      <trkpt lat="47.7225" lon="5.99699">
        <ele>317.79998779297</ele>
        <time>2012-09-05T08:51:09.000Z</time>
      </trkpt>
      <trkpt lat="47.72239" lon="5.99699">
        <ele>318.20001220703</ele>
        <time>2012-09-05T08:51:16.000Z</time>
      </trkpt>
      <trkpt lat="47.72238" lon="5.99699">
        <ele>318.60000610352</ele>
        <time>2012-09-05T08:51:17.000Z</time>
      </trkpt>
      <trkpt lat="47.72237" lon="5.997">
        <ele>319</ele>
        <time>2012-09-05T08:51:18.000Z</time>
      </trkpt>
      <trkpt lat="47.72235" lon="5.99699">
        <ele>319.39999389648</ele>
        <time>2012-09-05T08:51:19.000Z</time>
      </trkpt>
      <trkpt lat="47.72234" lon="5.99699">
        <ele>319.79998779297</ele>
        <time>2012-09-05T08:51:20.000Z</time>
      </trkpt>
      <trkpt lat="47.72232" lon="5.99698">
        <ele>319.79998779297</ele>
        <time>2012-09-05T08:51:21.000Z</time>
      </trkpt>
      <trkpt lat="47.72227" lon="5.99698">
        <ele>319.79998779297</ele>
        <time>2012-09-05T08:51:24.000Z</time>
      </trkpt>
      <trkpt lat="47.72225" lon="5.99698">
        <ele>319.79998779297</ele>
        <time>2012-09-05T08:51:25.000Z</time>
      </trkpt>
      <trkpt lat="47.72219" lon="5.99698">
        <ele>320.20001220703</ele>
        <time>2012-09-05T08:51:29.000Z</time>
      </trkpt>
      <trkpt lat="47.72217" lon="5.99698">
        <ele>320.60000610352</ele>
        <time>2012-09-05T08:51:30.000Z</time>
      </trkpt>
      <trkpt lat="47.72215" lon="5.99698">
        <ele>321</ele>
        <time>2012-09-05T08:51:31.000Z</time>
      </trkpt>
      <trkpt lat="47.72213" lon="5.99699">
        <ele>321.39999389648</ele>
        <time>2012-09-05T08:51:32.000Z</time>
      </trkpt>
      <trkpt lat="47.72211" lon="5.99699">
        <ele>321.79998779297</ele>
        <time>2012-09-05T08:51:33.000Z</time>
      </trkpt>
      <trkpt lat="47.72198" lon="5.99698">
        <ele>321.79998779297</ele>
        <time>2012-09-05T08:51:41.000Z</time>
      </trkpt>
      <trkpt lat="47.72184" lon="5.99698">
        <ele>321.79998779297</ele>
        <time>2012-09-05T08:51:48.000Z</time>
      </trkpt>
      <trkpt lat="47.72169" lon="5.99697">
        <ele>321.79998779297</ele>
        <time>2012-09-05T08:51:55.000Z</time>
      </trkpt>
      <trkpt lat="47.72161" lon="5.99694">
        <ele>321.79998779297</ele>
        <time>2012-09-05T08:52:00.000Z</time>
      </trkpt>
      <trkpt lat="47.72144" lon="5.99691">
        <ele>321.79998779297</ele>
        <time>2012-09-05T08:52:06.000Z</time>
      </trkpt>
      <trkpt lat="47.72125" lon="5.9969">
        <ele>321.79998779297</ele>
        <time>2012-09-05T08:52:10.000Z</time>
      </trkpt>
      <trkpt lat="47.721" lon="5.99684">
        <ele>321.79998779297</ele>
        <time>2012-09-05T08:52:15.000Z</time>
      </trkpt>
      <trkpt lat="47.72079" lon="5.99682">
        <ele>321.79998779297</ele>
        <time>2012-09-05T08:52:20.000Z</time>
      </trkpt>
      <trkpt lat="47.72053" lon="5.99677">
        <ele>321.79998779297</ele>
        <time>2012-09-05T08:52:26.000Z</time>
      </trkpt>
      <trkpt lat="47.72035" lon="5.99672">
        <ele>321.79998779297</ele>
        <time>2012-09-05T08:52:31.000Z</time>
      </trkpt>
      <trkpt lat="47.72013" lon="5.99669">
        <ele>321.79998779297</ele>
        <time>2012-09-05T08:52:36.000Z</time>
      </trkpt>
      <trkpt lat="47.71976" lon="5.99663">
        <ele>321.79998779297</ele>
        <time>2012-09-05T08:52:44.000Z</time>
      </trkpt>
      <trkpt lat="47.71948" lon="5.99655">
        <ele>321.79998779297</ele>
        <time>2012-09-05T08:52:50.000Z</time>
      </trkpt>
      <trkpt lat="47.71926" lon="5.99652">
        <ele>321.39999389648</ele>
        <time>2012-09-05T08:52:55.000Z</time>
      </trkpt>
      <trkpt lat="47.71921" lon="5.99651">
        <ele>321</ele>
        <time>2012-09-05T08:52:56.000Z</time>
      </trkpt>
      <trkpt lat="47.71917" lon="5.9965">
        <ele>320.60000610352</ele>
        <time>2012-09-05T08:52:57.000Z</time>
      </trkpt>
      <trkpt lat="47.71913" lon="5.99649">
        <ele>320.20001220703</ele>
        <time>2012-09-05T08:52:58.000Z</time>
      </trkpt>
      <trkpt lat="47.71909" lon="5.99648">
        <ele>319.79998779297</ele>
        <time>2012-09-05T08:52:59.000Z</time>
      </trkpt>
      <trkpt lat="47.71892" lon="5.99644">
        <ele>319.79998779297</ele>
        <time>2012-09-05T08:53:03.000Z</time>
      </trkpt>
      <trkpt lat="47.71866" lon="5.9964">
        <ele>319.79998779297</ele>
        <time>2012-09-05T08:53:09.000Z</time>
      </trkpt>
      <trkpt lat="47.71841" lon="5.99636">
        <ele>319.79998779297</ele>
        <time>2012-09-05T08:53:16.000Z</time>
      </trkpt>
      <trkpt lat="47.71834" lon="5.99636">
        <ele>319.39999389648</ele>
        <time>2012-09-05T08:53:18.000Z</time>
      </trkpt>
      <trkpt lat="47.7183" lon="5.99635">
        <ele>319</ele>
        <time>2012-09-05T08:53:19.000Z</time>
      </trkpt>
      <trkpt lat="47.71826" lon="5.99635">
        <ele>318.60000610352</ele>
        <time>2012-09-05T08:53:20.000Z</time>
      </trkpt>
      <trkpt lat="47.71821" lon="5.99635">
        <ele>318.20001220703</ele>
        <time>2012-09-05T08:53:21.000Z</time>
      </trkpt>
      <trkpt lat="47.71815" lon="5.99634">
        <ele>317.79998779297</ele>
        <time>2012-09-05T08:53:22.000Z</time>
      </trkpt>
      <trkpt lat="47.71809" lon="5.99633">
        <ele>317.79998779297</ele>
        <time>2012-09-05T08:53:23.000Z</time>
      </trkpt>
      <trkpt lat="47.71774" lon="5.99624">
        <ele>317.39999389648</ele>
        <time>2012-09-05T08:53:29.000Z</time>
      </trkpt>
      <trkpt lat="47.71768" lon="5.99623">
        <ele>316.79998779297</ele>
        <time>2012-09-05T08:53:30.000Z</time>
      </trkpt>
      <trkpt lat="47.71763" lon="5.99623">
        <ele>316.39999389648</ele>
        <time>2012-09-05T08:53:31.000Z</time>
      </trkpt>
      <trkpt lat="47.71757" lon="5.99622">
        <ele>316</ele>
        <time>2012-09-05T08:53:32.000Z</time>
      </trkpt>
      <trkpt lat="47.71752" lon="5.99622">
        <ele>315.60000610352</ele>
        <time>2012-09-05T08:53:33.000Z</time>
      </trkpt>
      <trkpt lat="47.71733" lon="5.9962">
        <ele>315.60000610352</ele>
        <time>2012-09-05T08:53:37.000Z</time>
      </trkpt>
      <trkpt lat="47.71723" lon="5.99618">
        <ele>315.20001220703</ele>
        <time>2012-09-05T08:53:39.000Z</time>
      </trkpt>
      <trkpt lat="47.71717" lon="5.99618">
        <ele>314.79998779297</ele>
        <time>2012-09-05T08:53:40.000Z</time>
      </trkpt>
      <trkpt lat="47.71711" lon="5.99617">
        <ele>314.39999389648</ele>
        <time>2012-09-05T08:53:41.000Z</time>
      </trkpt>
      <trkpt lat="47.71705" lon="5.99616">
        <ele>314</ele>
        <time>2012-09-05T08:53:42.000Z</time>
      </trkpt>
      <trkpt lat="47.71699" lon="5.99615">
        <ele>313.60000610352</ele>
        <time>2012-09-05T08:53:43.000Z</time>
      </trkpt>
      <trkpt lat="47.71681" lon="5.99611">
        <ele>313.20001220703</ele>
        <time>2012-09-05T08:53:46.000Z</time>
      </trkpt>
      <trkpt lat="47.71675" lon="5.9961">
        <ele>312.79998779297</ele>
        <time>2012-09-05T08:53:47.000Z</time>
      </trkpt>
      <trkpt lat="47.71668" lon="5.99609">
        <ele>311.79998779297</ele>
        <time>2012-09-05T08:53:48.000Z</time>
      </trkpt>
      <trkpt lat="47.71663" lon="5.99608">
        <ele>311.39999389648</ele>
        <time>2012-09-05T08:53:49.000Z</time>
      </trkpt>
      <trkpt lat="47.7165" lon="5.99606">
        <ele>311</ele>
        <time>2012-09-05T08:53:51.000Z</time>
      </trkpt>
      <trkpt lat="47.71644" lon="5.99605">
        <ele>310.60000610352</ele>
        <time>2012-09-05T08:53:52.000Z</time>
      </trkpt>
      <trkpt lat="47.71637" lon="5.99604">
        <ele>310.20001220703</ele>
        <time>2012-09-05T08:53:53.000Z</time>
      </trkpt>
      <trkpt lat="47.7163" lon="5.99602">
        <ele>309.60000610352</ele>
        <time>2012-09-05T08:53:54.000Z</time>
      </trkpt>
      <trkpt lat="47.71623" lon="5.996">
        <ele>309.20001220703</ele>
        <time>2012-09-05T08:53:55.000Z</time>
      </trkpt>
      <trkpt lat="47.71612" lon="5.99596">
        <ele>309.20001220703</ele>
        <time>2012-09-05T08:53:57.000Z</time>
      </trkpt>
      <trkpt lat="47.71604" lon="5.99591">
        <ele>309.20001220703</ele>
        <time>2012-09-05T08:53:59.000Z</time>
      </trkpt>
      <trkpt lat="47.71593" lon="5.99578">
        <ele>309.20001220703</ele>
        <time>2012-09-05T08:54:04.000Z</time>
      </trkpt>
      <trkpt lat="47.71583" lon="5.99564">
        <ele>309.20001220703</ele>
        <time>2012-09-05T08:54:11.000Z</time>
      </trkpt>
      <trkpt lat="47.71582" lon="5.99562">
        <ele>309.20001220703</ele>
        <time>2012-09-05T08:54:12.000Z</time>
      </trkpt>
      <trkpt lat="47.7158" lon="5.99559">
        <ele>309.20001220703</ele>
        <time>2012-09-05T08:54:14.000Z</time>
      </trkpt>
      <trkpt lat="47.71574" lon="5.99553">
        <ele>309.20001220703</ele>
        <time>2012-09-05T08:54:17.000Z</time>
      </trkpt>
      <trkpt lat="47.71559" lon="5.99538">
        <ele>309.20001220703</ele>
        <time>2012-09-05T08:54:23.000Z</time>
      </trkpt>
      <trkpt lat="47.71528" lon="5.99521">
        <ele>309.20001220703</ele>
        <time>2012-09-05T08:54:31.000Z</time>
      </trkpt>
      <trkpt lat="47.71514" lon="5.99508">
        <ele>309.20001220703</ele>
        <time>2012-09-05T08:54:37.000Z</time>
      </trkpt>
      <trkpt lat="47.715" lon="5.99496">
        <ele>309.20001220703</ele>
        <time>2012-09-05T08:54:44.000Z</time>
      </trkpt>
      <trkpt lat="47.71485" lon="5.99483">
        <ele>309.20001220703</ele>
        <time>2012-09-05T08:54:51.000Z</time>
      </trkpt>
      <trkpt lat="47.7147" lon="5.99469">
        <ele>309.20001220703</ele>
        <time>2012-09-05T08:54:58.000Z</time>
      </trkpt>
      <trkpt lat="47.71455" lon="5.99452">
        <ele>309.20001220703</ele>
        <time>2012-09-05T08:55:05.000Z</time>
      </trkpt>
      <trkpt lat="47.71445" lon="5.99436">
        <ele>309.20001220703</ele>
        <time>2012-09-05T08:55:12.000Z</time>
      </trkpt>
      <trkpt lat="47.71433" lon="5.99417">
        <ele>309.20001220703</ele>
        <time>2012-09-05T08:55:19.000Z</time>
      </trkpt>
      <trkpt lat="47.7143" lon="5.994">
        <ele>309.20001220703</ele>
        <time>2012-09-05T08:55:24.000Z</time>
      </trkpt>
      <trkpt lat="47.7143" lon="5.9939">
        <ele>309.60000610352</ele>
        <time>2012-09-05T08:55:28.000Z</time>
      </trkpt>
      <trkpt lat="47.71429" lon="5.99387">
        <ele>310</ele>
        <time>2012-09-05T08:55:29.000Z</time>
      </trkpt>
      <trkpt lat="47.71429" lon="5.99385">
        <ele>310.60000610352</ele>
        <time>2012-09-05T08:55:30.000Z</time>
      </trkpt>
      <trkpt lat="47.71429" lon="5.99382">
        <ele>311</ele>
        <time>2012-09-05T08:55:31.000Z</time>
      </trkpt>
      <trkpt lat="47.71429" lon="5.99379">
        <ele>311.39999389648</ele>
        <time>2012-09-05T08:55:32.000Z</time>
      </trkpt>
      <trkpt lat="47.71425" lon="5.99366">
        <ele>311.39999389648</ele>
        <time>2012-09-05T08:55:37.000Z</time>
      </trkpt>
      <trkpt lat="47.71419" lon="5.9935">
        <ele>311.39999389648</ele>
        <time>2012-09-05T08:55:43.000Z</time>
      </trkpt>
      <trkpt lat="47.71411" lon="5.99334">
        <ele>311.39999389648</ele>
        <time>2012-09-05T08:55:50.000Z</time>
      </trkpt>
      <trkpt lat="47.71406" lon="5.99323">
        <ele>311.79998779297</ele>
        <time>2012-09-05T08:55:55.000Z</time>
      </trkpt>
      <trkpt lat="47.71405" lon="5.99321">
        <ele>312.20001220703</ele>
        <time>2012-09-05T08:55:56.000Z</time>
      </trkpt>
      <trkpt lat="47.71404" lon="5.99319">
        <ele>312.60000610352</ele>
        <time>2012-09-05T08:55:57.000Z</time>
      </trkpt>
      <trkpt lat="47.71403" lon="5.99317">
        <ele>313</ele>
        <time>2012-09-05T08:55:58.000Z</time>
      </trkpt>
      <trkpt lat="47.71402" lon="5.99315">
        <ele>313.39999389648</ele>
        <time>2012-09-05T08:55:59.000Z</time>
      </trkpt>
      <trkpt lat="47.71398" lon="5.99306">
        <ele>313.39999389648</ele>
        <time>2012-09-05T08:56:03.000Z</time>
      </trkpt>
      <trkpt lat="47.7139" lon="5.99297">
        <ele>313.39999389648</ele>
        <time>2012-09-05T08:56:09.000Z</time>
      </trkpt>
      <trkpt lat="47.71385" lon="5.99289">
        <ele>313.79998779297</ele>
        <time>2012-09-05T08:56:14.000Z</time>
      </trkpt>
      <trkpt lat="47.71384" lon="5.99287">
        <ele>314.20001220703</ele>
        <time>2012-09-05T08:56:15.000Z</time>
      </trkpt>
      <trkpt lat="47.71382" lon="5.99286">
        <ele>315</ele>
        <time>2012-09-05T08:56:16.000Z</time>
      </trkpt>
      <trkpt lat="47.71381" lon="5.99284">
        <ele>315.39999389648</ele>
        <time>2012-09-05T08:56:17.000Z</time>
      </trkpt>
      <trkpt lat="47.71374" lon="5.99273">
        <ele>315.39999389648</ele>
        <time>2012-09-05T08:56:23.000Z</time>
      </trkpt>
      <trkpt lat="47.71364" lon="5.9926">
        <ele>315.79998779297</ele>
        <time>2012-09-05T08:56:30.000Z</time>
      </trkpt>
      <trkpt lat="47.71362" lon="5.99257">
        <ele>316.20001220703</ele>
        <time>2012-09-05T08:56:31.000Z</time>
      </trkpt>
      <trkpt lat="47.7136" lon="5.99255">
        <ele>316.60000610352</ele>
        <time>2012-09-05T08:56:32.000Z</time>
      </trkpt>
      <trkpt lat="47.71358" lon="5.99252">
        <ele>317</ele>
        <time>2012-09-05T08:56:33.000Z</time>
      </trkpt>
      <trkpt lat="47.71357" lon="5.9925">
        <ele>317.39999389648</ele>
        <time>2012-09-05T08:56:34.000Z</time>
      </trkpt>
      <trkpt lat="47.71353" lon="5.99242">
        <ele>317.39999389648</ele>
        <time>2012-09-05T08:56:37.000Z</time>
      </trkpt>
      <trkpt lat="47.71344" lon="5.99226">
        <ele>317.39999389648</ele>
        <time>2012-09-05T08:56:45.000Z</time>
      </trkpt>
      <trkpt lat="47.71337" lon="5.99216">
        <ele>317.79998779297</ele>
        <time>2012-09-05T08:56:50.000Z</time>
      </trkpt>
      <trkpt lat="47.71336" lon="5.99215">
        <ele>318.39999389648</ele>
        <time>2012-09-05T08:56:51.000Z</time>
      </trkpt>
      <trkpt lat="47.71334" lon="5.99213">
        <ele>318.79998779297</ele>
        <time>2012-09-05T08:56:52.000Z</time>
      </trkpt>
      <trkpt lat="47.71333" lon="5.99211">
        <ele>319.20001220703</ele>
        <time>2012-09-05T08:56:53.000Z</time>
      </trkpt>
      <trkpt lat="47.71331" lon="5.99209">
        <ele>319.60000610352</ele>
        <time>2012-09-05T08:56:54.000Z</time>
      </trkpt>
      <trkpt lat="47.71321" lon="5.99197">
        <ele>319.60000610352</ele>
        <time>2012-09-05T08:57:00.000Z</time>
      </trkpt>
      <trkpt lat="47.7131" lon="5.99187">
        <ele>319.60000610352</ele>
        <time>2012-09-05T08:57:07.000Z</time>
      </trkpt>
      <trkpt lat="47.71299" lon="5.99178">
        <ele>319.60000610352</ele>
        <time>2012-09-05T08:57:14.000Z</time>
      </trkpt>
      <trkpt lat="47.7129" lon="5.9917">
        <ele>319.60000610352</ele>
        <time>2012-09-05T08:57:20.000Z</time>
      </trkpt>
      <trkpt lat="47.71285" lon="5.99167">
        <ele>320</ele>
        <time>2012-09-05T08:57:24.000Z</time>
      </trkpt>
      <trkpt lat="47.71284" lon="5.99166">
        <ele>320.39999389648</ele>
        <time>2012-09-05T08:57:25.000Z</time>
      </trkpt>
      <trkpt lat="47.71283" lon="5.99164">
        <ele>320.79998779297</ele>
        <time>2012-09-05T08:57:26.000Z</time>
      </trkpt>
      <trkpt lat="47.71282" lon="5.99163">
        <ele>321.20001220703</ele>
        <time>2012-09-05T08:57:27.000Z</time>
      </trkpt>
      <trkpt lat="47.7128" lon="5.99161">
        <ele>321.60000610352</ele>
        <time>2012-09-05T08:57:28.000Z</time>
      </trkpt>
      <trkpt lat="47.71272" lon="5.99153">
        <ele>321.60000610352</ele>
        <time>2012-09-05T08:57:34.000Z</time>
      </trkpt>
      <trkpt lat="47.7126" lon="5.99141">
        <ele>321.60000610352</ele>
        <time>2012-09-05T08:57:41.000Z</time>
      </trkpt>
      <trkpt lat="47.71248" lon="5.99134">
        <ele>321.60000610352</ele>
        <time>2012-09-05T08:57:48.000Z</time>
      </trkpt>
      <trkpt lat="47.71247" lon="5.99134">
        <ele>322</ele>
        <time>2012-09-05T08:57:49.000Z</time>
      </trkpt>
      <trkpt lat="47.71245" lon="5.99134">
        <ele>322.39999389648</ele>
        <time>2012-09-05T08:57:50.000Z</time>
      </trkpt>
      <trkpt lat="47.71244" lon="5.99133">
        <ele>322.79998779297</ele>
        <time>2012-09-05T08:57:51.000Z</time>
      </trkpt>
      <trkpt lat="47.71242" lon="5.99133">
        <ele>323.39999389648</ele>
        <time>2012-09-05T08:57:52.000Z</time>
      </trkpt>
      <trkpt lat="47.71241" lon="5.99132">
        <ele>323.79998779297</ele>
        <time>2012-09-05T08:57:53.000Z</time>
      </trkpt>
      <trkpt lat="47.71237" lon="5.9913">
        <ele>323.79998779297</ele>
        <time>2012-09-05T08:57:56.000Z</time>
      </trkpt>
      <trkpt lat="47.71232" lon="5.99129">
        <ele>324.20001220703</ele>
        <time>2012-09-05T08:58:00.000Z</time>
      </trkpt>
      <trkpt lat="47.71231" lon="5.99128">
        <ele>324.60000610352</ele>
        <time>2012-09-05T08:58:01.000Z</time>
      </trkpt>
      <trkpt lat="47.7123" lon="5.99127">
        <ele>325</ele>
        <time>2012-09-05T08:58:02.000Z</time>
      </trkpt>
      <trkpt lat="47.71229" lon="5.99126">
        <ele>325.39999389648</ele>
        <time>2012-09-05T08:58:03.000Z</time>
      </trkpt>
      <trkpt lat="47.71228" lon="5.99124">
        <ele>325.79998779297</ele>
        <time>2012-09-05T08:58:04.000Z</time>
      </trkpt>
      <trkpt lat="47.71227" lon="5.9912">
        <ele>325.79998779297</ele>
        <time>2012-09-05T08:58:08.000Z</time>
      </trkpt>
      <trkpt lat="47.71227" lon="5.99118">
        <ele>325.79998779297</ele>
        <time>2012-09-05T08:58:09.000Z</time>
      </trkpt>
      <trkpt lat="47.71224" lon="5.99111">
        <ele>325.79998779297</ele>
        <time>2012-09-05T08:58:14.000Z</time>
      </trkpt>
      <trkpt lat="47.71224" lon="5.99107">
        <ele>325.79998779297</ele>
        <time>2012-09-05T08:58:16.000Z</time>
      </trkpt>
      <trkpt lat="47.71222" lon="5.99099">
        <ele>325.79998779297</ele>
        <time>2012-09-05T08:58:20.000Z</time>
      </trkpt>
      <trkpt lat="47.7122" lon="5.99092">
        <ele>326.20001220703</ele>
        <time>2012-09-05T08:58:23.000Z</time>
      </trkpt>
      <trkpt lat="47.71219" lon="5.9909">
        <ele>326.79998779297</ele>
        <time>2012-09-05T08:58:24.000Z</time>
      </trkpt>
      <trkpt lat="47.71219" lon="5.99088">
        <ele>327.20001220703</ele>
        <time>2012-09-05T08:58:25.000Z</time>
      </trkpt>
      <trkpt lat="47.71218" lon="5.99085">
        <ele>327.60000610352</ele>
        <time>2012-09-05T08:58:26.000Z</time>
      </trkpt>
      <trkpt lat="47.71217" lon="5.99084">
        <ele>328</ele>
        <time>2012-09-05T08:58:27.000Z</time>
      </trkpt>
      <trkpt lat="47.71212" lon="5.99072">
        <ele>328</ele>
        <time>2012-09-05T08:58:33.000Z</time>
      </trkpt>
      <trkpt lat="47.7121" lon="5.9907">
        <ele>328</ele>
        <time>2012-09-05T08:58:34.000Z</time>
      </trkpt>
      <trkpt lat="47.712" lon="5.99056">
        <ele>328</ele>
        <time>2012-09-05T08:58:41.000Z</time>
      </trkpt>
      <trkpt lat="47.71189" lon="5.99042">
        <ele>328</ele>
        <time>2012-09-05T08:58:49.000Z</time>
      </trkpt>
      <trkpt lat="47.71184" lon="5.99037">
        <ele>328.39999389648</ele>
        <time>2012-09-05T08:58:52.000Z</time>
      </trkpt>
      <trkpt lat="47.71183" lon="5.99036">
        <ele>328.79998779297</ele>
        <time>2012-09-05T08:58:53.000Z</time>
      </trkpt>
      <trkpt lat="47.71182" lon="5.99034">
        <ele>329.20001220703</ele>
        <time>2012-09-05T08:58:54.000Z</time>
      </trkpt>
      <trkpt lat="47.71181" lon="5.99032">
        <ele>329.79998779297</ele>
        <time>2012-09-05T08:58:55.000Z</time>
      </trkpt>
      <trkpt lat="47.7118" lon="5.99031">
        <ele>330.20001220703</ele>
        <time>2012-09-05T08:58:56.000Z</time>
      </trkpt>
      <trkpt lat="47.71178" lon="5.99026">
        <ele>330.20001220703</ele>
        <time>2012-09-05T08:59:00.000Z</time>
      </trkpt>
      <trkpt lat="47.71178" lon="5.99021">
        <ele>330.20001220703</ele>
        <time>2012-09-05T08:59:05.000Z</time>
      </trkpt>
      <trkpt lat="47.71177" lon="5.99018">
        <ele>330.20001220703</ele>
        <time>2012-09-05T08:59:07.000Z</time>
      </trkpt>
      <trkpt lat="47.71181" lon="5.99009">
        <ele>329.79998779297</ele>
        <time>2012-09-05T08:59:51.000Z</time>
      </trkpt>
      <trkpt lat="47.71183" lon="5.99005">
        <ele>329.79998779297</ele>
        <time>2012-09-05T08:59:53.000Z</time>
      </trkpt>
      <trkpt lat="47.71184" lon="5.99">
        <ele>329.79998779297</ele>
        <time>2012-09-05T08:59:55.000Z</time>
      </trkpt>
      <trkpt lat="47.71185" lon="5.98993">
        <ele>329.79998779297</ele>
        <time>2012-09-05T08:59:58.000Z</time>
      </trkpt>
      <trkpt lat="47.71186" lon="5.98991">
        <ele>329.79998779297</ele>
        <time>2012-09-05T08:59:59.000Z</time>
      </trkpt>
      <trkpt lat="47.7119" lon="5.98974">
        <ele>329.79998779297</ele>
        <time>2012-09-05T09:00:05.000Z</time>
      </trkpt>
      <trkpt lat="47.71197" lon="5.98955">
        <ele>329.79998779297</ele>
        <time>2012-09-05T09:00:13.000Z</time>
      </trkpt>
      <trkpt lat="47.71204" lon="5.98941">
        <ele>329.79998779297</ele>
        <time>2012-09-05T09:00:18.000Z</time>
      </trkpt>
      <trkpt lat="47.7121" lon="5.98924">
        <ele>329.79998779297</ele>
        <time>2012-09-05T09:00:24.000Z</time>
      </trkpt>
      <trkpt lat="47.71212" lon="5.98917">
        <ele>329.79998779297</ele>
        <time>2012-09-05T09:00:26.000Z</time>
      </trkpt>
      <trkpt lat="47.71217" lon="5.98903">
        <ele>329.79998779297</ele>
        <time>2012-09-05T09:00:30.000Z</time>
      </trkpt>
      <trkpt lat="47.71228" lon="5.98879">
        <ele>329.79998779297</ele>
        <time>2012-09-05T09:00:37.000Z</time>
      </trkpt>
      <trkpt lat="47.71229" lon="5.98876">
        <ele>329.20001220703</ele>
        <time>2012-09-05T09:00:38.000Z</time>
      </trkpt>
      <trkpt lat="47.7123" lon="5.98872">
        <ele>328.60000610352</ele>
        <time>2012-09-05T09:00:39.000Z</time>
      </trkpt>
      <trkpt lat="47.71232" lon="5.98868">
        <ele>328.20001220703</ele>
        <time>2012-09-05T09:00:40.000Z</time>
      </trkpt>
      <trkpt lat="47.71233" lon="5.98865">
        <ele>328.39999389648</ele>
        <time>2012-09-05T09:00:41.000Z</time>
      </trkpt>
      <trkpt lat="47.71234" lon="5.98862">
        <ele>328.79998779297</ele>
        <time>2012-09-05T09:00:42.000Z</time>
      </trkpt>
      <trkpt lat="47.71236" lon="5.98859">
        <ele>329</ele>
        <time>2012-09-05T09:00:43.000Z</time>
      </trkpt>
      <trkpt lat="47.71237" lon="5.98855">
        <ele>329.39999389648</ele>
        <time>2012-09-05T09:00:44.000Z</time>
      </trkpt>
      <trkpt lat="47.71239" lon="5.98852">
        <ele>329.60000610352</ele>
        <time>2012-09-05T09:00:45.000Z</time>
      </trkpt>
      <trkpt lat="47.71243" lon="5.98837">
        <ele>329.20001220703</ele>
        <time>2012-09-05T09:00:49.000Z</time>
      </trkpt>
      <trkpt lat="47.71245" lon="5.98833">
        <ele>328.79998779297</ele>
        <time>2012-09-05T09:00:50.000Z</time>
      </trkpt>
      <trkpt lat="47.71247" lon="5.98828">
        <ele>328.39999389648</ele>
        <time>2012-09-05T09:00:51.000Z</time>
      </trkpt>
      <trkpt lat="47.71248" lon="5.98823">
        <ele>328</ele>
        <time>2012-09-05T09:00:52.000Z</time>
      </trkpt>
      <trkpt lat="47.7125" lon="5.98818">
        <ele>327.60000610352</ele>
        <time>2012-09-05T09:00:53.000Z</time>
      </trkpt>
      <trkpt lat="47.71257" lon="5.98802">
        <ele>327.20001220703</ele>
        <time>2012-09-05T09:00:56.000Z</time>
      </trkpt>
      <trkpt lat="47.7126" lon="5.98796">
        <ele>326.79998779297</ele>
        <time>2012-09-05T09:00:57.000Z</time>
      </trkpt>
      <trkpt lat="47.71263" lon="5.98791">
        <ele>326.39999389648</ele>
        <time>2012-09-05T09:00:58.000Z</time>
      </trkpt>
      <trkpt lat="47.71265" lon="5.98785">
        <ele>326</ele>
        <time>2012-09-05T09:00:59.000Z</time>
      </trkpt>
      <trkpt lat="47.71267" lon="5.9878">
        <ele>325.60000610352</ele>
        <time>2012-09-05T09:01:00.000Z</time>
      </trkpt>
      <trkpt lat="47.71271" lon="5.98767">
        <ele>325.20001220703</ele>
        <time>2012-09-05T09:01:03.000Z</time>
      </trkpt>
      <trkpt lat="47.71273" lon="5.98763">
        <ele>324.60000610352</ele>
        <time>2012-09-05T09:01:04.000Z</time>
      </trkpt>
      <trkpt lat="47.71275" lon="5.98758">
        <ele>324.20001220703</ele>
        <time>2012-09-05T09:01:05.000Z</time>
      </trkpt>
      <trkpt lat="47.71276" lon="5.98754">
        <ele>323.79998779297</ele>
        <time>2012-09-05T09:01:06.000Z</time>
      </trkpt>
      <trkpt lat="47.71279" lon="5.9875">
        <ele>323.39999389648</ele>
        <time>2012-09-05T09:01:07.000Z</time>
      </trkpt>
      <trkpt lat="47.71284" lon="5.98741">
        <ele>323</ele>
        <time>2012-09-05T09:01:09.000Z</time>
      </trkpt>
      <trkpt lat="47.71286" lon="5.98736">
        <ele>322.39999389648</ele>
        <time>2012-09-05T09:01:10.000Z</time>
      </trkpt>
      <trkpt lat="47.71288" lon="5.98732">
        <ele>321.60000610352</ele>
        <time>2012-09-05T09:01:11.000Z</time>
      </trkpt>
      <trkpt lat="47.7129" lon="5.98728">
        <ele>321.20001220703</ele>
        <time>2012-09-05T09:01:12.000Z</time>
      </trkpt>
      <trkpt lat="47.71292" lon="5.9872">
        <ele>321.20001220703</ele>
        <time>2012-09-05T09:01:14.000Z</time>
      </trkpt>
      <trkpt lat="47.713" lon="5.98702">
        <ele>321.20001220703</ele>
        <time>2012-09-05T09:01:20.000Z</time>
      </trkpt>
      <trkpt lat="47.71308" lon="5.98686">
        <ele>321.20001220703</ele>
        <time>2012-09-05T09:01:27.000Z</time>
      </trkpt>
      <trkpt lat="47.71311" lon="5.98678">
        <ele>321.20001220703</ele>
        <time>2012-09-05T09:01:30.000Z</time>
      </trkpt>
      <trkpt lat="47.71314" lon="5.98672">
        <ele>321.20001220703</ele>
        <time>2012-09-05T09:01:32.000Z</time>
      </trkpt>
      <trkpt lat="47.71319" lon="5.98659">
        <ele>321.20001220703</ele>
        <time>2012-09-05T09:01:38.000Z</time>
      </trkpt>
      <trkpt lat="47.71325" lon="5.98643">
        <ele>321.20001220703</ele>
        <time>2012-09-05T09:01:44.000Z</time>
      </trkpt>
      <trkpt lat="47.71327" lon="5.98641">
        <ele>321.60000610352</ele>
        <time>2012-09-05T09:01:45.000Z</time>
      </trkpt>
      <trkpt lat="47.71328" lon="5.98639">
        <ele>322</ele>
        <time>2012-09-05T09:01:46.000Z</time>
      </trkpt>
      <trkpt lat="47.7133" lon="5.98637">
        <ele>322.39999389648</ele>
        <time>2012-09-05T09:01:47.000Z</time>
      </trkpt>
      <trkpt lat="47.71331" lon="5.98635">
        <ele>322.79998779297</ele>
        <time>2012-09-05T09:01:48.000Z</time>
      </trkpt>
      <trkpt lat="47.71332" lon="5.98632">
        <ele>323.20001220703</ele>
        <time>2012-09-05T09:01:49.000Z</time>
      </trkpt>
      <trkpt lat="47.71334" lon="5.98627">
        <ele>323.20001220703</ele>
        <time>2012-09-05T09:01:51.000Z</time>
      </trkpt>
      <trkpt lat="47.7134" lon="5.98609">
        <ele>323.20001220703</ele>
        <time>2012-09-05T09:01:58.000Z</time>
      </trkpt>
      <trkpt lat="47.7135" lon="5.98589">
        <ele>323.20001220703</ele>
        <time>2012-09-05T09:02:05.000Z</time>
      </trkpt>
      <trkpt lat="47.71355" lon="5.98565">
        <ele>323.20001220703</ele>
        <time>2012-09-05T09:02:12.000Z</time>
      </trkpt>
      <trkpt lat="47.71355" lon="5.9856">
        <ele>323.20001220703</ele>
        <time>2012-09-05T09:02:14.000Z</time>
      </trkpt>
      <trkpt lat="47.71351" lon="5.98557">
        <ele>323.20001220703</ele>
        <time>2012-09-05T09:02:17.000Z</time>
      </trkpt>
      <trkpt lat="47.71338" lon="5.98555">
        <ele>323.20001220703</ele>
        <time>2012-09-05T09:02:21.000Z</time>
      </trkpt>
      <trkpt lat="47.71315" lon="5.98546">
        <ele>323.20001220703</ele>
        <time>2012-09-05T09:02:27.000Z</time>
      </trkpt>
      <trkpt lat="47.7128" lon="5.98529">
        <ele>323.20001220703</ele>
        <time>2012-09-05T09:02:36.000Z</time>
      </trkpt>
      <trkpt lat="47.71256" lon="5.98514">
        <ele>323.20001220703</ele>
        <time>2012-09-05T09:02:43.000Z</time>
      </trkpt>
      <trkpt lat="47.71239" lon="5.98502">
        <ele>323.20001220703</ele>
        <time>2012-09-05T09:02:49.000Z</time>
      </trkpt>
      <trkpt lat="47.7123" lon="5.98495">
        <ele>323.60000610352</ele>
        <time>2012-09-05T09:02:53.000Z</time>
      </trkpt>
      <trkpt lat="47.71227" lon="5.98494">
        <ele>324</ele>
        <time>2012-09-05T09:02:54.000Z</time>
      </trkpt>
      <trkpt lat="47.71224" lon="5.98492">
        <ele>324.60000610352</ele>
        <time>2012-09-05T09:02:55.000Z</time>
      </trkpt>
      <trkpt lat="47.71222" lon="5.98489">
        <ele>325</ele>
        <time>2012-09-05T09:02:56.000Z</time>
      </trkpt>
      <trkpt lat="47.7122" lon="5.98487">
        <ele>325.39999389648</ele>
        <time>2012-09-05T09:02:57.000Z</time>
      </trkpt>
      <trkpt lat="47.71208" lon="5.98472">
        <ele>325.39999389648</ele>
        <time>2012-09-05T09:03:03.000Z</time>
      </trkpt>
      <trkpt lat="47.71196" lon="5.98455">
        <ele>325.39999389648</ele>
        <time>2012-09-05T09:03:09.000Z</time>
      </trkpt>
      <trkpt lat="47.71179" lon="5.9843">
        <ele>325.39999389648</ele>
        <time>2012-09-05T09:03:16.000Z</time>
      </trkpt>
      <trkpt lat="47.7116" lon="5.98418">
        <ele>325.79998779297</ele>
        <time>2012-09-05T09:03:21.000Z</time>
      </trkpt>
      <trkpt lat="47.71156" lon="5.98418">
        <ele>326.20001220703</ele>
        <time>2012-09-05T09:03:22.000Z</time>
      </trkpt>
      <trkpt lat="47.71153" lon="5.98418">
        <ele>326.60000610352</ele>
        <time>2012-09-05T09:03:23.000Z</time>
      </trkpt>
      <trkpt lat="47.7115" lon="5.98418">
        <ele>327</ele>
        <time>2012-09-05T09:03:24.000Z</time>
      </trkpt>
      <trkpt lat="47.71145" lon="5.98419">
        <ele>327.39999389648</ele>
        <time>2012-09-05T09:03:25.000Z</time>
      </trkpt>
      <trkpt lat="47.71133" lon="5.98426">
        <ele>327.39999389648</ele>
        <time>2012-09-05T09:03:28.000Z</time>
      </trkpt>
      <trkpt lat="47.71108" lon="5.98441">
        <ele>327.39999389648</ele>
        <time>2012-09-05T09:03:34.000Z</time>
      </trkpt>
      <trkpt lat="47.71083" lon="5.98461">
        <ele>327.39999389648</ele>
        <time>2012-09-05T09:03:41.000Z</time>
      </trkpt>
      <trkpt lat="47.7106" lon="5.98475">
        <ele>327.39999389648</ele>
        <time>2012-09-05T09:03:48.000Z</time>
      </trkpt>
      <trkpt lat="47.71034" lon="5.98493">
        <ele>327.39999389648</ele>
        <time>2012-09-05T09:03:55.000Z</time>
      </trkpt>
      <trkpt lat="47.7101" lon="5.98506">
        <ele>327.39999389648</ele>
        <time>2012-09-05T09:04:02.000Z</time>
      </trkpt>
      <trkpt lat="47.70996" lon="5.98515">
        <ele>327.39999389648</ele>
        <time>2012-09-05T09:04:07.000Z</time>
      </trkpt>
      <trkpt lat="47.70986" lon="5.98521">
        <ele>327.39999389648</ele>
        <time>2012-09-05T09:04:13.000Z</time>
      </trkpt>
      <trkpt lat="47.70981" lon="5.98523">
        <ele>327.79998779297</ele>
        <time>2012-09-05T09:04:15.000Z</time>
      </trkpt>
      <trkpt lat="47.70979" lon="5.98525">
        <ele>328.20001220703</ele>
        <time>2012-09-05T09:04:16.000Z</time>
      </trkpt>
      <trkpt lat="47.70976" lon="5.98527">
        <ele>328.60000610352</ele>
        <time>2012-09-05T09:04:17.000Z</time>
      </trkpt>
      <trkpt lat="47.70974" lon="5.98528">
        <ele>329</ele>
        <time>2012-09-05T09:04:18.000Z</time>
      </trkpt>
      <trkpt lat="47.70972" lon="5.98529">
        <ele>329.60000610352</ele>
        <time>2012-09-05T09:04:19.000Z</time>
      </trkpt>
      <trkpt lat="47.70957" lon="5.98537">
        <ele>330</ele>
        <time>2012-09-05T09:04:25.000Z</time>
      </trkpt>
      <trkpt lat="47.70954" lon="5.98539">
        <ele>330.39999389648</ele>
        <time>2012-09-05T09:04:26.000Z</time>
      </trkpt>
      <trkpt lat="47.7095" lon="5.98541">
        <ele>331.20001220703</ele>
        <time>2012-09-05T09:04:27.000Z</time>
      </trkpt>
      <trkpt lat="47.70947" lon="5.98543">
        <ele>331.60000610352</ele>
        <time>2012-09-05T09:04:28.000Z</time>
      </trkpt>
      <trkpt lat="47.70935" lon="5.9855">
        <ele>331.60000610352</ele>
        <time>2012-09-05T09:04:32.000Z</time>
      </trkpt>
      <trkpt lat="47.70931" lon="5.98553">
        <ele>332</ele>
        <time>2012-09-05T09:04:34.000Z</time>
      </trkpt>
      <trkpt lat="47.70929" lon="5.98554">
        <ele>332.39999389648</ele>
        <time>2012-09-05T09:04:35.000Z</time>
      </trkpt>
      <trkpt lat="47.70927" lon="5.98555">
        <ele>332.79998779297</ele>
        <time>2012-09-05T09:04:36.000Z</time>
      </trkpt>
      <trkpt lat="47.70925" lon="5.98555">
        <ele>333.20001220703</ele>
        <time>2012-09-05T09:04:37.000Z</time>
      </trkpt>
      <trkpt lat="47.70923" lon="5.98556">
        <ele>333.60000610352</ele>
        <time>2012-09-05T09:04:38.000Z</time>
      </trkpt>
      <trkpt lat="47.70922" lon="5.98557">
        <ele>333.60000610352</ele>
        <time>2012-09-05T09:04:39.000Z</time>
      </trkpt>
      <trkpt lat="47.70916" lon="5.98563">
        <ele>334.20001220703</ele>
        <time>2012-09-05T09:04:43.000Z</time>
      </trkpt>
      <trkpt lat="47.70915" lon="5.98563">
        <ele>334.60000610352</ele>
        <time>2012-09-05T09:04:44.000Z</time>
      </trkpt>
      <trkpt lat="47.70913" lon="5.98564">
        <ele>335.20001220703</ele>
        <time>2012-09-05T09:04:45.000Z</time>
      </trkpt>
      <trkpt lat="47.70911" lon="5.98565">
        <ele>335.79998779297</ele>
        <time>2012-09-05T09:04:46.000Z</time>
      </trkpt>
      <trkpt lat="47.70909" lon="5.98566">
        <ele>336.20001220703</ele>
        <time>2012-09-05T09:04:47.000Z</time>
      </trkpt>
      <trkpt lat="47.709" lon="5.98572">
        <ele>336.20001220703</ele>
        <time>2012-09-05T09:04:53.000Z</time>
      </trkpt>
      <trkpt lat="47.70887" lon="5.98577">
        <ele>336.20001220703</ele>
        <time>2012-09-05T09:05:01.000Z</time>
      </trkpt>
      <trkpt lat="47.70882" lon="5.98579">
        <ele>336.60000610352</ele>
        <time>2012-09-05T09:05:03.000Z</time>
      </trkpt>
      <trkpt lat="47.70878" lon="5.98581">
        <ele>337</ele>
        <time>2012-09-05T09:05:04.000Z</time>
      </trkpt>
      <trkpt lat="47.70875" lon="5.98583">
        <ele>337.60000610352</ele>
        <time>2012-09-05T09:05:05.000Z</time>
      </trkpt>
      <trkpt lat="47.70871" lon="5.98585">
        <ele>338</ele>
        <time>2012-09-05T09:05:06.000Z</time>
      </trkpt>
      <trkpt lat="47.70867" lon="5.98585">
        <ele>338.39999389648</ele>
        <time>2012-09-05T09:05:07.000Z</time>
      </trkpt>
      <trkpt lat="47.7085" lon="5.98591">
        <ele>338.39999389648</ele>
        <time>2012-09-05T09:05:13.000Z</time>
      </trkpt>
      <trkpt lat="47.70845" lon="5.98592">
        <ele>338.79998779297</ele>
        <time>2012-09-05T09:05:15.000Z</time>
      </trkpt>
      <trkpt lat="47.70843" lon="5.98593">
        <ele>339.20001220703</ele>
        <time>2012-09-05T09:05:16.000Z</time>
      </trkpt>
      <trkpt lat="47.7084" lon="5.98595">
        <ele>340</ele>
        <time>2012-09-05T09:05:17.000Z</time>
      </trkpt>
      <trkpt lat="47.70838" lon="5.98596">
        <ele>340.60000610352</ele>
        <time>2012-09-05T09:05:18.000Z</time>
      </trkpt>
      <trkpt lat="47.70833" lon="5.98597">
        <ele>340.60000610352</ele>
        <time>2012-09-05T09:05:20.000Z</time>
      </trkpt>
      <trkpt lat="47.7082" lon="5.986">
        <ele>340.60000610352</ele>
        <time>2012-09-05T09:05:26.000Z</time>
      </trkpt>
      <trkpt lat="47.70803" lon="5.98603">
        <ele>340.60000610352</ele>
        <time>2012-09-05T09:05:33.000Z</time>
      </trkpt>
      <trkpt lat="47.70783" lon="5.986">
        <ele>340.60000610352</ele>
        <time>2012-09-05T09:05:39.000Z</time>
      </trkpt>
      <trkpt lat="47.70755" lon="5.98594">
        <ele>340.60000610352</ele>
        <time>2012-09-05T09:05:46.000Z</time>
      </trkpt>
      <trkpt lat="47.70738" lon="5.98591">
        <ele>340.60000610352</ele>
        <time>2012-09-05T09:05:50.000Z</time>
      </trkpt>
      <trkpt lat="47.7072" lon="5.98585">
        <ele>340.60000610352</ele>
        <time>2012-09-05T09:05:53.000Z</time>
      </trkpt>
      <trkpt lat="47.70709" lon="5.98581">
        <ele>340.60000610352</ele>
        <time>2012-09-05T09:05:55.000Z</time>
      </trkpt>
      <trkpt lat="47.70705" lon="5.98581">
        <ele>340.60000610352</ele>
        <time>2012-09-05T09:05:56.000Z</time>
      </trkpt>
      <trkpt lat="47.70688" lon="5.98592">
        <ele>340.60000610352</ele>
        <time>2012-09-05T09:06:00.000Z</time>
      </trkpt>
      <trkpt lat="47.70682" lon="5.98604">
        <ele>340.60000610352</ele>
        <time>2012-09-05T09:06:03.000Z</time>
      </trkpt>
      <trkpt lat="47.7068" lon="5.98608">
        <ele>340.60000610352</ele>
        <time>2012-09-05T09:06:04.000Z</time>
      </trkpt>
      <trkpt lat="47.70669" lon="5.9863">
        <ele>340.60000610352</ele>
        <time>2012-09-05T09:06:11.000Z</time>
      </trkpt>
      <trkpt lat="47.70658" lon="5.98649">
        <ele>340.60000610352</ele>
        <time>2012-09-05T09:06:17.000Z</time>
      </trkpt>
      <trkpt lat="47.70654" lon="5.98663">
        <ele>340.60000610352</ele>
        <time>2012-09-05T09:06:23.000Z</time>
      </trkpt>
      <trkpt lat="47.70653" lon="5.98671">
        <ele>340.60000610352</ele>
        <time>2012-09-05T09:06:28.000Z</time>
      </trkpt>
      <trkpt lat="47.70651" lon="5.98674">
        <ele>340.60000610352</ele>
        <time>2012-09-05T09:06:47.000Z</time>
      </trkpt>
      <trkpt lat="47.70647" lon="5.98688">
        <ele>340.60000610352</ele>
        <time>2012-09-05T09:06:52.000Z</time>
      </trkpt>
      <trkpt lat="47.70644" lon="5.98709">
        <ele>340.60000610352</ele>
        <time>2012-09-05T09:06:58.000Z</time>
      </trkpt>
      <trkpt lat="47.70638" lon="5.98728">
        <ele>340.60000610352</ele>
        <time>2012-09-05T09:07:04.000Z</time>
      </trkpt>
      <trkpt lat="47.70637" lon="5.98732">
        <ele>341</ele>
        <time>2012-09-05T09:07:05.000Z</time>
      </trkpt>
      <trkpt lat="47.70636" lon="5.98735">
        <ele>341.39999389648</ele>
        <time>2012-09-05T09:07:06.000Z</time>
      </trkpt>
      <trkpt lat="47.70636" lon="5.98738">
        <ele>341.79998779297</ele>
        <time>2012-09-05T09:07:07.000Z</time>
      </trkpt>
      <trkpt lat="47.70636" lon="5.98742">
        <ele>342.20001220703</ele>
        <time>2012-09-05T09:07:08.000Z</time>
      </trkpt>
      <trkpt lat="47.70634" lon="5.98745">
        <ele>342.60000610352</ele>
        <time>2012-09-05T09:07:09.000Z</time>
      </trkpt>
      <trkpt lat="47.70633" lon="5.98749">
        <ele>342.60000610352</ele>
        <time>2012-09-05T09:07:10.000Z</time>
      </trkpt>
      <trkpt lat="47.70628" lon="5.98768">
        <ele>342.60000610352</ele>
        <time>2012-09-05T09:07:16.000Z</time>
      </trkpt>
      <trkpt lat="47.70622" lon="5.98791">
        <ele>342.60000610352</ele>
        <time>2012-09-05T09:07:22.000Z</time>
      </trkpt>
      <trkpt lat="47.70618" lon="5.98813">
        <ele>342.60000610352</ele>
        <time>2012-09-05T09:07:29.000Z</time>
      </trkpt>
      <trkpt lat="47.7062" lon="5.98828">
        <ele>342.60000610352</ele>
        <time>2012-09-05T09:07:34.000Z</time>
      </trkpt>
      <trkpt lat="47.70621" lon="5.98835">
        <ele>342.60000610352</ele>
        <time>2012-09-05T09:07:36.000Z</time>
      </trkpt>
      <trkpt lat="47.70625" lon="5.9885">
        <ele>342.60000610352</ele>
        <time>2012-09-05T09:07:40.000Z</time>
      </trkpt>
      <trkpt lat="47.70627" lon="5.98854">
        <ele>342.60000610352</ele>
        <time>2012-09-05T09:07:41.000Z</time>
      </trkpt>
      <trkpt lat="47.70638" lon="5.98885">
        <ele>342.60000610352</ele>
        <time>2012-09-05T09:07:48.000Z</time>
      </trkpt>
      <trkpt lat="47.70646" lon="5.98909">
        <ele>342.60000610352</ele>
        <time>2012-09-05T09:07:54.000Z</time>
      </trkpt>
      <trkpt lat="47.70645" lon="5.98917">
        <ele>342.60000610352</ele>
        <time>2012-09-05T09:07:56.000Z</time>
      </trkpt>
      <trkpt lat="47.70642" lon="5.98922">
        <ele>342.60000610352</ele>
        <time>2012-09-05T09:07:58.000Z</time>
      </trkpt>
      <trkpt lat="47.70632" lon="5.98936">
        <ele>342.60000610352</ele>
        <time>2012-09-05T09:08:04.000Z</time>
      </trkpt>
      <trkpt lat="47.70618" lon="5.98955">
        <ele>342.60000610352</ele>
        <time>2012-09-05T09:08:11.000Z</time>
      </trkpt>
      <trkpt lat="47.706" lon="5.98978">
        <ele>342.60000610352</ele>
        <time>2012-09-05T09:08:18.000Z</time>
      </trkpt>
      <trkpt lat="47.70584" lon="5.98999">
        <ele>342.20001220703</ele>
        <time>2012-09-05T09:08:24.000Z</time>
      </trkpt>
      <trkpt lat="47.70582" lon="5.99003">
        <ele>341.79998779297</ele>
        <time>2012-09-05T09:08:25.000Z</time>
      </trkpt>
      <trkpt lat="47.7058" lon="5.99006">
        <ele>341.39999389648</ele>
        <time>2012-09-05T09:08:26.000Z</time>
      </trkpt>
      <trkpt lat="47.70578" lon="5.99011">
        <ele>340.79998779297</ele>
        <time>2012-09-05T09:08:27.000Z</time>
      </trkpt>
      <trkpt lat="47.70576" lon="5.99014">
        <ele>340.39999389648</ele>
        <time>2012-09-05T09:08:28.000Z</time>
      </trkpt>
      <trkpt lat="47.70567" lon="5.99031">
        <ele>340.39999389648</ele>
        <time>2012-09-05T09:08:32.000Z</time>
      </trkpt>
      <trkpt lat="47.70563" lon="5.99039">
        <ele>339.79998779297</ele>
        <time>2012-09-05T09:08:34.000Z</time>
      </trkpt>
      <trkpt lat="47.70561" lon="5.99043">
        <ele>338.79998779297</ele>
        <time>2012-09-05T09:08:35.000Z</time>
      </trkpt>
      <trkpt lat="47.7056" lon="5.99048">
        <ele>338.20001220703</ele>
        <time>2012-09-05T09:08:36.000Z</time>
      </trkpt>
      <trkpt lat="47.70558" lon="5.99052">
        <ele>337.60000610352</ele>
        <time>2012-09-05T09:08:37.000Z</time>
      </trkpt>
      <trkpt lat="47.70553" lon="5.99062">
        <ele>337.60000610352</ele>
        <time>2012-09-05T09:08:39.000Z</time>
      </trkpt>
      <trkpt lat="47.70542" lon="5.99081">
        <ele>337.60000610352</ele>
        <time>2012-09-05T09:08:44.000Z</time>
      </trkpt>
      <trkpt lat="47.70531" lon="5.99096">
        <ele>337.20001220703</ele>
        <time>2012-09-05T09:08:48.000Z</time>
      </trkpt>
      <trkpt lat="47.70529" lon="5.99099">
        <ele>336.79998779297</ele>
        <time>2012-09-05T09:08:49.000Z</time>
      </trkpt>
      <trkpt lat="47.70526" lon="5.99104">
        <ele>336.39999389648</ele>
        <time>2012-09-05T09:08:50.000Z</time>
      </trkpt>
      <trkpt lat="47.70524" lon="5.99106">
        <ele>335.79998779297</ele>
        <time>2012-09-05T09:08:51.000Z</time>
      </trkpt>
      <trkpt lat="47.70521" lon="5.99109">
        <ele>335.39999389648</ele>
        <time>2012-09-05T09:08:52.000Z</time>
      </trkpt>
      <trkpt lat="47.7051" lon="5.99123">
        <ele>335.39999389648</ele>
        <time>2012-09-05T09:08:56.000Z</time>
      </trkpt>
      <trkpt lat="47.70501" lon="5.99136">
        <ele>335</ele>
        <time>2012-09-05T09:08:59.000Z</time>
      </trkpt>
      <trkpt lat="47.70497" lon="5.9914">
        <ele>334.20001220703</ele>
        <time>2012-09-05T09:09:00.000Z</time>
      </trkpt>
      <trkpt lat="47.70494" lon="5.99145">
        <ele>333.79998779297</ele>
        <time>2012-09-05T09:09:01.000Z</time>
      </trkpt>
      <trkpt lat="47.70489" lon="5.9915">
        <ele>333.39999389648</ele>
        <time>2012-09-05T09:09:02.000Z</time>
      </trkpt>
      <trkpt lat="47.70472" lon="5.9917">
        <ele>333.39999389648</ele>
        <time>2012-09-05T09:09:07.000Z</time>
      </trkpt>
      <trkpt lat="47.70467" lon="5.99177">
        <ele>333</ele>
        <time>2012-09-05T09:09:09.000Z</time>
      </trkpt>
      <trkpt lat="47.70466" lon="5.9918">
        <ele>332.60000610352</ele>
        <time>2012-09-05T09:09:10.000Z</time>
      </trkpt>
      <trkpt lat="47.70463" lon="5.99184">
        <ele>332.20001220703</ele>
        <time>2012-09-05T09:09:11.000Z</time>
      </trkpt>
      <trkpt lat="47.70461" lon="5.99188">
        <ele>331.60000610352</ele>
        <time>2012-09-05T09:09:12.000Z</time>
      </trkpt>
      <trkpt lat="47.70459" lon="5.99191">
        <ele>331.20001220703</ele>
        <time>2012-09-05T09:09:13.000Z</time>
      </trkpt>
      <trkpt lat="47.70453" lon="5.99201">
        <ele>331.20001220703</ele>
        <time>2012-09-05T09:09:17.000Z</time>
      </trkpt>
      <trkpt lat="47.7044" lon="5.99208">
        <ele>331.20001220703</ele>
        <time>2012-09-05T09:09:22.000Z</time>
      </trkpt>
      <trkpt lat="47.7043" lon="5.99211">
        <ele>330.79998779297</ele>
        <time>2012-09-05T09:09:25.000Z</time>
      </trkpt>
      <trkpt lat="47.70426" lon="5.99213">
        <ele>330.39999389648</ele>
        <time>2012-09-05T09:09:26.000Z</time>
      </trkpt>
      <trkpt lat="47.70423" lon="5.99214">
        <ele>330</ele>
        <time>2012-09-05T09:09:27.000Z</time>
      </trkpt>
      <trkpt lat="47.70419" lon="5.99216">
        <ele>329.60000610352</ele>
        <time>2012-09-05T09:09:28.000Z</time>
      </trkpt>
      <trkpt lat="47.70416" lon="5.99217">
        <ele>329.20001220703</ele>
        <time>2012-09-05T09:09:29.000Z</time>
      </trkpt>
      <trkpt lat="47.70404" lon="5.99224">
        <ele>329.20001220703</ele>
        <time>2012-09-05T09:09:33.000Z</time>
      </trkpt>
      <trkpt lat="47.70388" lon="5.99234">
        <ele>328.79998779297</ele>
        <time>2012-09-05T09:09:37.000Z</time>
      </trkpt>
      <trkpt lat="47.70385" lon="5.99236">
        <ele>328.39999389648</ele>
        <time>2012-09-05T09:09:38.000Z</time>
      </trkpt>
      <trkpt lat="47.70381" lon="5.99238">
        <ele>327.79998779297</ele>
        <time>2012-09-05T09:09:39.000Z</time>
      </trkpt>
      <trkpt lat="47.70377" lon="5.9924">
        <ele>327.39999389648</ele>
        <time>2012-09-05T09:09:40.000Z</time>
      </trkpt>
      <trkpt lat="47.70372" lon="5.99243">
        <ele>327</ele>
        <time>2012-09-05T09:09:41.000Z</time>
      </trkpt>
      <trkpt lat="47.70362" lon="5.99246">
        <ele>327</ele>
        <time>2012-09-05T09:09:44.000Z</time>
      </trkpt>
      <trkpt lat="47.70349" lon="5.99252">
        <ele>327</ele>
        <time>2012-09-05T09:09:49.000Z</time>
      </trkpt>
      <trkpt lat="47.70336" lon="5.99259">
        <ele>326.60000610352</ele>
        <time>2012-09-05T09:09:53.000Z</time>
      </trkpt>
      <trkpt lat="47.70332" lon="5.99262">
        <ele>326.20001220703</ele>
        <time>2012-09-05T09:09:54.000Z</time>
      </trkpt>
      <trkpt lat="47.70328" lon="5.99265">
        <ele>325.79998779297</ele>
        <time>2012-09-05T09:09:55.000Z</time>
      </trkpt>
      <trkpt lat="47.70324" lon="5.99268">
        <ele>325.39999389648</ele>
        <time>2012-09-05T09:09:56.000Z</time>
      </trkpt>
      <trkpt lat="47.7032" lon="5.9927">
        <ele>325</ele>
        <time>2012-09-05T09:09:57.000Z</time>
      </trkpt>
      <trkpt lat="47.70308" lon="5.99277">
        <ele>325</ele>
        <time>2012-09-05T09:10:00.000Z</time>
      </trkpt>
      <trkpt lat="47.70287" lon="5.99287">
        <ele>325</ele>
        <time>2012-09-05T09:10:07.000Z</time>
      </trkpt>
      <trkpt lat="47.70281" lon="5.99289">
        <ele>324.60000610352</ele>
        <time>2012-09-05T09:10:09.000Z</time>
      </trkpt>
      <trkpt lat="47.70277" lon="5.99289">
        <ele>324.20001220703</ele>
        <time>2012-09-05T09:10:10.000Z</time>
      </trkpt>
      <trkpt lat="47.70274" lon="5.9929">
        <ele>323.79998779297</ele>
        <time>2012-09-05T09:10:11.000Z</time>
      </trkpt>
      <trkpt lat="47.70271" lon="5.9929">
        <ele>323.39999389648</ele>
        <time>2012-09-05T09:10:12.000Z</time>
      </trkpt>
      <trkpt lat="47.70268" lon="5.99291">
        <ele>323</ele>
        <time>2012-09-05T09:10:13.000Z</time>
      </trkpt>
      <trkpt lat="47.70249" lon="5.99301">
        <ele>323</ele>
        <time>2012-09-05T09:10:18.000Z</time>
      </trkpt>
      <trkpt lat="47.70235" lon="5.99307">
        <ele>322.39999389648</ele>
        <time>2012-09-05T09:10:22.000Z</time>
      </trkpt>
      <trkpt lat="47.70233" lon="5.99309">
        <ele>322</ele>
        <time>2012-09-05T09:10:23.000Z</time>
      </trkpt>
      <trkpt lat="47.7023" lon="5.99308">
        <ele>321.60000610352</ele>
        <time>2012-09-05T09:10:24.000Z</time>
      </trkpt>
      <trkpt lat="47.70228" lon="5.99309">
        <ele>321.20001220703</ele>
        <time>2012-09-05T09:10:25.000Z</time>
      </trkpt>
      <trkpt lat="47.70226" lon="5.9931">
        <ele>320.60000610352</ele>
        <time>2012-09-05T09:10:26.000Z</time>
      </trkpt>
      <trkpt lat="47.70207" lon="5.99313">
        <ele>320.60000610352</ele>
        <time>2012-09-05T09:10:30.000Z</time>
      </trkpt>
      <trkpt lat="47.70184" lon="5.99328">
        <ele>320.60000610352</ele>
        <time>2012-09-05T09:10:37.000Z</time>
      </trkpt>
      <trkpt lat="47.70176" lon="5.99333">
        <ele>320.20001220703</ele>
        <time>2012-09-05T09:10:40.000Z</time>
      </trkpt>
      <trkpt lat="47.70174" lon="5.99333">
        <ele>319.79998779297</ele>
        <time>2012-09-05T09:10:41.000Z</time>
      </trkpt>
      <trkpt lat="47.70171" lon="5.99334">
        <ele>319.39999389648</ele>
        <time>2012-09-05T09:10:42.000Z</time>
      </trkpt>
      <trkpt lat="47.70169" lon="5.99336">
        <ele>319</ele>
        <time>2012-09-05T09:10:43.000Z</time>
      </trkpt>
      <trkpt lat="47.70167" lon="5.99337">
        <ele>318.60000610352</ele>
        <time>2012-09-05T09:10:44.000Z</time>
      </trkpt>
      <trkpt lat="47.70164" lon="5.99342">
        <ele>318.60000610352</ele>
        <time>2012-09-05T09:10:46.000Z</time>
      </trkpt>
      <trkpt lat="47.70156" lon="5.9935">
        <ele>318</ele>
        <time>2012-09-05T09:10:48.000Z</time>
      </trkpt>
      <trkpt lat="47.70151" lon="5.99355">
        <ele>317.60000610352</ele>
        <time>2012-09-05T09:10:49.000Z</time>
      </trkpt>
      <trkpt lat="47.70147" lon="5.9936">
        <ele>317</ele>
        <time>2012-09-05T09:10:50.000Z</time>
      </trkpt>
      <trkpt lat="47.70144" lon="5.99363">
        <ele>316.60000610352</ele>
        <time>2012-09-05T09:10:51.000Z</time>
      </trkpt>
      <trkpt lat="47.70141" lon="5.99366">
        <ele>316</ele>
        <time>2012-09-05T09:10:52.000Z</time>
      </trkpt>
      <trkpt lat="47.70139" lon="5.99369">
        <ele>316</ele>
        <time>2012-09-05T09:10:53.000Z</time>
      </trkpt>
      <trkpt lat="47.7013" lon="5.99381">
        <ele>315.60000610352</ele>
        <time>2012-09-05T09:10:58.000Z</time>
      </trkpt>
      <trkpt lat="47.70124" lon="5.99386">
        <ele>315.20001220703</ele>
        <time>2012-09-05T09:10:59.000Z</time>
      </trkpt>
      <trkpt lat="47.7012" lon="5.9939">
        <ele>314.79998779297</ele>
        <time>2012-09-05T09:11:00.000Z</time>
      </trkpt>
      <trkpt lat="47.70117" lon="5.99394">
        <ele>314.39999389648</ele>
        <time>2012-09-05T09:11:01.000Z</time>
      </trkpt>
      <trkpt lat="47.70116" lon="5.99399">
        <ele>314</ele>
        <time>2012-09-05T09:11:02.000Z</time>
      </trkpt>
      <trkpt lat="47.70113" lon="5.99403">
        <ele>313.60000610352</ele>
        <time>2012-09-05T09:11:03.000Z</time>
      </trkpt>
      <trkpt lat="47.70112" lon="5.99407">
        <ele>313.20001220703</ele>
        <time>2012-09-05T09:11:04.000Z</time>
      </trkpt>
      <trkpt lat="47.70109" lon="5.99412">
        <ele>312.79998779297</ele>
        <time>2012-09-05T09:11:05.000Z</time>
      </trkpt>
      <trkpt lat="47.70107" lon="5.99415">
        <ele>312.39999389648</ele>
        <time>2012-09-05T09:11:06.000Z</time>
      </trkpt>
      <trkpt lat="47.70105" lon="5.99419">
        <ele>311.79998779297</ele>
        <time>2012-09-05T09:11:07.000Z</time>
      </trkpt>
      <trkpt lat="47.70103" lon="5.99427">
        <ele>311.79998779297</ele>
        <time>2012-09-05T09:11:09.000Z</time>
      </trkpt>
      <trkpt lat="47.70101" lon="5.99432">
        <ele>311.39999389648</ele>
        <time>2012-09-05T09:11:10.000Z</time>
      </trkpt>
      <trkpt lat="47.70099" lon="5.99437">
        <ele>311</ele>
        <time>2012-09-05T09:11:11.000Z</time>
      </trkpt>
      <trkpt lat="47.70096" lon="5.99443">
        <ele>310.39999389648</ele>
        <time>2012-09-05T09:11:12.000Z</time>
      </trkpt>
      <trkpt lat="47.70094" lon="5.99446">
        <ele>310</ele>
        <time>2012-09-05T09:11:13.000Z</time>
      </trkpt>
      <trkpt lat="47.70091" lon="5.99452">
        <ele>309.39999389648</ele>
        <time>2012-09-05T09:11:14.000Z</time>
      </trkpt>
      <trkpt lat="47.7009" lon="5.99454">
        <ele>309.39999389648</ele>
        <time>2012-09-05T09:11:15.000Z</time>
      </trkpt>
      <trkpt lat="47.70088" lon="5.99458">
        <ele>309</ele>
        <time>2012-09-05T09:11:16.000Z</time>
      </trkpt>
      <trkpt lat="47.70087" lon="5.99462">
        <ele>308.60000610352</ele>
        <time>2012-09-05T09:11:17.000Z</time>
      </trkpt>
      <trkpt lat="47.70086" lon="5.99464">
        <ele>308.20001220703</ele>
        <time>2012-09-05T09:11:18.000Z</time>
      </trkpt>
      <trkpt lat="47.70085" lon="5.99466">
        <ele>307.79998779297</ele>
        <time>2012-09-05T09:11:19.000Z</time>
      </trkpt>
      <trkpt lat="47.70084" lon="5.99468">
        <ele>307.20001220703</ele>
        <time>2012-09-05T09:11:20.000Z</time>
      </trkpt>
      <trkpt lat="47.70083" lon="5.99473">
        <ele>307.20001220703</ele>
        <time>2012-09-05T09:11:21.000Z</time>
      </trkpt>
      <trkpt lat="47.70083" lon="5.99476">
        <ele>306.39999389648</ele>
        <time>2012-09-05T09:11:22.000Z</time>
      </trkpt>
      <trkpt lat="47.70083" lon="5.9948">
        <ele>306</ele>
        <time>2012-09-05T09:11:23.000Z</time>
      </trkpt>
      <trkpt lat="47.70081" lon="5.99483">
        <ele>305.60000610352</ele>
        <time>2012-09-05T09:11:24.000Z</time>
      </trkpt>
      <trkpt lat="47.70079" lon="5.99487">
        <ele>305.20001220703</ele>
        <time>2012-09-05T09:11:25.000Z</time>
      </trkpt>
      <trkpt lat="47.70076" lon="5.99493">
        <ele>305.20001220703</ele>
        <time>2012-09-05T09:11:27.000Z</time>
      </trkpt>
      <trkpt lat="47.70069" lon="5.99504">
        <ele>305.20001220703</ele>
        <time>2012-09-05T09:11:32.000Z</time>
      </trkpt>
      <trkpt lat="47.70068" lon="5.99506">
        <ele>305.20001220703</ele>
        <time>2012-09-05T09:11:33.000Z</time>
      </trkpt>
      <trkpt lat="47.70062" lon="5.99519">
        <ele>305.20001220703</ele>
        <time>2012-09-05T09:11:40.000Z</time>
      </trkpt>
      <trkpt lat="47.70058" lon="5.99529">
        <ele>305.60000610352</ele>
        <time>2012-09-05T09:11:43.000Z</time>
      </trkpt>
      <trkpt lat="47.70055" lon="5.99532">
        <ele>306</ele>
        <time>2012-09-05T09:11:44.000Z</time>
      </trkpt>
      <trkpt lat="47.70052" lon="5.99534">
        <ele>306.39999389648</ele>
        <time>2012-09-05T09:11:45.000Z</time>
      </trkpt>
      <trkpt lat="47.70051" lon="5.99535">
        <ele>306.79998779297</ele>
        <time>2012-09-05T09:11:46.000Z</time>
      </trkpt>
      <trkpt lat="47.7005" lon="5.99536">
        <ele>307.20001220703</ele>
        <time>2012-09-05T09:11:47.000Z</time>
      </trkpt>
      <trkpt lat="47.70044" lon="5.99544">
        <ele>307.60000610352</ele>
        <time>2012-09-05T09:11:51.000Z</time>
      </trkpt>
      <trkpt lat="47.70043" lon="5.99545">
        <ele>308</ele>
        <time>2012-09-05T09:11:52.000Z</time>
      </trkpt>
      <trkpt lat="47.70042" lon="5.99548">
        <ele>308.39999389648</ele>
        <time>2012-09-05T09:11:53.000Z</time>
      </trkpt>
      <trkpt lat="47.70042" lon="5.9955">
        <ele>308.79998779297</ele>
        <time>2012-09-05T09:11:54.000Z</time>
      </trkpt>
      <trkpt lat="47.7004" lon="5.99552">
        <ele>309.20001220703</ele>
        <time>2012-09-05T09:11:55.000Z</time>
      </trkpt>
      <trkpt lat="47.70035" lon="5.99564">
        <ele>309.20001220703</ele>
        <time>2012-09-05T09:11:59.000Z</time>
      </trkpt>
      <trkpt lat="47.70024" lon="5.99579">
        <ele>311.20001220703</ele>
        <time>2012-09-05T09:12:06.000Z</time>
      </trkpt>
      <trkpt lat="47.70012" lon="5.99594">
        <ele>311.79998779297</ele>
        <time>2012-09-05T09:12:14.000Z</time>
      </trkpt>
      <trkpt lat="47.70011" lon="5.99596">
        <ele>312.20001220703</ele>
        <time>2012-09-05T09:12:15.000Z</time>
      </trkpt>
      <trkpt lat="47.7001" lon="5.99598">
        <ele>312.60000610352</ele>
        <time>2012-09-05T09:12:16.000Z</time>
      </trkpt>
      <trkpt lat="47.70009" lon="5.996">
        <ele>313</ele>
        <time>2012-09-05T09:12:17.000Z</time>
      </trkpt>
      <trkpt lat="47.70007" lon="5.99602">
        <ele>313.39999389648</ele>
        <time>2012-09-05T09:12:18.000Z</time>
      </trkpt>
      <trkpt lat="47.70004" lon="5.99608">
        <ele>313.39999389648</ele>
        <time>2012-09-05T09:12:21.000Z</time>
      </trkpt>
      <trkpt lat="47.69998" lon="5.99621">
        <ele>313.39999389648</ele>
        <time>2012-09-05T09:12:26.000Z</time>
      </trkpt>
      <trkpt lat="47.69986" lon="5.99641">
        <ele>313.39999389648</ele>
        <time>2012-09-05T09:12:33.000Z</time>
      </trkpt>
      <trkpt lat="47.69976" lon="5.9966">
        <ele>313.39999389648</ele>
        <time>2012-09-05T09:12:40.000Z</time>
      </trkpt>
      <trkpt lat="47.69971" lon="5.99674">
        <ele>313.39999389648</ele>
        <time>2012-09-05T09:12:45.000Z</time>
      </trkpt>
      <trkpt lat="47.69962" lon="5.9969">
        <ele>313.39999389648</ele>
        <time>2012-09-05T09:12:52.000Z</time>
      </trkpt>
      <trkpt lat="47.6996" lon="5.99692">
        <ele>313.79998779297</ele>
        <time>2012-09-05T09:12:53.000Z</time>
      </trkpt>
      <trkpt lat="47.69958" lon="5.99694">
        <ele>314.20001220703</ele>
        <time>2012-09-05T09:12:54.000Z</time>
      </trkpt>
      <trkpt lat="47.69956" lon="5.99696">
        <ele>314.60000610352</ele>
        <time>2012-09-05T09:12:55.000Z</time>
      </trkpt>
      <trkpt lat="47.69955" lon="5.99697">
        <ele>315</ele>
        <time>2012-09-05T09:12:56.000Z</time>
      </trkpt>
      <trkpt lat="47.69953" lon="5.99699">
        <ele>315.39999389648</ele>
        <time>2012-09-05T09:12:57.000Z</time>
      </trkpt>
      <trkpt lat="47.69948" lon="5.99705">
        <ele>315.39999389648</ele>
        <time>2012-09-05T09:12:59.000Z</time>
      </trkpt>
      <trkpt lat="47.69932" lon="5.99726">
        <ele>315.39999389648</ele>
        <time>2012-09-05T09:13:05.000Z</time>
      </trkpt>
      <trkpt lat="47.69918" lon="5.99743">
        <ele>315.39999389648</ele>
        <time>2012-09-05T09:13:11.000Z</time>
      </trkpt>
      <trkpt lat="47.69905" lon="5.99757">
        <ele>315.39999389648</ele>
        <time>2012-09-05T09:13:17.000Z</time>
      </trkpt>
      <trkpt lat="47.69892" lon="5.9977">
        <ele>315.39999389648</ele>
        <time>2012-09-05T09:13:23.000Z</time>
      </trkpt>
      <trkpt lat="47.69884" lon="5.9978">
        <ele>315.79998779297</ele>
        <time>2012-09-05T09:13:28.000Z</time>
      </trkpt>
      <trkpt lat="47.69883" lon="5.99781">
        <ele>316.20001220703</ele>
        <time>2012-09-05T09:13:29.000Z</time>
      </trkpt>
      <trkpt lat="47.69881" lon="5.99783">
        <ele>316.60000610352</ele>
        <time>2012-09-05T09:13:30.000Z</time>
      </trkpt>
      <trkpt lat="47.69879" lon="5.99784">
        <ele>317</ele>
        <time>2012-09-05T09:13:31.000Z</time>
      </trkpt>
      <trkpt lat="47.69878" lon="5.99786">
        <ele>317.39999389648</ele>
        <time>2012-09-05T09:13:32.000Z</time>
      </trkpt>
      <trkpt lat="47.69871" lon="5.99796">
        <ele>317.39999389648</ele>
        <time>2012-09-05T09:13:37.000Z</time>
      </trkpt>
      <trkpt lat="47.69858" lon="5.99808">
        <ele>317.39999389648</ele>
        <time>2012-09-05T09:13:45.000Z</time>
      </trkpt>
      <trkpt lat="47.69849" lon="5.99812">
        <ele>317.79998779297</ele>
        <time>2012-09-05T09:13:50.000Z</time>
      </trkpt>
      <trkpt lat="47.69847" lon="5.99813">
        <ele>318.20001220703</ele>
        <time>2012-09-05T09:13:51.000Z</time>
      </trkpt>
      <trkpt lat="47.69846" lon="5.99814">
        <ele>318.60000610352</ele>
        <time>2012-09-05T09:13:52.000Z</time>
      </trkpt>
      <trkpt lat="47.69844" lon="5.99815">
        <ele>319</ele>
        <time>2012-09-05T09:13:53.000Z</time>
      </trkpt>
      <trkpt lat="47.69842" lon="5.99816">
        <ele>319.60000610352</ele>
        <time>2012-09-05T09:13:54.000Z</time>
      </trkpt>
      <trkpt lat="47.69839" lon="5.99818">
        <ele>319.60000610352</ele>
        <time>2012-09-05T09:13:57.000Z</time>
      </trkpt>
      <trkpt lat="47.69839" lon="5.99819">
        <ele>319.60000610352</ele>
        <time>2012-09-05T09:14:22.000Z</time>
      </trkpt>
      <trkpt lat="47.69838" lon="5.9982">
        <ele>319.60000610352</ele>
        <time>2012-09-05T09:14:23.000Z</time>
      </trkpt>
      <trkpt lat="47.69831" lon="5.9983">
        <ele>319.60000610352</ele>
        <time>2012-09-05T09:14:27.000Z</time>
      </trkpt>
      <trkpt lat="47.69816" lon="5.99843">
        <ele>319.60000610352</ele>
        <time>2012-09-05T09:14:31.000Z</time>
      </trkpt>
      <trkpt lat="47.69812" lon="5.99847">
        <ele>319.60000610352</ele>
        <time>2012-09-05T09:14:32.000Z</time>
      </trkpt>
      <trkpt lat="47.69794" lon="5.99858">
        <ele>319.60000610352</ele>
        <time>2012-09-05T09:14:36.000Z</time>
      </trkpt>
      <trkpt lat="47.6978" lon="5.99869">
        <ele>319</ele>
        <time>2012-09-05T09:14:39.000Z</time>
      </trkpt>
      <trkpt lat="47.69776" lon="5.99873">
        <ele>318.20001220703</ele>
        <time>2012-09-05T09:14:40.000Z</time>
      </trkpt>
      <trkpt lat="47.69772" lon="5.99876">
        <ele>317.79998779297</ele>
        <time>2012-09-05T09:14:41.000Z</time>
      </trkpt>
      <trkpt lat="47.69768" lon="5.99879">
        <ele>317.39999389648</ele>
        <time>2012-09-05T09:14:42.000Z</time>
      </trkpt>
      <trkpt lat="47.69761" lon="5.99887">
        <ele>317.39999389648</ele>
        <time>2012-09-05T09:14:45.000Z</time>
      </trkpt>
      <trkpt lat="47.69761" lon="5.9989">
        <ele>317.39999389648</ele>
        <time>2012-09-05T09:14:46.000Z</time>
      </trkpt>
      <trkpt lat="47.69768" lon="5.99901">
        <ele>317.39999389648</ele>
        <time>2012-09-05T09:14:51.000Z</time>
      </trkpt>
      <trkpt lat="47.69774" lon="5.99912">
        <ele>317.39999389648</ele>
        <time>2012-09-05T09:14:56.000Z</time>
      </trkpt>
      <trkpt lat="47.69775" lon="5.99915">
        <ele>317.39999389648</ele>
        <time>2012-09-05T09:14:57.000Z</time>
      </trkpt>
      <trkpt lat="47.69785" lon="5.9993">
        <ele>317.39999389648</ele>
        <time>2012-09-05T09:15:02.000Z</time>
      </trkpt>
      <trkpt lat="47.69797" lon="5.99943">
        <ele>317.39999389648</ele>
        <time>2012-09-05T09:15:08.000Z</time>
      </trkpt>
      <trkpt lat="47.69808" lon="5.99956">
        <ele>317.39999389648</ele>
        <time>2012-09-05T09:15:13.000Z</time>
      </trkpt>
      <trkpt lat="47.69819" lon="5.99969">
        <ele>317.39999389648</ele>
        <time>2012-09-05T09:15:19.000Z</time>
      </trkpt>
      <trkpt lat="47.69833" lon="5.99982">
        <ele>317.39999389648</ele>
        <time>2012-09-05T09:15:27.000Z</time>
      </trkpt>
      <trkpt lat="47.69843" lon="5.99993">
        <ele>317.39999389648</ele>
        <time>2012-09-05T09:15:34.000Z</time>
      </trkpt>
      <trkpt lat="47.69853" lon="6.00008">
        <ele>317.39999389648</ele>
        <time>2012-09-05T09:15:40.000Z</time>
      </trkpt>
      <trkpt lat="47.6987" lon="6.00026">
        <ele>317.39999389648</ele>
        <time>2012-09-05T09:15:46.000Z</time>
      </trkpt>
      <trkpt lat="47.69888" lon="6.00049">
        <ele>317.39999389648</ele>
        <time>2012-09-05T09:15:53.000Z</time>
      </trkpt>
      <trkpt lat="47.69904" lon="6.00071">
        <ele>317.39999389648</ele>
        <time>2012-09-05T09:15:59.000Z</time>
      </trkpt>
      <trkpt lat="47.69916" lon="6.00088">
        <ele>317.39999389648</ele>
        <time>2012-09-05T09:16:05.000Z</time>
      </trkpt>
      <trkpt lat="47.69933" lon="6.00105">
        <ele>317.39999389648</ele>
        <time>2012-09-05T09:16:11.000Z</time>
      </trkpt>
      <trkpt lat="47.69947" lon="6.00124">
        <ele>317.39999389648</ele>
        <time>2012-09-05T09:16:17.000Z</time>
      </trkpt>
      <trkpt lat="47.69965" lon="6.0015">
        <ele>317.39999389648</ele>
        <time>2012-09-05T09:16:24.000Z</time>
      </trkpt>
      <trkpt lat="47.69971" lon="6.00157">
        <ele>317</ele>
        <time>2012-09-05T09:16:26.000Z</time>
      </trkpt>
      <trkpt lat="47.69974" lon="6.00161">
        <ele>316.60000610352</ele>
        <time>2012-09-05T09:16:27.000Z</time>
      </trkpt>
      <trkpt lat="47.69976" lon="6.00165">
        <ele>316.20001220703</ele>
        <time>2012-09-05T09:16:28.000Z</time>
      </trkpt>
      <trkpt lat="47.69979" lon="6.00169">
        <ele>315.79998779297</ele>
        <time>2012-09-05T09:16:29.000Z</time>
      </trkpt>
      <trkpt lat="47.69981" lon="6.00172">
        <ele>315.39999389648</ele>
        <time>2012-09-05T09:16:30.000Z</time>
      </trkpt>
      <trkpt lat="47.69993" lon="6.00188">
        <ele>315.39999389648</ele>
        <time>2012-09-05T09:16:35.000Z</time>
      </trkpt>
      <trkpt lat="47.69995" lon="6.0019">
        <ele>315</ele>
        <time>2012-09-05T09:16:36.000Z</time>
      </trkpt>
      <trkpt lat="47.69997" lon="6.00194">
        <ele>314.60000610352</ele>
        <time>2012-09-05T09:16:37.000Z</time>
      </trkpt>
      <trkpt lat="47.69999" lon="6.00197">
        <ele>314</ele>
        <time>2012-09-05T09:16:38.000Z</time>
      </trkpt>
      <trkpt lat="47.70002" lon="6.00202">
        <ele>313.60000610352</ele>
        <time>2012-09-05T09:16:39.000Z</time>
      </trkpt>
      <trkpt lat="47.70002" lon="6.00207">
        <ele>313.20001220703</ele>
        <time>2012-09-05T09:16:40.000Z</time>
      </trkpt>
      <trkpt lat="47.7" lon="6.00228">
        <ele>313.20001220703</ele>
        <time>2012-09-05T09:16:44.000Z</time>
      </trkpt>
      <trkpt lat="47.69991" lon="6.00245">
        <ele>313.20001220703</ele>
        <time>2012-09-05T09:16:49.000Z</time>
      </trkpt>
      <trkpt lat="47.69982" lon="6.00261">
        <ele>313.20001220703</ele>
        <time>2012-09-05T09:16:54.000Z</time>
      </trkpt>
      <trkpt lat="47.69969" lon="6.00281">
        <ele>313.20001220703</ele>
        <time>2012-09-05T09:17:00.000Z</time>
      </trkpt>
      <trkpt lat="47.69963" lon="6.00289">
        <ele>312.79998779297</ele>
        <time>2012-09-05T09:17:02.000Z</time>
      </trkpt>
      <trkpt lat="47.6996" lon="6.00293">
        <ele>312.39999389648</ele>
        <time>2012-09-05T09:17:03.000Z</time>
      </trkpt>
      <trkpt lat="47.69957" lon="6.00299">
        <ele>312</ele>
        <time>2012-09-05T09:17:04.000Z</time>
      </trkpt>
      <trkpt lat="47.69954" lon="6.00303">
        <ele>311.60000610352</ele>
        <time>2012-09-05T09:17:05.000Z</time>
      </trkpt>
      <trkpt lat="47.69951" lon="6.00308">
        <ele>311.20001220703</ele>
        <time>2012-09-05T09:17:06.000Z</time>
      </trkpt>
      <trkpt lat="47.69949" lon="6.00312">
        <ele>311.20001220703</ele>
        <time>2012-09-05T09:17:07.000Z</time>
      </trkpt>
      <trkpt lat="47.69935" lon="6.00333">
        <ele>311.20001220703</ele>
        <time>2012-09-05T09:17:12.000Z</time>
      </trkpt>
      <trkpt lat="47.69926" lon="6.00348">
        <ele>311.20001220703</ele>
        <time>2012-09-05T09:17:15.000Z</time>
      </trkpt>
      <trkpt lat="47.69921" lon="6.00359">
        <ele>311.20001220703</ele>
        <time>2012-09-05T09:17:17.000Z</time>
      </trkpt>
      <trkpt lat="47.69919" lon="6.00365">
        <ele>310.79998779297</ele>
        <time>2012-09-05T09:17:18.000Z</time>
      </trkpt>
      <trkpt lat="47.69917" lon="6.00371">
        <ele>310.39999389648</ele>
        <time>2012-09-05T09:17:19.000Z</time>
      </trkpt>
      <trkpt lat="47.69914" lon="6.00378">
        <ele>310</ele>
        <time>2012-09-05T09:17:20.000Z</time>
      </trkpt>
      <trkpt lat="47.6991" lon="6.00385">
        <ele>309.60000610352</ele>
        <time>2012-09-05T09:17:21.000Z</time>
      </trkpt>
      <trkpt lat="47.69905" lon="6.00392">
        <ele>309.20001220703</ele>
        <time>2012-09-05T09:17:22.000Z</time>
      </trkpt>
      <trkpt lat="47.69898" lon="6.00407">
        <ele>308.79998779297</ele>
        <time>2012-09-05T09:17:24.000Z</time>
      </trkpt>
      <trkpt lat="47.69894" lon="6.00416">
        <ele>308.20001220703</ele>
        <time>2012-09-05T09:17:25.000Z</time>
      </trkpt>
      <trkpt lat="47.69889" lon="6.00424">
        <ele>307.79998779297</ele>
        <time>2012-09-05T09:17:26.000Z</time>
      </trkpt>
      <trkpt lat="47.69885" lon="6.00433">
        <ele>307.39999389648</ele>
        <time>2012-09-05T09:17:27.000Z</time>
      </trkpt>
      <trkpt lat="47.69881" lon="6.00442">
        <ele>306.79998779297</ele>
        <time>2012-09-05T09:17:28.000Z</time>
      </trkpt>
      <trkpt lat="47.69874" lon="6.00461">
        <ele>306.39999389648</ele>
        <time>2012-09-05T09:17:30.000Z</time>
      </trkpt>
      <trkpt lat="47.6987" lon="6.00471">
        <ele>306</ele>
        <time>2012-09-05T09:17:31.000Z</time>
      </trkpt>
      <trkpt lat="47.69867" lon="6.0048">
        <ele>305.60000610352</ele>
        <time>2012-09-05T09:17:32.000Z</time>
      </trkpt>
      <trkpt lat="47.69864" lon="6.00489">
        <ele>304.60000610352</ele>
        <time>2012-09-05T09:17:33.000Z</time>
      </trkpt>
      <trkpt lat="47.6986" lon="6.00498">
        <ele>304.20001220703</ele>
        <time>2012-09-05T09:17:34.000Z</time>
      </trkpt>
      <trkpt lat="47.69855" lon="6.00507">
        <ele>303.60000610352</ele>
        <time>2012-09-05T09:17:35.000Z</time>
      </trkpt>
      <trkpt lat="47.69851" lon="6.00515">
        <ele>303.20001220703</ele>
        <time>2012-09-05T09:17:36.000Z</time>
      </trkpt>
      <trkpt lat="47.69846" lon="6.00524">
        <ele>302.60000610352</ele>
        <time>2012-09-05T09:17:37.000Z</time>
      </trkpt>
      <trkpt lat="47.69837" lon="6.0054">
        <ele>302.20001220703</ele>
        <time>2012-09-05T09:17:39.000Z</time>
      </trkpt>
      <trkpt lat="47.69833" lon="6.00548">
        <ele>301.79998779297</ele>
        <time>2012-09-05T09:17:40.000Z</time>
      </trkpt>
      <trkpt lat="47.69829" lon="6.00556">
        <ele>301.39999389648</ele>
        <time>2012-09-05T09:17:41.000Z</time>
      </trkpt>
      <trkpt lat="47.69826" lon="6.00564">
        <ele>301</ele>
        <time>2012-09-05T09:17:42.000Z</time>
      </trkpt>
      <trkpt lat="47.69823" lon="6.00572">
        <ele>300.60000610352</ele>
        <time>2012-09-05T09:17:43.000Z</time>
      </trkpt>
      <trkpt lat="47.6982" lon="6.0058">
        <ele>300.60000610352</ele>
        <time>2012-09-05T09:17:44.000Z</time>
      </trkpt>
      <trkpt lat="47.69807" lon="6.00617">
        <ele>300.20001220703</ele>
        <time>2012-09-05T09:17:48.000Z</time>
      </trkpt>
      <trkpt lat="47.69803" lon="6.00627">
        <ele>299.60000610352</ele>
        <time>2012-09-05T09:17:49.000Z</time>
      </trkpt>
      <trkpt lat="47.698" lon="6.00637">
        <ele>299.20001220703</ele>
        <time>2012-09-05T09:17:50.000Z</time>
      </trkpt>
      <trkpt lat="47.69797" lon="6.00645">
        <ele>298.60000610352</ele>
        <time>2012-09-05T09:17:51.000Z</time>
      </trkpt>
      <trkpt lat="47.69794" lon="6.00654">
        <ele>298</ele>
        <time>2012-09-05T09:17:52.000Z</time>
      </trkpt>
      <trkpt lat="47.69791" lon="6.00663">
        <ele>297.39999389648</ele>
        <time>2012-09-05T09:17:53.000Z</time>
      </trkpt>
      <trkpt lat="47.69788" lon="6.00671">
        <ele>296.79998779297</ele>
        <time>2012-09-05T09:17:54.000Z</time>
      </trkpt>
      <trkpt lat="47.69784" lon="6.0068">
        <ele>296.20001220703</ele>
        <time>2012-09-05T09:17:55.000Z</time>
      </trkpt>
      <trkpt lat="47.6978" lon="6.00689">
        <ele>295.60000610352</ele>
        <time>2012-09-05T09:17:56.000Z</time>
      </trkpt>
      <trkpt lat="47.69777" lon="6.00698">
        <ele>295</ele>
        <time>2012-09-05T09:17:57.000Z</time>
      </trkpt>
      <trkpt lat="47.69774" lon="6.00707">
        <ele>294</ele>
        <time>2012-09-05T09:17:58.000Z</time>
      </trkpt>
      <trkpt lat="47.69771" lon="6.00716">
        <ele>293.39999389648</ele>
        <time>2012-09-05T09:17:59.000Z</time>
      </trkpt>
      <trkpt lat="47.69769" lon="6.00725">
        <ele>293</ele>
        <time>2012-09-05T09:18:00.000Z</time>
      </trkpt>
      <trkpt lat="47.69767" lon="6.00733">
        <ele>292.60000610352</ele>
        <time>2012-09-05T09:18:01.000Z</time>
      </trkpt>
      <trkpt lat="47.69767" lon="6.0074">
        <ele>292.20001220703</ele>
        <time>2012-09-05T09:18:02.000Z</time>
      </trkpt>
      <trkpt lat="47.69766" lon="6.00746">
        <ele>291.60000610352</ele>
        <time>2012-09-05T09:18:03.000Z</time>
      </trkpt>
      <trkpt lat="47.69766" lon="6.0076">
        <ele>291.60000610352</ele>
        <time>2012-09-05T09:18:06.000Z</time>
      </trkpt>
      <trkpt lat="47.69765" lon="6.00782">
        <ele>291.60000610352</ele>
        <time>2012-09-05T09:18:12.000Z</time>
      </trkpt>
      <trkpt lat="47.69766" lon="6.00813">
        <ele>291.60000610352</ele>
        <time>2012-09-05T09:18:18.000Z</time>
      </trkpt>
      <trkpt lat="47.69766" lon="6.00833">
        <ele>290.79998779297</ele>
        <time>2012-09-05T09:18:22.000Z</time>
      </trkpt>
      <trkpt lat="47.69766" lon="6.00837">
        <ele>290.39999389648</ele>
        <time>2012-09-05T09:18:23.000Z</time>
      </trkpt>
      <trkpt lat="47.69767" lon="6.00841">
        <ele>290</ele>
        <time>2012-09-05T09:18:24.000Z</time>
      </trkpt>
      <trkpt lat="47.69767" lon="6.00845">
        <ele>289.60000610352</ele>
        <time>2012-09-05T09:18:25.000Z</time>
      </trkpt>
      <trkpt lat="47.69767" lon="6.00854">
        <ele>289.60000610352</ele>
        <time>2012-09-05T09:18:27.000Z</time>
      </trkpt>
      <trkpt lat="47.69763" lon="6.00886">
        <ele>289.60000610352</ele>
        <time>2012-09-05T09:18:33.000Z</time>
      </trkpt>
      <trkpt lat="47.69762" lon="6.00916">
        <ele>289.60000610352</ele>
        <time>2012-09-05T09:18:38.000Z</time>
      </trkpt>
      <trkpt lat="47.69767" lon="6.00929">
        <ele>289.20001220703</ele>
        <time>2012-09-05T09:18:41.000Z</time>
      </trkpt>
      <trkpt lat="47.69769" lon="6.00932">
        <ele>288.79998779297</ele>
        <time>2012-09-05T09:18:42.000Z</time>
      </trkpt>
      <trkpt lat="47.69771" lon="6.00935">
        <ele>288.39999389648</ele>
        <time>2012-09-05T09:18:43.000Z</time>
      </trkpt>
      <trkpt lat="47.69774" lon="6.00938">
        <ele>288</ele>
        <time>2012-09-05T09:18:44.000Z</time>
      </trkpt>
      <trkpt lat="47.69776" lon="6.00941">
        <ele>287.60000610352</ele>
        <time>2012-09-05T09:18:45.000Z</time>
      </trkpt>
      <trkpt lat="47.69785" lon="6.00948">
        <ele>287.60000610352</ele>
        <time>2012-09-05T09:18:48.000Z</time>
      </trkpt>
      <trkpt lat="47.69795" lon="6.00957">
        <ele>287.60000610352</ele>
        <time>2012-09-05T09:18:51.000Z</time>
      </trkpt>
      <trkpt lat="47.69803" lon="6.00966">
        <ele>287.20001220703</ele>
        <time>2012-09-05T09:18:53.000Z</time>
      </trkpt>
      <trkpt lat="47.69807" lon="6.0097">
        <ele>286.79998779297</ele>
        <time>2012-09-05T09:18:54.000Z</time>
      </trkpt>
      <trkpt lat="47.69811" lon="6.00975">
        <ele>286.39999389648</ele>
        <time>2012-09-05T09:18:55.000Z</time>
      </trkpt>
      <trkpt lat="47.69814" lon="6.00979">
        <ele>285.79998779297</ele>
        <time>2012-09-05T09:18:56.000Z</time>
      </trkpt>
      <trkpt lat="47.69818" lon="6.00984">
        <ele>285.39999389648</ele>
        <time>2012-09-05T09:18:57.000Z</time>
      </trkpt>
      <trkpt lat="47.69827" lon="6.00992">
        <ele>285.39999389648</ele>
        <time>2012-09-05T09:18:59.000Z</time>
      </trkpt>
      <trkpt lat="47.69837" lon="6.01">
        <ele>285</ele>
        <time>2012-09-05T09:19:01.000Z</time>
      </trkpt>
      <trkpt lat="47.69842" lon="6.01004">
        <ele>284.60000610352</ele>
        <time>2012-09-05T09:19:02.000Z</time>
      </trkpt>
      <trkpt lat="47.69848" lon="6.01007">
        <ele>284.20001220703</ele>
        <time>2012-09-05T09:19:03.000Z</time>
      </trkpt>
      <trkpt lat="47.69853" lon="6.01011">
        <ele>283.79998779297</ele>
        <time>2012-09-05T09:19:04.000Z</time>
      </trkpt>
      <trkpt lat="47.69858" lon="6.01015">
        <ele>283.39999389648</ele>
        <time>2012-09-05T09:19:05.000Z</time>
      </trkpt>
      <trkpt lat="47.69869" lon="6.01024">
        <ele>283</ele>
        <time>2012-09-05T09:19:07.000Z</time>
      </trkpt>
      <trkpt lat="47.69874" lon="6.01028">
        <ele>282.60000610352</ele>
        <time>2012-09-05T09:19:08.000Z</time>
      </trkpt>
      <trkpt lat="47.6988" lon="6.01033">
        <ele>282.20001220703</ele>
        <time>2012-09-05T09:19:09.000Z</time>
      </trkpt>
      <trkpt lat="47.69885" lon="6.01038">
        <ele>281.79998779297</ele>
        <time>2012-09-05T09:19:10.000Z</time>
      </trkpt>
      <trkpt lat="47.69889" lon="6.01044">
        <ele>281.39999389648</ele>
        <time>2012-09-05T09:19:11.000Z</time>
      </trkpt>
      <trkpt lat="47.69898" lon="6.01057">
        <ele>281</ele>
        <time>2012-09-05T09:19:13.000Z</time>
      </trkpt>
      <trkpt lat="47.69903" lon="6.01064">
        <ele>280.60000610352</ele>
        <time>2012-09-05T09:19:14.000Z</time>
      </trkpt>
      <trkpt lat="47.69907" lon="6.0107">
        <ele>280.20001220703</ele>
        <time>2012-09-05T09:19:15.000Z</time>
      </trkpt>
      <trkpt lat="47.6991" lon="6.01077">
        <ele>279.79998779297</ele>
        <time>2012-09-05T09:19:16.000Z</time>
      </trkpt>
      <trkpt lat="47.69913" lon="6.01083">
        <ele>279.39999389648</ele>
        <time>2012-09-05T09:19:17.000Z</time>
      </trkpt>
      <trkpt lat="47.6992" lon="6.01095">
        <ele>279.39999389648</ele>
        <time>2012-09-05T09:19:19.000Z</time>
      </trkpt>
      <trkpt lat="47.69938" lon="6.0112">
        <ele>279.39999389648</ele>
        <time>2012-09-05T09:19:24.000Z</time>
      </trkpt>
      <trkpt lat="47.69941" lon="6.01123">
        <ele>279</ele>
        <time>2012-09-05T09:19:25.000Z</time>
      </trkpt>
      <trkpt lat="47.69944" lon="6.01127">
        <ele>278.60000610352</ele>
        <time>2012-09-05T09:19:26.000Z</time>
      </trkpt>
      <trkpt lat="47.69947" lon="6.01131">
        <ele>278.20001220703</ele>
        <time>2012-09-05T09:19:27.000Z</time>
      </trkpt>
      <trkpt lat="47.69951" lon="6.01136">
        <ele>277.79998779297</ele>
        <time>2012-09-05T09:19:28.000Z</time>
      </trkpt>
      <trkpt lat="47.69955" lon="6.01142">
        <ele>277.39999389648</ele>
        <time>2012-09-05T09:19:29.000Z</time>
      </trkpt>
      <trkpt lat="47.69963" lon="6.01159">
        <ele>276.79998779297</ele>
        <time>2012-09-05T09:19:32.000Z</time>
      </trkpt>
      <trkpt lat="47.69967" lon="6.01166">
        <ele>276.39999389648</ele>
        <time>2012-09-05T09:19:33.000Z</time>
      </trkpt>
      <trkpt lat="47.69972" lon="6.01173">
        <ele>275.79998779297</ele>
        <time>2012-09-05T09:19:34.000Z</time>
      </trkpt>
      <trkpt lat="47.69976" lon="6.01179">
        <ele>275.39999389648</ele>
        <time>2012-09-05T09:19:35.000Z</time>
      </trkpt>
      <trkpt lat="47.6998" lon="6.01184">
        <ele>275</ele>
        <time>2012-09-05T09:19:36.000Z</time>
      </trkpt>
      <trkpt lat="47.69983" lon="6.01188">
        <ele>274.39999389648</ele>
        <time>2012-09-05T09:19:37.000Z</time>
      </trkpt>
      <trkpt lat="47.69986" lon="6.01191">
        <ele>274</ele>
        <time>2012-09-05T09:19:38.000Z</time>
      </trkpt>
      <trkpt lat="47.69988" lon="6.01195">
        <ele>273.60000610352</ele>
        <time>2012-09-05T09:19:39.000Z</time>
      </trkpt>
      <trkpt lat="47.6999" lon="6.01198">
        <ele>273</ele>
        <time>2012-09-05T09:19:40.000Z</time>
      </trkpt>
      <trkpt lat="47.69992" lon="6.01201">
        <ele>272.60000610352</ele>
        <time>2012-09-05T09:19:41.000Z</time>
      </trkpt>
      <trkpt lat="47.69996" lon="6.01209">
        <ele>272.60000610352</ele>
        <time>2012-09-05T09:19:44.000Z</time>
      </trkpt>
      <trkpt lat="47.70003" lon="6.01223">
        <ele>272.60000610352</ele>
        <time>2012-09-05T09:19:48.000Z</time>
      </trkpt>
      <trkpt lat="47.70016" lon="6.01243">
        <ele>272.20001220703</ele>
        <time>2012-09-05T09:19:54.000Z</time>
      </trkpt>
      <trkpt lat="47.70018" lon="6.01246">
        <ele>271.79998779297</ele>
        <time>2012-09-05T09:19:55.000Z</time>
      </trkpt>
      <trkpt lat="47.70021" lon="6.01249">
        <ele>271.39999389648</ele>
        <time>2012-09-05T09:19:56.000Z</time>
      </trkpt>
      <trkpt lat="47.70023" lon="6.01252">
        <ele>271</ele>
        <time>2012-09-05T09:19:57.000Z</time>
      </trkpt>
      <trkpt lat="47.70025" lon="6.01254">
        <ele>270.60000610352</ele>
        <time>2012-09-05T09:19:58.000Z</time>
      </trkpt>
      <trkpt lat="47.7003" lon="6.01259">
        <ele>270.60000610352</ele>
        <time>2012-09-05T09:20:00.000Z</time>
      </trkpt>
      <trkpt lat="47.70039" lon="6.01275">
        <ele>270</ele>
        <time>2012-09-05T09:20:04.000Z</time>
      </trkpt>
      <trkpt lat="47.70042" lon="6.0128">
        <ele>269.60000610352</ele>
        <time>2012-09-05T09:20:05.000Z</time>
      </trkpt>
      <trkpt lat="47.70046" lon="6.01286">
        <ele>269.20001220703</ele>
        <time>2012-09-05T09:20:06.000Z</time>
      </trkpt>
      <trkpt lat="47.7005" lon="6.01293">
        <ele>268.79998779297</ele>
        <time>2012-09-05T09:20:07.000Z</time>
      </trkpt>
      <trkpt lat="47.70054" lon="6.01302">
        <ele>268.20001220703</ele>
        <time>2012-09-05T09:20:08.000Z</time>
      </trkpt>
      <trkpt lat="47.70061" lon="6.01319">
        <ele>268.20001220703</ele>
        <time>2012-09-05T09:20:10.000Z</time>
      </trkpt>
      <trkpt lat="47.70081" lon="6.01357">
        <ele>267.79998779297</ele>
        <time>2012-09-05T09:20:15.000Z</time>
      </trkpt>
      <trkpt lat="47.70085" lon="6.01363">
        <ele>267.39999389648</ele>
        <time>2012-09-05T09:20:16.000Z</time>
      </trkpt>
      <trkpt lat="47.70088" lon="6.01369">
        <ele>267</ele>
        <time>2012-09-05T09:20:17.000Z</time>
      </trkpt>
      <trkpt lat="47.70092" lon="6.01373">
        <ele>266.60000610352</ele>
        <time>2012-09-05T09:20:18.000Z</time>
      </trkpt>
      <trkpt lat="47.70095" lon="6.01377">
        <ele>266.20001220703</ele>
        <time>2012-09-05T09:20:19.000Z</time>
      </trkpt>
      <trkpt lat="47.701" lon="6.01381">
        <ele>266.20001220703</ele>
        <time>2012-09-05T09:20:20.000Z</time>
      </trkpt>
      <trkpt lat="47.70105" lon="6.01383">
        <ele>266.20001220703</ele>
        <time>2012-09-05T09:20:21.000Z</time>
      </trkpt>
      <trkpt lat="47.70133" lon="6.01391">
        <ele>266.20001220703</ele>
        <time>2012-09-05T09:20:26.000Z</time>
      </trkpt>
      <trkpt lat="47.70146" lon="6.01392">
        <ele>265.79998779297</ele>
        <time>2012-09-05T09:20:29.000Z</time>
      </trkpt>
      <trkpt lat="47.70148" lon="6.01393">
        <ele>265.20001220703</ele>
        <time>2012-09-05T09:20:30.000Z</time>
      </trkpt>
      <trkpt lat="47.70149" lon="6.01394">
        <ele>264.79998779297</ele>
        <time>2012-09-05T09:20:31.000Z</time>
      </trkpt>
      <trkpt lat="47.7015" lon="6.01394">
        <ele>264.39999389648</ele>
        <time>2012-09-05T09:20:32.000Z</time>
      </trkpt>
      <trkpt lat="47.7015" lon="6.01395">
        <ele>264</ele>
        <time>2012-09-05T09:20:33.000Z</time>
      </trkpt>
      <trkpt lat="47.70151" lon="6.01396">
        <ele>264</ele>
        <time>2012-09-05T09:20:34.000Z</time>
      </trkpt>
      <trkpt lat="47.70153" lon="6.01398">
        <ele>264</ele>
        <time>2012-09-05T09:20:45.000Z</time>
      </trkpt>
      <trkpt lat="47.70165" lon="6.01402">
        <ele>264</ele>
        <time>2012-09-05T09:20:49.000Z</time>
      </trkpt>
      <trkpt lat="47.70182" lon="6.0141">
        <ele>264</ele>
        <time>2012-09-05T09:20:54.000Z</time>
      </trkpt>
      <trkpt lat="47.70208" lon="6.01421">
        <ele>264</ele>
        <time>2012-09-05T09:21:00.000Z</time>
      </trkpt>
      <trkpt lat="47.70214" lon="6.01422">
        <ele>263.39999389648</ele>
        <time>2012-09-05T09:21:01.000Z</time>
      </trkpt>
      <trkpt lat="47.70219" lon="6.01424">
        <ele>263</ele>
        <time>2012-09-05T09:21:02.000Z</time>
      </trkpt>
      <trkpt lat="47.70225" lon="6.01425">
        <ele>262.60000610352</ele>
        <time>2012-09-05T09:21:03.000Z</time>
      </trkpt>
      <trkpt lat="47.70231" lon="6.01426">
        <ele>262.20001220703</ele>
        <time>2012-09-05T09:21:04.000Z</time>
      </trkpt>
      <trkpt lat="47.70237" lon="6.01426">
        <ele>261.79998779297</ele>
        <time>2012-09-05T09:21:05.000Z</time>
      </trkpt>
      <trkpt lat="47.70243" lon="6.01425">
        <ele>261.79998779297</ele>
        <time>2012-09-05T09:21:06.000Z</time>
      </trkpt>
      <trkpt lat="47.70263" lon="6.01423">
        <ele>261.79998779297</ele>
        <time>2012-09-05T09:21:10.000Z</time>
      </trkpt>
      <trkpt lat="47.70271" lon="6.01422">
        <ele>261.79998779297</ele>
        <time>2012-09-05T09:21:12.000Z</time>
      </trkpt>
      <trkpt lat="47.70282" lon="6.01424">
        <ele>261.79998779297</ele>
        <time>2012-09-05T09:21:15.000Z</time>
      </trkpt>
      <trkpt lat="47.70301" lon="6.01436">
        <ele>261.79998779297</ele>
        <time>2012-09-05T09:21:19.000Z</time>
      </trkpt>
      <trkpt lat="47.70319" lon="6.01447">
        <ele>261.79998779297</ele>
        <time>2012-09-05T09:21:23.000Z</time>
      </trkpt>
      <trkpt lat="47.70327" lon="6.01449">
        <ele>261.79998779297</ele>
        <time>2012-09-05T09:21:27.000Z</time>
      </trkpt>
      <trkpt lat="47.70329" lon="6.01448">
        <ele>261.79998779297</ele>
        <time>2012-09-05T09:21:29.000Z</time>
      </trkpt>
      <trkpt lat="47.70331" lon="6.01457">
        <ele>261.79998779297</ele>
        <time>2012-09-05T09:21:39.000Z</time>
      </trkpt>
      <trkpt lat="47.7033" lon="6.0146">
        <ele>261.79998779297</ele>
        <time>2012-09-05T09:21:40.000Z</time>
      </trkpt>
      <trkpt lat="47.70329" lon="6.01465">
        <ele>261.39999389648</ele>
        <time>2012-09-05T09:21:42.000Z</time>
      </trkpt>
      <trkpt lat="47.70329" lon="6.01466">
        <ele>261</ele>
        <time>2012-09-05T09:21:43.000Z</time>
      </trkpt>
      <trkpt lat="47.70328" lon="6.01468">
        <ele>260.60000610352</ele>
        <time>2012-09-05T09:21:44.000Z</time>
      </trkpt>
      <trkpt lat="47.70328" lon="6.0147">
        <ele>260.20001220703</ele>
        <time>2012-09-05T09:21:45.000Z</time>
      </trkpt>
      <trkpt lat="47.70327" lon="6.01471">
        <ele>259.79998779297</ele>
        <time>2012-09-05T09:21:46.000Z</time>
      </trkpt>
      <trkpt lat="47.70322" lon="6.0148">
        <ele>259.79998779297</ele>
        <time>2012-09-05T09:21:51.000Z</time>
      </trkpt>
      <trkpt lat="47.70322" lon="6.01482">
        <ele>259.79998779297</ele>
        <time>2012-09-05T09:21:52.000Z</time>
      </trkpt>
      <trkpt lat="47.70318" lon="6.01489">
        <ele>259.79998779297</ele>
        <time>2012-09-05T09:21:58.000Z</time>
      </trkpt>
      <trkpt lat="47.70312" lon="6.01492">
        <ele>259.79998779297</ele>
        <time>2012-09-05T09:22:03.000Z</time>
      </trkpt>
      <trkpt lat="47.70308" lon="6.01494">
        <ele>259.79998779297</ele>
        <time>2012-09-05T09:22:05.000Z</time>
      </trkpt>
      <trkpt lat="47.70304" lon="6.01499">
        <ele>259.79998779297</ele>
        <time>2012-09-05T09:22:08.000Z</time>
      </trkpt>
      <trkpt lat="47.70301" lon="6.01506">
        <ele>259.79998779297</ele>
        <time>2012-09-05T09:22:11.000Z</time>
      </trkpt>
      <trkpt lat="47.703" lon="6.01519">
        <ele>259.79998779297</ele>
        <time>2012-09-05T09:22:17.000Z</time>
      </trkpt>
      <trkpt lat="47.70294" lon="6.01536">
        <ele>259.79998779297</ele>
        <time>2012-09-05T09:22:24.000Z</time>
      </trkpt>
      <trkpt lat="47.7029" lon="6.01541">
        <ele>259.79998779297</ele>
        <time>2012-09-05T09:22:25.000Z</time>
      </trkpt>
      <trkpt lat="47.7028" lon="6.01549">
        <ele>259.79998779297</ele>
        <time>2012-09-05T09:22:28.000Z</time>
      </trkpt>
      <trkpt lat="47.70275" lon="6.01555">
        <ele>259.79998779297</ele>
        <time>2012-09-05T09:22:30.000Z</time>
      </trkpt>
      <trkpt lat="47.70268" lon="6.01566">
        <ele>259.79998779297</ele>
        <time>2012-09-05T09:22:35.000Z</time>
      </trkpt>
      <trkpt lat="47.70267" lon="6.01569">
        <ele>260.20001220703</ele>
        <time>2012-09-05T09:22:36.000Z</time>
      </trkpt>
      <trkpt lat="47.70266" lon="6.01572">
        <ele>260.60000610352</ele>
        <time>2012-09-05T09:22:37.000Z</time>
      </trkpt>
      <trkpt lat="47.70265" lon="6.01575">
        <ele>261</ele>
        <time>2012-09-05T09:22:38.000Z</time>
      </trkpt>
      <trkpt lat="47.70263" lon="6.01577">
        <ele>261.39999389648</ele>
        <time>2012-09-05T09:22:39.000Z</time>
      </trkpt>
      <trkpt lat="47.70262" lon="6.0158">
        <ele>261.79998779297</ele>
        <time>2012-09-05T09:22:40.000Z</time>
      </trkpt>
      <trkpt lat="47.70262" lon="6.01582">
        <ele>261.79998779297</ele>
        <time>2012-09-05T09:22:41.000Z</time>
      </trkpt>
      <trkpt lat="47.70258" lon="6.01598">
        <ele>261.79998779297</ele>
        <time>2012-09-05T09:22:48.000Z</time>
      </trkpt>
      <trkpt lat="47.70252" lon="6.01612">
        <ele>261.79998779297</ele>
        <time>2012-09-05T09:22:54.000Z</time>
      </trkpt>
      <trkpt lat="47.70252" lon="6.01621">
        <ele>262.20001220703</ele>
        <time>2012-09-05T09:22:58.000Z</time>
      </trkpt>
      <trkpt lat="47.70252" lon="6.01624">
        <ele>262.60000610352</ele>
        <time>2012-09-05T09:22:59.000Z</time>
      </trkpt>
      <trkpt lat="47.70253" lon="6.01625">
        <ele>263</ele>
        <time>2012-09-05T09:23:00.000Z</time>
      </trkpt>
      <trkpt lat="47.70253" lon="6.01627">
        <ele>263.39999389648</ele>
        <time>2012-09-05T09:23:01.000Z</time>
      </trkpt>
      <trkpt lat="47.70253" lon="6.01628">
        <ele>263.79998779297</ele>
        <time>2012-09-05T09:23:02.000Z</time>
      </trkpt>
      <trkpt lat="47.70252" lon="6.01631">
        <ele>263.79998779297</ele>
        <time>2012-09-05T09:23:04.000Z</time>
      </trkpt>
      <trkpt lat="47.70221" lon="6.01663">
        <ele>263.79998779297</ele>
        <time>2012-09-05T09:23:29.000Z</time>
      </trkpt>
      <trkpt lat="47.7022" lon="6.0167">
        <ele>263.79998779297</ele>
        <time>2012-09-05T09:23:32.000Z</time>
      </trkpt>
      <trkpt lat="47.70213" lon="6.01685">
        <ele>263.79998779297</ele>
        <time>2012-09-05T09:23:39.000Z</time>
      </trkpt>
      <trkpt lat="47.70206" lon="6.01705">
        <ele>263.79998779297</ele>
        <time>2012-09-05T09:23:46.000Z</time>
      </trkpt>
      <trkpt lat="47.70201" lon="6.01715">
        <ele>263.79998779297</ele>
        <time>2012-09-05T09:23:50.000Z</time>
      </trkpt>
      <trkpt lat="47.70197" lon="6.01721">
        <ele>263.79998779297</ele>
        <time>2012-09-05T09:23:53.000Z</time>
      </trkpt>
      <trkpt lat="47.70193" lon="6.01727">
        <ele>264.20001220703</ele>
        <time>2012-09-05T09:23:56.000Z</time>
      </trkpt>
      <trkpt lat="47.70193" lon="6.0173">
        <ele>264.60000610352</ele>
        <time>2012-09-05T09:23:57.000Z</time>
      </trkpt>
      <trkpt lat="47.70191" lon="6.01733">
        <ele>265.20001220703</ele>
        <time>2012-09-05T09:23:58.000Z</time>
      </trkpt>
      <trkpt lat="47.70189" lon="6.01736">
        <ele>265.60000610352</ele>
        <time>2012-09-05T09:23:59.000Z</time>
      </trkpt>
      <trkpt lat="47.70189" lon="6.01739">
        <ele>266</ele>
        <time>2012-09-05T09:24:00.000Z</time>
      </trkpt>
      <trkpt lat="47.70179" lon="6.01757">
        <ele>266</ele>
        <time>2012-09-05T09:24:05.000Z</time>
      </trkpt>
      <trkpt lat="47.70178" lon="6.0176">
        <ele>266</ele>
        <time>2012-09-05T09:24:06.000Z</time>
      </trkpt>
      <trkpt lat="47.70175" lon="6.01767">
        <ele>266</ele>
        <time>2012-09-05T09:24:09.000Z</time>
      </trkpt>
      <trkpt lat="47.70171" lon="6.01775">
        <ele>266</ele>
        <time>2012-09-05T09:24:32.000Z</time>
      </trkpt>
      <trkpt lat="47.70169" lon="6.01777">
        <ele>266</ele>
        <time>2012-09-05T09:24:33.000Z</time>
      </trkpt>
      <trkpt lat="47.70161" lon="6.01788">
        <ele>266</ele>
        <time>2012-09-05T09:24:38.000Z</time>
      </trkpt>
      <trkpt lat="47.70152" lon="6.01803">
        <ele>266</ele>
        <time>2012-09-05T09:24:45.000Z</time>
      </trkpt>
      <trkpt lat="47.70145" lon="6.01812">
        <ele>265.39999389648</ele>
        <time>2012-09-05T09:24:49.000Z</time>
      </trkpt>
      <trkpt lat="47.70142" lon="6.01815">
        <ele>265</ele>
        <time>2012-09-05T09:24:50.000Z</time>
      </trkpt>
      <trkpt lat="47.70139" lon="6.01818">
        <ele>264.60000610352</ele>
        <time>2012-09-05T09:24:51.000Z</time>
      </trkpt>
      <trkpt lat="47.70136" lon="6.01822">
        <ele>264.20001220703</ele>
        <time>2012-09-05T09:24:52.000Z</time>
      </trkpt>
      <trkpt lat="47.70133" lon="6.01826">
        <ele>263.79998779297</ele>
        <time>2012-09-05T09:24:53.000Z</time>
      </trkpt>
      <trkpt lat="47.7012" lon="6.01845">
        <ele>263.79998779297</ele>
        <time>2012-09-05T09:24:57.000Z</time>
      </trkpt>
      <trkpt lat="47.70106" lon="6.01863">
        <ele>263.79998779297</ele>
        <time>2012-09-05T09:25:00.000Z</time>
      </trkpt>
      <trkpt lat="47.70099" lon="6.01875">
        <ele>263.79998779297</ele>
        <time>2012-09-05T09:25:02.000Z</time>
      </trkpt>
      <trkpt lat="47.70096" lon="6.01881">
        <ele>263.39999389648</ele>
        <time>2012-09-05T09:25:03.000Z</time>
      </trkpt>
      <trkpt lat="47.70094" lon="6.01886">
        <ele>263</ele>
        <time>2012-09-05T09:25:04.000Z</time>
      </trkpt>
      <trkpt lat="47.7009" lon="6.01892">
        <ele>262.60000610352</ele>
        <time>2012-09-05T09:25:05.000Z</time>
      </trkpt>
      <trkpt lat="47.70086" lon="6.01897">
        <ele>262.20001220703</ele>
        <time>2012-09-05T09:25:06.000Z</time>
      </trkpt>
      <trkpt lat="47.70083" lon="6.01902">
        <ele>261.79998779297</ele>
        <time>2012-09-05T09:25:07.000Z</time>
      </trkpt>
      <trkpt lat="47.70073" lon="6.01914">
        <ele>261.20001220703</ele>
        <time>2012-09-05T09:25:09.000Z</time>
      </trkpt>
      <trkpt lat="47.70068" lon="6.0192">
        <ele>260.79998779297</ele>
        <time>2012-09-05T09:25:10.000Z</time>
      </trkpt>
      <trkpt lat="47.70063" lon="6.01926">
        <ele>260.39999389648</ele>
        <time>2012-09-05T09:25:11.000Z</time>
      </trkpt>
      <trkpt lat="47.70058" lon="6.01932">
        <ele>260</ele>
        <time>2012-09-05T09:25:12.000Z</time>
      </trkpt>
      <trkpt lat="47.70054" lon="6.01938">
        <ele>259.60000610352</ele>
        <time>2012-09-05T09:25:13.000Z</time>
      </trkpt>
      <trkpt lat="47.70044" lon="6.01953">
        <ele>259.60000610352</ele>
        <time>2012-09-05T09:25:16.000Z</time>
      </trkpt>
      <trkpt lat="47.70041" lon="6.01957">
        <ele>259.60000610352</ele>
        <time>2012-09-05T09:25:17.000Z</time>
      </trkpt>
      <trkpt lat="47.70031" lon="6.01974">
        <ele>259.60000610352</ele>
        <time>2012-09-05T09:25:22.000Z</time>
      </trkpt>
      <trkpt lat="47.70017" lon="6.02001">
        <ele>259.60000610352</ele>
        <time>2012-09-05T09:25:30.000Z</time>
      </trkpt>
      <trkpt lat="47.70005" lon="6.02021">
        <ele>259.60000610352</ele>
        <time>2012-09-05T09:25:37.000Z</time>
      </trkpt>
      <trkpt lat="47.69994" lon="6.02032">
        <ele>259.60000610352</ele>
        <time>2012-09-05T09:25:43.000Z</time>
      </trkpt>
      <trkpt lat="47.69979" lon="6.02047">
        <ele>259.60000610352</ele>
        <time>2012-09-05T09:25:50.000Z</time>
      </trkpt>
      <trkpt lat="47.69966" lon="6.02062">
        <ele>259.60000610352</ele>
        <time>2012-09-05T09:25:56.000Z</time>
      </trkpt>
      <trkpt lat="47.69946" lon="6.02082">
        <ele>259.60000610352</ele>
        <time>2012-09-05T09:26:03.000Z</time>
      </trkpt>
      <trkpt lat="47.69929" lon="6.02103">
        <ele>259.60000610352</ele>
        <time>2012-09-05T09:26:08.000Z</time>
      </trkpt>
      <trkpt lat="47.69925" lon="6.02108">
        <ele>259.60000610352</ele>
        <time>2012-09-05T09:26:09.000Z</time>
      </trkpt>
      <trkpt lat="47.69904" lon="6.0214">
        <ele>259.60000610352</ele>
        <time>2012-09-05T09:26:14.000Z</time>
      </trkpt>
      <trkpt lat="47.69901" lon="6.02149">
        <ele>259.60000610352</ele>
        <time>2012-09-05T09:26:15.000Z</time>
      </trkpt>
      <trkpt lat="47.69896" lon="6.02168">
        <ele>259.60000610352</ele>
        <time>2012-09-05T09:26:17.000Z</time>
      </trkpt>
      <trkpt lat="47.69888" lon="6.02203">
        <ele>259.60000610352</ele>
        <time>2012-09-05T09:26:21.000Z</time>
      </trkpt>
      <trkpt lat="47.69885" lon="6.02211">
        <ele>259.60000610352</ele>
        <time>2012-09-05T09:26:22.000Z</time>
      </trkpt>
      <trkpt lat="47.69874" lon="6.02237">
        <ele>259.60000610352</ele>
        <time>2012-09-05T09:26:26.000Z</time>
      </trkpt>
      <trkpt lat="47.69865" lon="6.0226">
        <ele>259.60000610352</ele>
        <time>2012-09-05T09:26:30.000Z</time>
      </trkpt>
      <trkpt lat="47.69858" lon="6.02268">
        <ele>259.60000610352</ele>
        <time>2012-09-05T09:26:32.000Z</time>
      </trkpt>
      <trkpt lat="47.69847" lon="6.02278">
        <ele>259.60000610352</ele>
        <time>2012-09-05T09:26:35.000Z</time>
      </trkpt>
      <trkpt lat="47.69835" lon="6.02287">
        <ele>259.60000610352</ele>
        <time>2012-09-05T09:26:38.000Z</time>
      </trkpt>
      <trkpt lat="47.69813" lon="6.02301">
        <ele>259.60000610352</ele>
        <time>2012-09-05T09:26:43.000Z</time>
      </trkpt>
      <trkpt lat="47.69802" lon="6.02306">
        <ele>259.60000610352</ele>
        <time>2012-09-05T09:26:45.000Z</time>
      </trkpt>
      <trkpt lat="47.69792" lon="6.02308">
        <ele>259.60000610352</ele>
        <time>2012-09-05T09:26:47.000Z</time>
      </trkpt>
      <trkpt lat="47.69776" lon="6.02311">
        <ele>259.60000610352</ele>
        <time>2012-09-05T09:26:50.000Z</time>
      </trkpt>
      <trkpt lat="47.69734" lon="6.02318">
        <ele>259.60000610352</ele>
        <time>2012-09-05T09:26:57.000Z</time>
      </trkpt>
      <trkpt lat="47.69708" lon="6.02325">
        <ele>259.20001220703</ele>
        <time>2012-09-05T09:27:01.000Z</time>
      </trkpt>
      <trkpt lat="47.69701" lon="6.02327">
        <ele>258.79998779297</ele>
        <time>2012-09-05T09:27:02.000Z</time>
      </trkpt>
      <trkpt lat="47.69695" lon="6.0233">
        <ele>258.39999389648</ele>
        <time>2012-09-05T09:27:03.000Z</time>
      </trkpt>
      <trkpt lat="47.69688" lon="6.02333">
        <ele>258</ele>
        <time>2012-09-05T09:27:04.000Z</time>
      </trkpt>
      <trkpt lat="47.69681" lon="6.02336">
        <ele>257.39999389648</ele>
        <time>2012-09-05T09:27:05.000Z</time>
      </trkpt>
      <trkpt lat="47.69673" lon="6.02339">
        <ele>256.79998779297</ele>
        <time>2012-09-05T09:27:06.000Z</time>
      </trkpt>
      <trkpt lat="47.69666" lon="6.02344">
        <ele>256.20001220703</ele>
        <time>2012-09-05T09:27:07.000Z</time>
      </trkpt>
      <trkpt lat="47.69658" lon="6.02349">
        <ele>255.60000610352</ele>
        <time>2012-09-05T09:27:08.000Z</time>
      </trkpt>
      <trkpt lat="47.6965" lon="6.02356">
        <ele>254.80000305176</ele>
        <time>2012-09-05T09:27:09.000Z</time>
      </trkpt>
      <trkpt lat="47.69643" lon="6.02363">
        <ele>254.19999694824</ele>
        <time>2012-09-05T09:27:10.000Z</time>
      </trkpt>
      <trkpt lat="47.69637" lon="6.02372">
        <ele>253.39999389648</ele>
        <time>2012-09-05T09:27:11.000Z</time>
      </trkpt>
      <trkpt lat="47.69632" lon="6.02382">
        <ele>252.80000305176</ele>
        <time>2012-09-05T09:27:12.000Z</time>
      </trkpt>
      <trkpt lat="47.69627" lon="6.02392">
        <ele>252.39999389648</ele>
        <time>2012-09-05T09:27:13.000Z</time>
      </trkpt>
      <trkpt lat="47.69623" lon="6.02402">
        <ele>251.80000305176</ele>
        <time>2012-09-05T09:27:14.000Z</time>
      </trkpt>
      <trkpt lat="47.69618" lon="6.02411">
        <ele>251.39999389648</ele>
        <time>2012-09-05T09:27:15.000Z</time>
      </trkpt>
      <trkpt lat="47.69614" lon="6.0242">
        <ele>251</ele>
        <time>2012-09-05T09:27:16.000Z</time>
      </trkpt>
      <trkpt lat="47.69611" lon="6.02429">
        <ele>250.60000610352</ele>
        <time>2012-09-05T09:27:17.000Z</time>
      </trkpt>
      <trkpt lat="47.69607" lon="6.02438">
        <ele>250.60000610352</ele>
        <time>2012-09-05T09:27:18.000Z</time>
      </trkpt>
      <trkpt lat="47.696" lon="6.02455">
        <ele>250.60000610352</ele>
        <time>2012-09-05T09:27:20.000Z</time>
      </trkpt>
      <trkpt lat="47.69592" lon="6.02482">
        <ele>250.60000610352</ele>
        <time>2012-09-05T09:27:23.000Z</time>
      </trkpt>
      <trkpt lat="47.69591" lon="6.0249">
        <ele>250.60000610352</ele>
        <time>2012-09-05T09:27:24.000Z</time>
      </trkpt>
      <trkpt lat="47.69588" lon="6.02513">
        <ele>250.60000610352</ele>
        <time>2012-09-05T09:27:27.000Z</time>
      </trkpt>
      <trkpt lat="47.69585" lon="6.02541">
        <ele>251</ele>
        <time>2012-09-05T09:27:32.000Z</time>
      </trkpt>
      <trkpt lat="47.69585" lon="6.02546">
        <ele>251.39999389648</ele>
        <time>2012-09-05T09:27:33.000Z</time>
      </trkpt>
      <trkpt lat="47.69584" lon="6.0255">
        <ele>251.80000305176</ele>
        <time>2012-09-05T09:27:34.000Z</time>
      </trkpt>
      <trkpt lat="47.69584" lon="6.02555">
        <ele>252.19999694824</ele>
        <time>2012-09-05T09:27:35.000Z</time>
      </trkpt>
      <trkpt lat="47.69583" lon="6.0256">
        <ele>252.60000610352</ele>
        <time>2012-09-05T09:27:36.000Z</time>
      </trkpt>
      <trkpt lat="47.69582" lon="6.02568">
        <ele>252.60000610352</ele>
        <time>2012-09-05T09:27:38.000Z</time>
      </trkpt>
      <trkpt lat="47.69579" lon="6.02584">
        <ele>252.60000610352</ele>
        <time>2012-09-05T09:27:43.000Z</time>
      </trkpt>
      <trkpt lat="47.69579" lon="6.02587">
        <ele>253</ele>
        <time>2012-09-05T09:27:44.000Z</time>
      </trkpt>
      <trkpt lat="47.69578" lon="6.02591">
        <ele>253.39999389648</ele>
        <time>2012-09-05T09:27:45.000Z</time>
      </trkpt>
      <trkpt lat="47.69577" lon="6.02594">
        <ele>253.80000305176</ele>
        <time>2012-09-05T09:27:46.000Z</time>
      </trkpt>
      <trkpt lat="47.69577" lon="6.02598">
        <ele>254.19999694824</ele>
        <time>2012-09-05T09:27:47.000Z</time>
      </trkpt>
      <trkpt lat="47.69576" lon="6.02602">
        <ele>254.60000610352</ele>
        <time>2012-09-05T09:27:48.000Z</time>
      </trkpt>
      <trkpt lat="47.69576" lon="6.0261">
        <ele>254.60000610352</ele>
        <time>2012-09-05T09:27:50.000Z</time>
      </trkpt>
      <trkpt lat="47.69571" lon="6.02644">
        <ele>254.60000610352</ele>
        <time>2012-09-05T09:27:58.000Z</time>
      </trkpt>
      <trkpt lat="47.69563" lon="6.02671">
        <ele>255</ele>
        <time>2012-09-05T09:28:05.000Z</time>
      </trkpt>
      <trkpt lat="47.69561" lon="6.02674">
        <ele>255.39999389648</ele>
        <time>2012-09-05T09:28:06.000Z</time>
      </trkpt>
      <trkpt lat="47.69559" lon="6.02678">
        <ele>255.80000305176</ele>
        <time>2012-09-05T09:28:07.000Z</time>
      </trkpt>
      <trkpt lat="47.69557" lon="6.02681">
        <ele>256.20001220703</ele>
        <time>2012-09-05T09:28:08.000Z</time>
      </trkpt>
      <trkpt lat="47.69555" lon="6.02684">
        <ele>256.60000610352</ele>
        <time>2012-09-05T09:28:09.000Z</time>
      </trkpt>
      <trkpt lat="47.69547" lon="6.02695">
        <ele>256.60000610352</ele>
        <time>2012-09-05T09:28:13.000Z</time>
      </trkpt>
      <trkpt lat="47.69533" lon="6.02712">
        <ele>256.60000610352</ele>
        <time>2012-09-05T09:28:20.000Z</time>
      </trkpt>
      <trkpt lat="47.69532" lon="6.02714">
        <ele>257</ele>
        <time>2012-09-05T09:28:21.000Z</time>
      </trkpt>
      <trkpt lat="47.6953" lon="6.02717">
        <ele>257.39999389648</ele>
        <time>2012-09-05T09:28:22.000Z</time>
      </trkpt>
      <trkpt lat="47.69529" lon="6.0272">
        <ele>258</ele>
        <time>2012-09-05T09:28:23.000Z</time>
      </trkpt>
      <trkpt lat="47.69529" lon="6.02723">
        <ele>258.39999389648</ele>
        <time>2012-09-05T09:28:24.000Z</time>
      </trkpt>
      <trkpt lat="47.69528" lon="6.02726">
        <ele>258.79998779297</ele>
        <time>2012-09-05T09:28:25.000Z</time>
      </trkpt>
      <trkpt lat="47.69528" lon="6.02729">
        <ele>258.79998779297</ele>
        <time>2012-09-05T09:28:26.000Z</time>
      </trkpt>
      <trkpt lat="47.69533" lon="6.02744">
        <ele>258.79998779297</ele>
        <time>2012-09-05T09:28:32.000Z</time>
      </trkpt>
      <trkpt lat="47.6954" lon="6.02771">
        <ele>259.20001220703</ele>
        <time>2012-09-05T09:28:40.000Z</time>
      </trkpt>
      <trkpt lat="47.69541" lon="6.02775">
        <ele>259.60000610352</ele>
        <time>2012-09-05T09:28:41.000Z</time>
      </trkpt>
      <trkpt lat="47.69542" lon="6.02779">
        <ele>260</ele>
        <time>2012-09-05T09:28:42.000Z</time>
      </trkpt>
      <trkpt lat="47.69543" lon="6.02783">
        <ele>260.39999389648</ele>
        <time>2012-09-05T09:28:43.000Z</time>
      </trkpt>
      <trkpt lat="47.69544" lon="6.02787">
        <ele>260.79998779297</ele>
        <time>2012-09-05T09:28:44.000Z</time>
      </trkpt>
      <trkpt lat="47.69547" lon="6.02798">
        <ele>260.79998779297</ele>
        <time>2012-09-05T09:28:46.000Z</time>
      </trkpt>
      <trkpt lat="47.69555" lon="6.02837">
        <ele>260.79998779297</ele>
        <time>2012-09-05T09:28:52.000Z</time>
      </trkpt>
      <trkpt lat="47.69559" lon="6.02881">
        <ele>260.79998779297</ele>
        <time>2012-09-05T09:29:00.000Z</time>
      </trkpt>
      <trkpt lat="47.69559" lon="6.02883">
        <ele>260.39999389648</ele>
        <time>2012-09-05T09:29:01.000Z</time>
      </trkpt>
      <trkpt lat="47.69558" lon="6.02883">
        <ele>259.79998779297</ele>
        <time>2012-09-05T09:29:02.000Z</time>
      </trkpt>
      <trkpt lat="47.69559" lon="6.02885">
        <ele>258.39999389648</ele>
        <time>2012-09-05T09:29:37.000Z</time>
      </trkpt>
      <trkpt lat="47.69559" lon="6.02887">
        <ele>258.39999389648</ele>
        <time>2012-09-05T09:29:38.000Z</time>
      </trkpt>
      <trkpt lat="47.69561" lon="6.0291">
        <ele>258.39999389648</ele>
        <time>2012-09-05T09:29:45.000Z</time>
      </trkpt>
      <trkpt lat="47.69563" lon="6.02938">
        <ele>258.39999389648</ele>
        <time>2012-09-05T09:29:51.000Z</time>
      </trkpt>
      <trkpt lat="47.69564" lon="6.02969">
        <ele>258.39999389648</ele>
        <time>2012-09-05T09:29:57.000Z</time>
      </trkpt>
      <trkpt lat="47.69565" lon="6.02998">
        <ele>258.39999389648</ele>
        <time>2012-09-05T09:30:02.000Z</time>
      </trkpt>
      <trkpt lat="47.69566" lon="6.03017">
        <ele>258.39999389648</ele>
        <time>2012-09-05T09:30:05.000Z</time>
      </trkpt>
      <trkpt lat="47.69572" lon="6.03064">
        <ele>258.39999389648</ele>
        <time>2012-09-05T09:30:13.000Z</time>
      </trkpt>
      <trkpt lat="47.69576" lon="6.03093">
        <ele>258.39999389648</ele>
        <time>2012-09-05T09:30:19.000Z</time>
      </trkpt>
      <trkpt lat="47.69582" lon="6.03127">
        <ele>258.39999389648</ele>
        <time>2012-09-05T09:30:26.000Z</time>
      </trkpt>
      <trkpt lat="47.6959" lon="6.03169">
        <ele>258.39999389648</ele>
        <time>2012-09-05T09:30:34.000Z</time>
      </trkpt>
      <trkpt lat="47.69597" lon="6.03204">
        <ele>258.39999389648</ele>
        <time>2012-09-05T09:30:40.000Z</time>
      </trkpt>
      <trkpt lat="47.69597" lon="6.03211">
        <ele>258.39999389648</ele>
        <time>2012-09-05T09:30:41.000Z</time>
      </trkpt>
      <trkpt lat="47.69591" lon="6.03229">
        <ele>258.39999389648</ele>
        <time>2012-09-05T09:30:44.000Z</time>
      </trkpt>
      <trkpt lat="47.69588" lon="6.03233">
        <ele>258</ele>
        <time>2012-09-05T09:30:45.000Z</time>
      </trkpt>
      <trkpt lat="47.69585" lon="6.03238">
        <ele>257.60000610352</ele>
        <time>2012-09-05T09:30:46.000Z</time>
      </trkpt>
      <trkpt lat="47.69582" lon="6.03243">
        <ele>257</ele>
        <time>2012-09-05T09:30:47.000Z</time>
      </trkpt>
      <trkpt lat="47.69578" lon="6.0325">
        <ele>256.60000610352</ele>
        <time>2012-09-05T09:30:48.000Z</time>
      </trkpt>
      <trkpt lat="47.69575" lon="6.03256">
        <ele>256.20001220703</ele>
        <time>2012-09-05T09:30:49.000Z</time>
      </trkpt>
      <trkpt lat="47.69572" lon="6.03262">
        <ele>256.20001220703</ele>
        <time>2012-09-05T09:30:50.000Z</time>
      </trkpt>
      <trkpt lat="47.69548" lon="6.03311">
        <ele>256.20001220703</ele>
        <time>2012-09-05T09:30:57.000Z</time>
      </trkpt>
      <trkpt lat="47.69526" lon="6.03352">
        <ele>256.20001220703</ele>
        <time>2012-09-05T09:31:04.000Z</time>
      </trkpt>
      <trkpt lat="47.69513" lon="6.03375">
        <ele>256.20001220703</ele>
        <time>2012-09-05T09:31:10.000Z</time>
      </trkpt>
      <trkpt lat="47.69502" lon="6.03392">
        <ele>256.20001220703</ele>
        <time>2012-09-05T09:31:17.000Z</time>
      </trkpt>
      <trkpt lat="47.69492" lon="6.03408">
        <ele>256.20001220703</ele>
        <time>2012-09-05T09:31:24.000Z</time>
      </trkpt>
      <trkpt lat="47.69486" lon="6.03418">
        <ele>256.60000610352</ele>
        <time>2012-09-05T09:31:28.000Z</time>
      </trkpt>
      <trkpt lat="47.69485" lon="6.03421">
        <ele>257</ele>
        <time>2012-09-05T09:31:29.000Z</time>
      </trkpt>
      <trkpt lat="47.69483" lon="6.03423">
        <ele>257.39999389648</ele>
        <time>2012-09-05T09:31:30.000Z</time>
      </trkpt>
      <trkpt lat="47.69482" lon="6.03425">
        <ele>257.79998779297</ele>
        <time>2012-09-05T09:31:31.000Z</time>
      </trkpt>
      <trkpt lat="47.6948" lon="6.03428">
        <ele>258.20001220703</ele>
        <time>2012-09-05T09:31:32.000Z</time>
      </trkpt>
      <trkpt lat="47.69478" lon="6.0343">
        <ele>258.20001220703</ele>
        <time>2012-09-05T09:31:33.000Z</time>
      </trkpt>
      <trkpt lat="47.69467" lon="6.03446">
        <ele>258.20001220703</ele>
        <time>2012-09-05T09:31:38.000Z</time>
      </trkpt>
      <trkpt lat="47.69446" lon="6.03474">
        <ele>258.20001220703</ele>
        <time>2012-09-05T09:31:44.000Z</time>
      </trkpt>
      <trkpt lat="47.69431" lon="6.0349">
        <ele>257.79998779297</ele>
        <time>2012-09-05T09:31:47.000Z</time>
      </trkpt>
      <trkpt lat="47.69426" lon="6.03495">
        <ele>257.20001220703</ele>
        <time>2012-09-05T09:31:48.000Z</time>
      </trkpt>
      <trkpt lat="47.69421" lon="6.035">
        <ele>256.79998779297</ele>
        <time>2012-09-05T09:31:49.000Z</time>
      </trkpt>
      <trkpt lat="47.69415" lon="6.03505">
        <ele>256.20001220703</ele>
        <time>2012-09-05T09:31:50.000Z</time>
      </trkpt>
      <trkpt lat="47.69409" lon="6.0351">
        <ele>255.80000305176</ele>
        <time>2012-09-05T09:31:51.000Z</time>
      </trkpt>
      <trkpt lat="47.69392" lon="6.03526">
        <ele>255.39999389648</ele>
        <time>2012-09-05T09:31:54.000Z</time>
      </trkpt>
      <trkpt lat="47.69386" lon="6.03531">
        <ele>255</ele>
        <time>2012-09-05T09:31:55.000Z</time>
      </trkpt>
      <trkpt lat="47.6938" lon="6.03536">
        <ele>254.60000610352</ele>
        <time>2012-09-05T09:31:56.000Z</time>
      </trkpt>
      <trkpt lat="47.69374" lon="6.03541">
        <ele>254</ele>
        <time>2012-09-05T09:31:57.000Z</time>
      </trkpt>
      <trkpt lat="47.69368" lon="6.03546">
        <ele>253.60000610352</ele>
        <time>2012-09-05T09:31:58.000Z</time>
      </trkpt>
      <trkpt lat="47.69362" lon="6.0355">
        <ele>252.60000610352</ele>
        <time>2012-09-05T09:31:59.000Z</time>
      </trkpt>
      <trkpt lat="47.69355" lon="6.03554">
        <ele>252.19999694824</ele>
        <time>2012-09-05T09:32:00.000Z</time>
      </trkpt>
      <trkpt lat="47.69348" lon="6.03558">
        <ele>251.60000610352</ele>
        <time>2012-09-05T09:32:01.000Z</time>
      </trkpt>
      <trkpt lat="47.69341" lon="6.03561">
        <ele>251.19999694824</ele>
        <time>2012-09-05T09:32:02.000Z</time>
      </trkpt>
      <trkpt lat="47.69325" lon="6.03568">
        <ele>250.60000610352</ele>
        <time>2012-09-05T09:32:04.000Z</time>
      </trkpt>
      <trkpt lat="47.69318" lon="6.03572">
        <ele>250.19999694824</ele>
        <time>2012-09-05T09:32:05.000Z</time>
      </trkpt>
      <trkpt lat="47.69311" lon="6.03578">
        <ele>249.60000610352</ele>
        <time>2012-09-05T09:32:06.000Z</time>
      </trkpt>
      <trkpt lat="47.69305" lon="6.03586">
        <ele>249.19999694824</ele>
        <time>2012-09-05T09:32:07.000Z</time>
      </trkpt>
      <trkpt lat="47.693" lon="6.03594">
        <ele>248.60000610352</ele>
        <time>2012-09-05T09:32:08.000Z</time>
      </trkpt>
      <trkpt lat="47.69287" lon="6.03609">
        <ele>248.19999694824</ele>
        <time>2012-09-05T09:32:10.000Z</time>
      </trkpt>
      <trkpt lat="47.69281" lon="6.03615">
        <ele>247.80000305176</ele>
        <time>2012-09-05T09:32:11.000Z</time>
      </trkpt>
      <trkpt lat="47.69275" lon="6.03621">
        <ele>247.39999389648</ele>
        <time>2012-09-05T09:32:12.000Z</time>
      </trkpt>
      <trkpt lat="47.6927" lon="6.03626">
        <ele>246.80000305176</ele>
        <time>2012-09-05T09:32:13.000Z</time>
      </trkpt>
      <trkpt lat="47.69264" lon="6.03632">
        <ele>246.39999389648</ele>
        <time>2012-09-05T09:32:14.000Z</time>
      </trkpt>
      <trkpt lat="47.69254" lon="6.0364">
        <ele>246</ele>
        <time>2012-09-05T09:32:16.000Z</time>
      </trkpt>
      <trkpt lat="47.69248" lon="6.03642">
        <ele>245.60000610352</ele>
        <time>2012-09-05T09:32:17.000Z</time>
      </trkpt>
      <trkpt lat="47.69241" lon="6.03644">
        <ele>245</ele>
        <time>2012-09-05T09:32:18.000Z</time>
      </trkpt>
      <trkpt lat="47.69234" lon="6.03644">
        <ele>244.60000610352</ele>
        <time>2012-09-05T09:32:19.000Z</time>
      </trkpt>
      <trkpt lat="47.69228" lon="6.03644">
        <ele>244.19999694824</ele>
        <time>2012-09-05T09:32:20.000Z</time>
      </trkpt>
      <trkpt lat="47.69221" lon="6.03643">
        <ele>243.80000305176</ele>
        <time>2012-09-05T09:32:21.000Z</time>
      </trkpt>
      <trkpt lat="47.69215" lon="6.03643">
        <ele>243.39999389648</ele>
        <time>2012-09-05T09:32:22.000Z</time>
      </trkpt>
      <trkpt lat="47.69209" lon="6.03645">
        <ele>243</ele>
        <time>2012-09-05T09:32:23.000Z</time>
      </trkpt>
      <trkpt lat="47.69203" lon="6.03648">
        <ele>242.19999694824</ele>
        <time>2012-09-05T09:32:24.000Z</time>
      </trkpt>
      <trkpt lat="47.69198" lon="6.03654">
        <ele>241.60000610352</ele>
        <time>2012-09-05T09:32:25.000Z</time>
      </trkpt>
      <trkpt lat="47.69193" lon="6.03659">
        <ele>241.19999694824</ele>
        <time>2012-09-05T09:32:26.000Z</time>
      </trkpt>
      <trkpt lat="47.69189" lon="6.03663">
        <ele>240.80000305176</ele>
        <time>2012-09-05T09:32:27.000Z</time>
      </trkpt>
      <trkpt lat="47.69184" lon="6.03667">
        <ele>240</ele>
        <time>2012-09-05T09:32:28.000Z</time>
      </trkpt>
      <trkpt lat="47.6918" lon="6.03668">
        <ele>239.39999389648</ele>
        <time>2012-09-05T09:32:29.000Z</time>
      </trkpt>
      <trkpt lat="47.69174" lon="6.03666">
        <ele>238.80000305176</ele>
        <time>2012-09-05T09:32:30.000Z</time>
      </trkpt>
      <trkpt lat="47.6917" lon="6.03662">
        <ele>238.19999694824</ele>
        <time>2012-09-05T09:32:31.000Z</time>
      </trkpt>
      <trkpt lat="47.69166" lon="6.03657">
        <ele>237.60000610352</ele>
        <time>2012-09-05T09:32:32.000Z</time>
      </trkpt>
      <trkpt lat="47.69161" lon="6.03653">
        <ele>237.19999694824</ele>
        <time>2012-09-05T09:32:33.000Z</time>
      </trkpt>
      <trkpt lat="47.69157" lon="6.03649">
        <ele>236.60000610352</ele>
        <time>2012-09-05T09:32:34.000Z</time>
      </trkpt>
      <trkpt lat="47.69153" lon="6.03645">
        <ele>236</ele>
        <time>2012-09-05T09:32:35.000Z</time>
      </trkpt>
      <trkpt lat="47.69149" lon="6.03641">
        <ele>235.39999389648</ele>
        <time>2012-09-05T09:32:36.000Z</time>
      </trkpt>
      <trkpt lat="47.69146" lon="6.03639">
        <ele>235</ele>
        <time>2012-09-05T09:32:37.000Z</time>
      </trkpt>
      <trkpt lat="47.69145" lon="6.03638">
        <ele>234.39999389648</ele>
        <time>2012-09-05T09:32:38.000Z</time>
      </trkpt>
      <trkpt lat="47.69143" lon="6.03638">
        <ele>233.80000305176</ele>
        <time>2012-09-05T09:32:39.000Z</time>
      </trkpt>
      <trkpt lat="47.69143" lon="6.03637">
        <ele>233.19999694824</ele>
        <time>2012-09-05T09:32:40.000Z</time>
      </trkpt>
      <trkpt lat="47.69143" lon="6.03637">
        <ele>232.80000305176</ele>
        <time>2012-09-05T09:32:41.000Z</time>
      </trkpt>
      <trkpt lat="47.69141" lon="6.03638">
        <ele>231.19999694824</ele>
        <time>2012-09-05T09:33:02.000Z</time>
      </trkpt>
      <trkpt lat="47.69139" lon="6.03639">
        <ele>231.19999694824</ele>
        <time>2012-09-05T09:33:04.000Z</time>
      </trkpt>
      <trkpt lat="47.69136" lon="6.03645">
        <ele>231.19999694824</ele>
        <time>2012-09-05T09:33:06.000Z</time>
      </trkpt>
      <trkpt lat="47.69128" lon="6.03674">
        <ele>231.19999694824</ele>
        <time>2012-09-05T09:33:12.000Z</time>
      </trkpt>
      <trkpt lat="47.69123" lon="6.03699">
        <ele>230.80000305176</ele>
        <time>2012-09-05T09:33:17.000Z</time>
      </trkpt>
      <trkpt lat="47.69122" lon="6.03703">
        <ele>230.39999389648</ele>
        <time>2012-09-05T09:33:18.000Z</time>
      </trkpt>
      <trkpt lat="47.69122" lon="6.03706">
        <ele>230</ele>
        <time>2012-09-05T09:33:19.000Z</time>
      </trkpt>
      <trkpt lat="47.69121" lon="6.0371">
        <ele>229.60000610352</ele>
        <time>2012-09-05T09:33:20.000Z</time>
      </trkpt>
      <trkpt lat="47.6912" lon="6.03714">
        <ele>229.19999694824</ele>
        <time>2012-09-05T09:33:21.000Z</time>
      </trkpt>
      <trkpt lat="47.69115" lon="6.03735">
        <ele>229.19999694824</ele>
        <time>2012-09-05T09:33:25.000Z</time>
      </trkpt>
      <trkpt lat="47.6911" lon="6.03757">
        <ele>229.19999694824</ele>
        <time>2012-09-05T09:33:29.000Z</time>
      </trkpt>
      <trkpt lat="47.69104" lon="6.03778">
        <ele>229.19999694824</ele>
        <time>2012-09-05T09:33:32.000Z</time>
      </trkpt>
      <trkpt lat="47.69099" lon="6.03792">
        <ele>229.19999694824</ele>
        <time>2012-09-05T09:33:34.000Z</time>
      </trkpt>
      <trkpt lat="47.69091" lon="6.03813">
        <ele>229.19999694824</ele>
        <time>2012-09-05T09:33:37.000Z</time>
      </trkpt>
      <trkpt lat="47.69074" lon="6.03857">
        <ele>229.60000610352</ele>
        <time>2012-09-05T09:33:43.000Z</time>
      </trkpt>
      <trkpt lat="47.6907" lon="6.03864">
        <ele>230</ele>
        <time>2012-09-05T09:33:44.000Z</time>
      </trkpt>
      <trkpt lat="47.69067" lon="6.03872">
        <ele>230.39999389648</ele>
        <time>2012-09-05T09:33:45.000Z</time>
      </trkpt>
      <trkpt lat="47.69064" lon="6.0388">
        <ele>230.80000305176</ele>
        <time>2012-09-05T09:33:46.000Z</time>
      </trkpt>
      <trkpt lat="47.69061" lon="6.03887">
        <ele>231.19999694824</ele>
        <time>2012-09-05T09:33:47.000Z</time>
      </trkpt>
      <trkpt lat="47.69049" lon="6.03918">
        <ele>231.19999694824</ele>
        <time>2012-09-05T09:33:51.000Z</time>
      </trkpt>
      <trkpt lat="47.69029" lon="6.03967">
        <ele>231.19999694824</ele>
        <time>2012-09-05T09:33:57.000Z</time>
      </trkpt>
      <trkpt lat="47.69002" lon="6.04033">
        <ele>231.19999694824</ele>
        <time>2012-09-05T09:34:05.000Z</time>
      </trkpt>
      <trkpt lat="47.68979" lon="6.04093">
        <ele>231.19999694824</ele>
        <time>2012-09-05T09:34:12.000Z</time>
      </trkpt>
      <trkpt lat="47.68959" lon="6.04141">
        <ele>231.19999694824</ele>
        <time>2012-09-05T09:34:18.000Z</time>
      </trkpt>
      <trkpt lat="47.68937" lon="6.04193">
        <ele>231.19999694824</ele>
        <time>2012-09-05T09:34:25.000Z</time>
      </trkpt>
      <trkpt lat="47.68919" lon="6.04238">
        <ele>231.19999694824</ele>
        <time>2012-09-05T09:34:32.000Z</time>
      </trkpt>
      <trkpt lat="47.68904" lon="6.04279">
        <ele>231.19999694824</ele>
        <time>2012-09-05T09:34:39.000Z</time>
      </trkpt>
      <trkpt lat="47.68885" lon="6.04328">
        <ele>231.19999694824</ele>
        <time>2012-09-05T09:34:47.000Z</time>
      </trkpt>
      <trkpt lat="47.68871" lon="6.04363">
        <ele>231.19999694824</ele>
        <time>2012-09-05T09:34:53.000Z</time>
      </trkpt>
      <trkpt lat="47.68859" lon="6.04402">
        <ele>231.19999694824</ele>
        <time>2012-09-05T09:35:00.000Z</time>
      </trkpt>
      <trkpt lat="47.68854" lon="6.04416">
        <ele>231.60000610352</ele>
        <time>2012-09-05T09:35:03.000Z</time>
      </trkpt>
      <trkpt lat="47.68853" lon="6.04421">
        <ele>232</ele>
        <time>2012-09-05T09:35:04.000Z</time>
      </trkpt>
      <trkpt lat="47.68853" lon="6.04426">
        <ele>232.39999389648</ele>
        <time>2012-09-05T09:35:05.000Z</time>
      </trkpt>
      <trkpt lat="47.68853" lon="6.04431">
        <ele>232.80000305176</ele>
        <time>2012-09-05T09:35:06.000Z</time>
      </trkpt>
      <trkpt lat="47.68851" lon="6.04436">
        <ele>233.19999694824</ele>
        <time>2012-09-05T09:35:07.000Z</time>
      </trkpt>
      <trkpt lat="47.68847" lon="6.04459">
        <ele>233.19999694824</ele>
        <time>2012-09-05T09:35:12.000Z</time>
      </trkpt>
      <trkpt lat="47.68844" lon="6.04476">
        <ele>233.60000610352</ele>
        <time>2012-09-05T09:35:16.000Z</time>
      </trkpt>
      <trkpt lat="47.68844" lon="6.0448">
        <ele>234.39999389648</ele>
        <time>2012-09-05T09:35:17.000Z</time>
      </trkpt>
      <trkpt lat="47.68844" lon="6.04485">
        <ele>235</ele>
        <time>2012-09-05T09:35:18.000Z</time>
      </trkpt>
      <trkpt lat="47.68843" lon="6.0449">
        <ele>235.39999389648</ele>
        <time>2012-09-05T09:35:19.000Z</time>
      </trkpt>
      <trkpt lat="47.68838" lon="6.04521">
        <ele>235.39999389648</ele>
        <time>2012-09-05T09:35:26.000Z</time>
      </trkpt>
      <trkpt lat="47.68834" lon="6.04552">
        <ele>235.39999389648</ele>
        <time>2012-09-05T09:35:32.000Z</time>
      </trkpt>
      <trkpt lat="47.68832" lon="6.04574">
        <ele>235.80000305176</ele>
        <time>2012-09-05T09:35:36.000Z</time>
      </trkpt>
      <trkpt lat="47.68832" lon="6.04579">
        <ele>236.19999694824</ele>
        <time>2012-09-05T09:35:37.000Z</time>
      </trkpt>
      <trkpt lat="47.68831" lon="6.04584">
        <ele>236.60000610352</ele>
        <time>2012-09-05T09:35:38.000Z</time>
      </trkpt>
      <trkpt lat="47.68831" lon="6.04589">
        <ele>237</ele>
        <time>2012-09-05T09:35:39.000Z</time>
      </trkpt>
      <trkpt lat="47.6883" lon="6.04594">
        <ele>237.39999389648</ele>
        <time>2012-09-05T09:35:40.000Z</time>
      </trkpt>
      <trkpt lat="47.68827" lon="6.04624">
        <ele>237.39999389648</ele>
        <time>2012-09-05T09:35:46.000Z</time>
      </trkpt>
      <trkpt lat="47.68825" lon="6.04652">
        <ele>237.39999389648</ele>
        <time>2012-09-05T09:35:52.000Z</time>
      </trkpt>
      <trkpt lat="47.68823" lon="6.04678">
        <ele>237.39999389648</ele>
        <time>2012-09-05T09:35:57.000Z</time>
      </trkpt>
      <trkpt lat="47.68823" lon="6.04704">
        <ele>237.39999389648</ele>
        <time>2012-09-05T09:36:01.000Z</time>
      </trkpt>
      <trkpt lat="47.68822" lon="6.04718">
        <ele>237.39999389648</ele>
        <time>2012-09-05T09:36:03.000Z</time>
      </trkpt>
      <trkpt lat="47.68823" lon="6.04726">
        <ele>237.39999389648</ele>
        <time>2012-09-05T09:36:04.000Z</time>
      </trkpt>
      <trkpt lat="47.68823" lon="6.04741">
        <ele>237.80000305176</ele>
        <time>2012-09-05T09:36:06.000Z</time>
      </trkpt>
      <trkpt lat="47.68823" lon="6.04748">
        <ele>238.19999694824</ele>
        <time>2012-09-05T09:36:07.000Z</time>
      </trkpt>
      <trkpt lat="47.68823" lon="6.04756">
        <ele>238.80000305176</ele>
        <time>2012-09-05T09:36:08.000Z</time>
      </trkpt>
      <trkpt lat="47.68823" lon="6.04763">
        <ele>239.19999694824</ele>
        <time>2012-09-05T09:36:09.000Z</time>
      </trkpt>
      <trkpt lat="47.68823" lon="6.0477">
        <ele>239.60000610352</ele>
        <time>2012-09-05T09:36:10.000Z</time>
      </trkpt>
      <trkpt lat="47.68821" lon="6.04821">
        <ele>239.60000610352</ele>
        <time>2012-09-05T09:36:17.000Z</time>
      </trkpt>
      <trkpt lat="47.68817" lon="6.04841">
        <ele>240</ele>
        <time>2012-09-05T09:36:20.000Z</time>
      </trkpt>
      <trkpt lat="47.68816" lon="6.04847">
        <ele>240.39999389648</ele>
        <time>2012-09-05T09:36:21.000Z</time>
      </trkpt>
      <trkpt lat="47.68815" lon="6.04853">
        <ele>240.80000305176</ele>
        <time>2012-09-05T09:36:22.000Z</time>
      </trkpt>
      <trkpt lat="47.68814" lon="6.04858">
        <ele>241.19999694824</ele>
        <time>2012-09-05T09:36:23.000Z</time>
      </trkpt>
      <trkpt lat="47.68813" lon="6.04864">
        <ele>241.60000610352</ele>
        <time>2012-09-05T09:36:24.000Z</time>
      </trkpt>
      <trkpt lat="47.6881" lon="6.04874">
        <ele>241.60000610352</ele>
        <time>2012-09-05T09:36:26.000Z</time>
      </trkpt>
      <trkpt lat="47.68804" lon="6.04875">
        <ele>241.60000610352</ele>
        <time>2012-09-05T09:36:28.000Z</time>
      </trkpt>
      <trkpt lat="47.68798" lon="6.04876">
        <ele>242.19999694824</ele>
        <time>2012-09-05T09:36:30.000Z</time>
      </trkpt>
      <trkpt lat="47.68795" lon="6.04876">
        <ele>243</ele>
        <time>2012-09-05T09:36:31.000Z</time>
      </trkpt>
      <trkpt lat="47.68793" lon="6.04877">
        <ele>243.39999389648</ele>
        <time>2012-09-05T09:36:32.000Z</time>
      </trkpt>
      <trkpt lat="47.68791" lon="6.04877">
        <ele>243.80000305176</ele>
        <time>2012-09-05T09:36:33.000Z</time>
      </trkpt>
      <trkpt lat="47.68786" lon="6.04876">
        <ele>243.80000305176</ele>
        <time>2012-09-05T09:36:35.000Z</time>
      </trkpt>
      <trkpt lat="47.68782" lon="6.04871">
        <ele>243.80000305176</ele>
        <time>2012-09-05T09:36:37.000Z</time>
      </trkpt>
      <trkpt lat="47.6878" lon="6.04864">
        <ele>243.80000305176</ele>
        <time>2012-09-05T09:36:39.000Z</time>
      </trkpt>
      <trkpt lat="47.68776" lon="6.04855">
        <ele>243.80000305176</ele>
        <time>2012-09-05T09:36:42.000Z</time>
      </trkpt>
      <trkpt lat="47.68773" lon="6.04857">
        <ele>243.80000305176</ele>
        <time>2012-09-05T09:36:44.000Z</time>
      </trkpt>
      <trkpt lat="47.68774" lon="6.04867">
        <ele>243.80000305176</ele>
        <time>2012-09-05T09:36:47.000Z</time>
      </trkpt>
      <trkpt lat="47.68776" lon="6.04876">
        <ele>243.80000305176</ele>
        <time>2012-09-05T09:36:49.000Z</time>
      </trkpt>
      <trkpt lat="47.68781" lon="6.04891">
        <ele>243.80000305176</ele>
        <time>2012-09-05T09:36:53.000Z</time>
      </trkpt>
      <trkpt lat="47.68788" lon="6.04901">
        <ele>243.80000305176</ele>
        <time>2012-09-05T09:36:58.000Z</time>
      </trkpt>
      <trkpt lat="47.68794" lon="6.04897">
        <ele>243.80000305176</ele>
        <time>2012-09-05T09:37:03.000Z</time>
      </trkpt>
      <trkpt lat="47.68795" lon="6.04896">
        <ele>243.80000305176</ele>
        <time>2012-09-05T09:37:04.000Z</time>
      </trkpt>
      <trkpt lat="47.68799" lon="6.04895">
        <ele>243.80000305176</ele>
        <time>2012-09-05T09:37:07.000Z</time>
      </trkpt>
      <trkpt lat="47.688" lon="6.04889">
        <ele>243.80000305176</ele>
        <time>2012-09-05T09:37:09.000Z</time>
      </trkpt>
      <trkpt lat="47.68798" lon="6.04882">
        <ele>243.80000305176</ele>
        <time>2012-09-05T09:37:11.000Z</time>
      </trkpt>
      <trkpt lat="47.68795" lon="6.04882">
        <ele>243.80000305176</ele>
        <time>2012-09-05T09:37:12.000Z</time>
      </trkpt>
      <trkpt lat="47.68786" lon="6.04878">
        <ele>243.80000305176</ele>
        <time>2012-09-05T09:37:17.000Z</time>
      </trkpt>
      <trkpt lat="47.6878" lon="6.04864">
        <ele>243.80000305176</ele>
        <time>2012-09-05T09:37:21.000Z</time>
      </trkpt>
      <trkpt lat="47.68779" lon="6.04857">
        <ele>243.80000305176</ele>
        <time>2012-09-05T09:37:23.000Z</time>
      </trkpt>
      <trkpt lat="47.68774" lon="6.04843">
        <ele>244.19999694824</ele>
        <time>2012-09-05T09:37:27.000Z</time>
      </trkpt>
      <trkpt lat="47.68773" lon="6.0484">
        <ele>244.60000610352</ele>
        <time>2012-09-05T09:37:28.000Z</time>
      </trkpt>
      <trkpt lat="47.68772" lon="6.04836">
        <ele>245</ele>
        <time>2012-09-05T09:37:29.000Z</time>
      </trkpt>
      <trkpt lat="47.68771" lon="6.04833">
        <ele>245.60000610352</ele>
        <time>2012-09-05T09:37:30.000Z</time>
      </trkpt>
      <trkpt lat="47.6877" lon="6.0483">
        <ele>246</ele>
        <time>2012-09-05T09:37:31.000Z</time>
      </trkpt>
      <trkpt lat="47.68764" lon="6.04806">
        <ele>246</ele>
        <time>2012-09-05T09:37:38.000Z</time>
      </trkpt>
      <trkpt lat="47.68758" lon="6.04784">
        <ele>246</ele>
        <time>2012-09-05T09:37:44.000Z</time>
      </trkpt>
      <trkpt lat="47.68751" lon="6.04761">
        <ele>246</ele>
        <time>2012-09-05T09:37:51.000Z</time>
      </trkpt>
      <trkpt lat="47.6875" lon="6.04758">
        <ele>246.39999389648</ele>
        <time>2012-09-05T09:37:52.000Z</time>
      </trkpt>
      <trkpt lat="47.68749" lon="6.04754">
        <ele>246.80000305176</ele>
        <time>2012-09-05T09:37:53.000Z</time>
      </trkpt>
      <trkpt lat="47.68748" lon="6.04751">
        <ele>247.19999694824</ele>
        <time>2012-09-05T09:37:54.000Z</time>
      </trkpt>
      <trkpt lat="47.68748" lon="6.04748">
        <ele>247.60000610352</ele>
        <time>2012-09-05T09:37:55.000Z</time>
      </trkpt>
      <trkpt lat="47.68747" lon="6.04745">
        <ele>248</ele>
        <time>2012-09-05T09:37:56.000Z</time>
      </trkpt>
      <trkpt lat="47.68742" lon="6.04732">
        <ele>248</ele>
        <time>2012-09-05T09:38:00.000Z</time>
      </trkpt>
      <trkpt lat="47.68733" lon="6.04705">
        <ele>248</ele>
        <time>2012-09-05T09:38:07.000Z</time>
      </trkpt>
      <trkpt lat="47.68723" lon="6.04683">
        <ele>248</ele>
        <time>2012-09-05T09:38:13.000Z</time>
      </trkpt>
      <trkpt lat="47.68708" lon="6.04649">
        <ele>248</ele>
        <time>2012-09-05T09:38:21.000Z</time>
      </trkpt>
      <trkpt lat="47.68695" lon="6.0462">
        <ele>248</ele>
        <time>2012-09-05T09:38:28.000Z</time>
      </trkpt>
      <trkpt lat="47.68685" lon="6.04596">
        <ele>248</ele>
        <time>2012-09-05T09:38:33.000Z</time>
      </trkpt>
      <trkpt lat="47.68673" lon="6.04567">
        <ele>248</ele>
        <time>2012-09-05T09:38:38.000Z</time>
      </trkpt>
      <trkpt lat="47.6867" lon="6.04561">
        <ele>248</ele>
        <time>2012-09-05T09:38:39.000Z</time>
      </trkpt>
      <trkpt lat="47.6865" lon="6.04546">
        <ele>248</ele>
        <time>2012-09-05T09:38:43.000Z</time>
      </trkpt>
      <trkpt lat="47.68645" lon="6.04541">
        <ele>248</ele>
        <time>2012-09-05T09:38:44.000Z</time>
      </trkpt>
      <trkpt lat="47.68637" lon="6.04533">
        <ele>247.60000610352</ele>
        <time>2012-09-05T09:38:46.000Z</time>
      </trkpt>
      <trkpt lat="47.68634" lon="6.04533">
        <ele>247.19999694824</ele>
        <time>2012-09-05T09:38:47.000Z</time>
      </trkpt>
      <trkpt lat="47.68631" lon="6.04536">
        <ele>246.60000610352</ele>
        <time>2012-09-05T09:38:48.000Z</time>
      </trkpt>
      <trkpt lat="47.68629" lon="6.04539">
        <ele>246.19999694824</ele>
        <time>2012-09-05T09:38:49.000Z</time>
      </trkpt>
      <trkpt lat="47.68629" lon="6.04543">
        <ele>245.80000305176</ele>
        <time>2012-09-05T09:38:50.000Z</time>
      </trkpt>
      <trkpt lat="47.68629" lon="6.04546">
        <ele>245.80000305176</ele>
        <time>2012-09-05T09:38:51.000Z</time>
      </trkpt>
      <trkpt lat="47.68628" lon="6.04549">
        <ele>245.80000305176</ele>
        <time>2012-09-05T09:38:54.000Z</time>
      </trkpt>
    </trkseg>
  </trk>
</gpx>